GFSSW_prec_cloud_003.txt.gz
Cloud_Cover
100 100 100 100 100 100 100 100 100 100 100 100 100 100 100 100 100 100 99 100 100 100 24 19 22 30 28 34 92 53 100 100 88 92 48 1 0 0 0 0 0 0 0 0 1
100 100 100 100 100 100 97 100 100 100 100 100 100 100 100 100 100 100 100 100 100 100 94 78 91 91 92 65 40 53 40 100 34 5 0 0 0 0 0 0 0 0 0 0 0
100 100 100 100 100 100 100 100 100 100 100 100 100 100 100 100 100 100 100 100 100 67 58 76 88 34 34 12 93 65 72 3 0 0 0 0 0 0 0 0 0 0 0 0 0
100 100 100 100 100 100 100 100 100 98 85 41 90 70 92 100 100 100 94 84 30 5 55 87 69 29 54 34 0 0 0 0 0 0 0 0 0 0 0 0 0 0 0 0 0
100 100 100 100 100 100 100 78 51 65 41 51 5 3 2 46 32 19 72 88 74 92 98 11 8 4 2 0 0 0 0 0 0 0 0 0 0 0 0 0 0 0 0 0 0
100 100 100 100 100 100 100 100 100 85 78 32 4 24 0 0 0 0 1 0 0 1 0 1 0 0 0 0 0 0 0 0 0 0 0 0 0 0 0 0 0 0 0 0 0
100 100 100 100 100 81 79 81 34 4 0 0 0 0 0 0 0 0 0 0 0 0 0 0 0 0 0 0 0 0 0 0 0 0 0 0 0 0 0 0 0 0 0 0 0
99 96 100 89 9 5 1 0 0 0 0 0 3 0 0 0 0 0 0 0 0 0 0 0 0 0 0 0 0 0 0 0 0 0 0 0 0 0 0 0 0 0 0 0 0
69 5 32 4 0 0 0 0 0 0 0 26 7 0 0 0 0 0 0 0 0 0 0 0 0 0 0 0 0 0 0 0 0 0 0 0 0 0 0 0 4 5 5 36 13
5 1 0 0 0 0 0 0 0 0 0 0 0 0 0 0 0 0 0 0 0 0 0 0 0 0 0 0 0 0 0 0 0 0 0 0 0 0 3 4 5 60 38 56 100
0 1 5 0 0 0 0 0 0 0 0 0 0 0 0 0 0 0 0 0 0 0 0 0 0 0 0 0 0 0 0 0 0 0 0 0 0 0 5 5 5 6 100 100 100
0 2 0 0 0 0 0 0 0 0 0 0 0 0 0 0 0 0 0 0 0 0 0 0 0 0 0 0 0 0 0 0 0 0 0 0 0 0 0 23 92 98 93 40 100
0 0 0 0 0 0 0 0 0 0 0 0 0 0 0 0 0 0 0 0 0 0 0 0 0 0 0 0 0 0 0 0 0 0 0 0 1 0 1 3 2 2 9 96 100
0 0 0 0 0 0 0 0 0 0 0 0 0 2 6 0 0 0 0 0 0 0 0 0 0 0 0 0 0 0 0 0 0 3 0 0 0 6 19 5 2 36 52 92 100
3 0 0 0 0 0 0 0 0 0 0 0 0 0 0 5 0 0 0 0 0 0 0 0 0 0 0 0 0 4 0 0 0 0 5 0 0 0 0 0 4 100 100 99 100
1 0 0 0 0 0 0 0 0 0 2 0 0 0 0 3 5 0 0 0 0 0 0 0 0 0 0 0 5 0 1 0 2 1 1 0 2 0 0 3 5 5 5 5 21
0 0 14 0 0 0 0 0 0 2 0 0 0 0 0 0 0 0 0 0 0 0 0 0 0 0 3 0 2 0 5 2 0 2 10 3 40 16 0 32 97 89 44 5 5
0 2 0 0 0 0 2 0 0 0 0 0 0 0 0 0 0 0 0 0 0 0 0 2 5 0 0 0 0 0 0 1 3 22 100 78 65 43 2 65 21 52 32 5 9
5 0 0 0 0 0 11 14 5 0 0 0 0 0 2 0 0 0 0 0 0 0 0 0 3 5 0 5 3 4 2 0 5 3 5 45 68 6 5 8 99 5 14 37 6
0 0 0 0 4 2 5 5 5 0 1 3 0 0 0 0 0 0 0 0 0 4 4 6 5 6 5 5 5 5 5 4 5 23 64 9 82 5 5 0 93 90 38 5 56
0 0 0 5 2 5 5 4 1 5 5 5 0 0 0 0 0 4 5 5 1 1 5 5 5 5 6 7 5 5 5 93 100 98 99 98 100 9 44 53 39 85 91 10 72
0 2 2 5 6 61 7 5 0 5 5 4 4 0 0 0 0 4 5 32 5 5 6 7 6 58 5 5 5 5 6 48 100 61 18 81 100 99 7 95 99 99 80 100 97
2 0 5 5 5 59 5 5 5 5 5 5 5 4 0 0 2 5 5 18 6 5 27 5 5 65 5 5 46 34 6 5 4 5 6 90 79 35 91 56 100 87 85 100 91
1 1 5 5 5 5 5 5 5 5 5 5 4 1 3 2 5 5 5 16 51 5 5 5 6 16 40 48 42 100 85 5 4 22 13 45 21 5 20 100 80 28 97 57 69
0 0 5 5 5 5 5 5 3 5 5 5 5 6 5 5 5 5 5 6 5 5 5 70 83 55 6 44 88 100 54 77 74 91 6 13 7 17 72 100 96 94 99 67 99
0 5 29 32 5 11 53 38 32 55 5 5 6 5 5 22 58 13 15 90 11 7 5 82 99 54 100 100 30 99 100 31 5 4 5 5 34 100 95 99 36 100 100 100 100
15 65 74 29 5 5 5 5 5 27 7 5 5 5 94 5 24 74 8 5 6 14 5 6 22 64 90 95 99 100 100 100 100 100 23 60 42 66 39 72 62 94 89 70 43

GFSSW_prec_cloud_009.txt.gz
Cloud_Cover
100 100 100 100 100 100 36 13 100 100 100 100 100 100 100 100 100 100 65 11 100 100 96 100 87 100 100 100 100 100 100 100 96 100 100 100 87 92 85 100 63 6 5 12 1
100 100 100 98 100 100 100 92 100 100 97 100 96 100 100 100 100 100 100 20 8 100 100 98 100 85 80 98 100 100 100 58 85 100 100 100 100 100 99 30 16 0 0 0 0
100 100 100 100 100 100 100 100 100 68 9 42 38 97 97 18 100 80 100 100 87 47 99 97 91 89 100 100 100 100 100 100 100 100 100 100 100 100 14 1 0 0 0 0 0
100 100 98 100 100 100 97 26 31 95 13 30 75 5 24 11 57 100 100 100 100 100 85 100 100 100 100 100 100 90 100 100 100 61 43 54 0 0 0 0 0 0 0 0 0
90 41 67 94 100 94 100 100 74 91 100 100 90 9 1 12 98 100 100 100 100 96 100 100 100 100 97 100 100 100 100 89 92 30 1 0 0 0 0 0 0 0 0 0 0
100 100 100 100 97 13 74 100 22 86 22 0 4 0 1 0 46 94 100 37 100 75 99 100 93 83 100 97 81 86 40 2 0 0 0 0 0 0 0 0 0 0 0 0 4
100 100 100 100 99 100 100 100 100 47 98 91 76 21 5 4 0 0 0 1 5 66 29 67 36 99 100 99 96 6 0 0 0 0 0 0 0 0 0 0 0 0 0 2 5
100 100 100 100 100 100 100 100 95 74 96 73 20 34 5 0 0 0 0 0 0 0 0 0 0 0 0 0 0 0 0 0 0 0 0 0 0 0 0 0 0 0 0 1 4
100 100 100 100 100 100 100 100 98 53 42 5 5 1 0 0 0 0 0 0 0 0 0 0 0 0 0 0 0 0 0 0 0 0 0 0 0 0 0 0 0 0 0 2 5
100 100 100 100 100 100 98 53 16 26 4 0 0 0 0 0 0 0 0 0 0 0 0 0 0 0 0 0 0 0 0 0 0 0 0 0 0 0 0 0 3 3 34 74 5
100 100 100 100 100 100 99 45 50 3 0 0 0 0 0 0 0 0 0 0 0 0 0 0 0 0 0 0 0 0 0 0 0 0 0 0 0 0 0 0 0 2 87 34 5
100 100 93 82 84 13 25 13 2 0 0 0 0 0 0 0 0 0 0 0 0 0 0 0 0 0 0 0 0 0 0 0 0 0 0 0 0 0 0 1 5 5 3 4 5
100 96 98 14 5 4 1 0 0 0 0 0 0 0 0 0 0 0 0 0 0 0 0 0 0 0 0 0 0 0 0 0 0 0 0 0 0 0 0 0 0 5 2 0 0
92 80 6 0 0 0 0 0 0 0 0 0 0 0 0 0 0 0 0 0 0 0 0 0 0 0 0 0 0 0 0 0 0 0 0 0 0 3 1 0 0 3 1 0 0
5 9 3 5 4 0 0 0 0 0 0 0 0 0 0 0 0 0 0 0 0 0 0 0 0 0 0 0 0 0 0 0 0 0 0 0 0 5 5 5 3 0 3 8 22
5 14 5 1 5 1 0 0 0 0 0 0 0 0 0 0 0 0 0 0 0 0 0 0 0 0 0 0 0 0 0 0 0 0 0 0 0 0 2 5 66 7 58 99 100
23 5 2 2 0 0 0 0 0 0 0 0 0 0 0 0 0 0 0 0 0 0 0 0 0 0 0 0 0 0 0 3 0 3 0 2 0 0 0 5 43 93 100 100 87
5 5 1 0 0 0 0 0 0 0 2 0 0 0 0 0 0 0 0 0 0 0 0 0 0 0 0 0 0 0 0 4 0 16 15 5 4 0 0 5 90 100 22 6 49
19 5 3 5 3 0 0 0 0 0 0 0 0 0 0 0 0 0 0 0 0 0 0 0 0 0 0 0 0 0 0 0 1 31 73 100 28 0 0 3 36 5 5 5 5
41 50 5 5 2 1 2 0 0 0 0 0 3 0 0 0 0 0 0 0 0 0 0 0 0 0 0 0 0 0 0 2 5 24 80 62 82 10 0 3 3 2 3 3 4
53 32 5 2 0 3 4 5 5 5 0 0 3 4 5 5 3 0 0 0 0 0 0 0 0 4 4 5 5 5 3 5 15 5 9 46 88 1 5 2 11 2 1 4 5
22 17 5 0 0 5 5 5 5 5 3 5 3 5 5 5 5 0 0 0 0 0 0 0 2 5 5 12 90 10 5 5 83 20 5 15 32 5 3 5 3 5 5 5 5
31 39 5 0 0 0 4 5 5 5 5 5 5 9 9 5 3 0 0 2 0 3 4 1 5 5 5 5 9 6 0 5 5 10 77 79 34 5 5 5 19 6 3 3 5
36 6 2 0 0 0 0 4 1 5 5 5 4 5 5 5 3 0 0 0 0 2 3 0 1 5 5 1 3 5 1 1 5 80 55 56 73 5 6 5 5 5 21 72 56
42 5 5 0 0 0 0 0 0 5 5 5 5 0 1 0 1 4 5 2 5 5 5 5 5 44 5 5 18 8 5 68 5 5 96 7 5 5 6 42 53 73 58 98 98
4 5 5 5 0 0 0 0 0 0 5 5 5 5 5 5 5 5 5 5 3 5 5 5 5 5 48 5 5 21 5 5 5 5 6 7 25 9 60 12 40 64 100 89 35
2 7 66 5 5 0 1 0 0 0 5 5 5 5 5 8 5 5 27 5 2 3 3 1 4 55 21 81 69 100 6 6 63 33 93 65 28 5 5 5 5 5 5 5 5

GFSSW_prec_cloud_015.txt.gz
Cloud_Cover
60 71 100 100 100 100 100 38 0 13 3 50 5 15 31 0 100 100 100 100 100 100 100 100 81 100 98 100 100 63 95 92 100 93 100 100 100 100 88 98 100 100 100 100 100
100 100 100 100 100 100 97 97 100 56 60 100 98 91 8 3 5 100 100 100 100 100 100 100 76 100 100 99 66 100 70 100 100 100 98 95 100 100 100 100 100 100 100 100 100
64 100 100 100 100 100 100 100 100 25 7 87 95 5 12 5 0 0 48 100 100 100 100 100 93 100 90 91 100 100 100 100 100 100 100 100 100 98 100 100 100 100 100 100 7
17 82 100 100 100 100 100 76 100 95 83 67 90 3 0 4 0 0 0 5 100 100 100 100 100 100 100 100 100 100 100 100 100 100 99 100 100 100 100 100 100 98 97 95 12
81 100 100 100 100 94 87 100 100 100 100 95 51 3 0 0 0 0 0 0 2 81 100 100 100 89 16 77 55 65 98 94 100 100 100 77 74 100 100 100 70 3 2 0 0
100 100 100 100 100 100 92 100 100 72 5 4 0 0 0 0 0 0 0 0 0 0 6 21 89 100 99 71 73 100 100 100 94 100 99 23 15 37 71 32 1 0 0 0 0
100 100 100 100 100 100 100 100 20 5 0 0 0 5 0 0 0 0 0 0 0 0 0 0 0 5 13 98 100 57 78 17 7 53 4 5 1 0 0 0 0 0 0 0 0
100 100 100 100 100 93 50 5 5 0 0 98 48 5 4 5 0 0 0 0 0 0 0 0 0 0 0 39 0 0 0 3 0 0 0 0 0 0 0 0 0 0 0 0 0
100 100 100 77 8 61 62 1 0 18 41 5 5 14 5 3 0 0 0 0 0 0 0 0 0 0 0 0 0 0 0 0 0 0 0 0 0 0 0 0 0 0 0 0 0
100 74 10 5 5 93 5 5 8 40 41 97 30 5 2 0 0 0 0 0 0 0 0 0 0 0 0 0 0 0 0 0 0 0 0 0 0 0 0 0 0 0 0 0 0
100 83 5 16 88 54 71 88 100 100 99 5 5 0 0 0 0 0 0 0 0 0 0 0 0 0 0 0 0 0 0 0 0 0 0 0 0 0 0 0 0 0 0 0 0
76 57 57 66 76 99 100 100 95 93 20 5 2 0 0 0 0 0 0 0 0 0 0 0 0 0 0 0 0 0 0 0 0 0 0 0 0 0 0 0 0 0 0 0 0
94 60 94 100 100 100 100 58 46 12 5 0 0 0 0 0 0 0 0 0 0 0 0 0 0 0 0 0 0 0 0 0 0 0 0 0 0 0 0 0 0 0 0 0 0
100 100 100 100 100 69 34 11 26 2 0 0 0 0 0 0 0 0 0 0 0 0 0 0 0 0 0 0 0 0 0 0 0 0 0 0 0 0 0 0 0 0 0 0 0
100 100 100 45 5 5 19 12 4 0 0 0 0 0 0 0 0 0 0 0 0 0 1 0 0 0 0 0 0 0 0 0 0 0 0 0 0 0 0 0 4 5 5 5 5
95 100 44 6 4 5 3 0 0 0 0 0 0 0 0 0 0 0 0 0 0 0 0 2 4 0 0 0 0 0 0 0 0 0 0 0 0 0 0 3 6 5 5 5 5
67 5 36 5 5 4 0 0 0 0 0 0 0 0 0 0 0 0 0 0 0 0 0 0 0 2 0 0 0 0 0 0 0 0 0 0 0 0 0 3 4 0 4 5 5
26 5 11 5 5 0 0 0 0 0 0 0 0 0 0 0 0 0 0 0 0 0 0 0 0 0 0 0 0 0 0 0 3 5 3 4 0 0 0 0 3 0 5 5 5
20 10 8 6 1 5 5 0 0 0 3 5 0 0 0 0 0 0 0 0 0 0 0 0 0 0 0 0 0 0 0 0 2 5 4 0 0 0 0 0 0 0 1 4 5
5 6 14 5 6 6 5 3 0 0 0 4 1 0 0 0 0 0 0 0 0 0 0 0 0 0 0 0 0 0 0 0 0 3 0 0 0 0 2 3 5 0 5 10 5
6 6 14 71 22 10 5 0 0 0 0 1 0 1 2 0 0 0 0 0 0 0 0 0 0 0 0 0 0 3 4 1 0 5 6 73 34 3 5 5 4 5 5 9 38
20 6 66 41 40 9 1 4 1 5 3 5 5 5 5 3 0 0 0 0 0 0 0 0 0 0 0 0 0 4 5 0 5 5 4 18 14 30 5 6 18 50 56 96 100
80 35 44 7 33 5 5 5 4 5 5 59 16 5 5 5 1 0 0 0 0 0 0 0 0 0 0 0 0 0 0 5 5 14 5 47 92 8 18 76 98 87 100 100 46
38 8 27 36 28 19 5 5 0 5 5 5 5 4 5 5 2 0 0 0 0 1 5 2 0 0 0 0 5 0 0 4 5 50 38 17 99 42 100 61 5 25 90 25 12
100 6 15 84 8 22 5 0 0 5 5 2 0 1 4 5 5 5 1 0 0 0 0 0 0 0 5 5 5 5 2 3 5 5 33 98 98 30 42 6 56 14 5 53 35
69 77 12 22 31 8 5 5 5 0 0 0 0 0 0 0 0 0 5 5 3 5 5 5 5 5 5 5 5 5 2 5 5 3 5 5 19 5 5 6 5 15 83 45 17
100 76 51 36 55 25 6 5 5 5 4 5 0 0 2 0 2 0 0 0 0 4 5 5 5 48 64 27 5 5 5 3 5 5 5 5 7 5 5 9 26 54 24 52 100

GFSSW_prec_cloud_018.txt.gz
Cloud_Cover
86 100 99 88 100 100 92 0 0 0 8 75 100 100 100 99 5 1 96 100 100 100 100 100 100 100 100 100 100 100 100 92 100 100 100 100 100 100 100 100 100 100 100 100 100
67 43 100 100 100 99 92 0 0 3 100 100 100 99 42 4 0 0 7 98 100 100 100 100 100 100 100 100 100 100 100 100 100 93 100 70 86 100 97 100 100 100 100 100 100
5 70 100 100 82 91 44 0 5 48 99 100 12 20 5 10 0 0 0 1 29 89 100 100 100 100 100 100 100 100 90 92 100 87 61 93 100 100 100 100 100 100 100 100 100
58 49 83 100 100 99 14 22 80 100 100 100 95 28 1 0 0 0 0 0 0 0 2 86 100 100 100 100 100 98 99 100 100 100 100 100 100 100 100 100 100 100 100 100 100
95 62 16 96 100 53 66 100 100 100 100 83 64 1 0 0 0 0 0 0 0 0 0 0 26 100 100 100 100 100 95 59 92 97 100 100 100 100 100 100 100 100 98 100 95
98 85 35 100 99 100 100 100 100 100 100 44 5 17 0 0 0 0 0 0 0 0 0 0 1 2 24 80 91 100 100 100 87 89 100 100 100 100 100 100 100 51 46 79 58
100 100 100 100 100 100 100 100 100 84 5 2 0 0 0 0 0 0 0 0 0 0 0 0 0 0 0 0 17 51 6 70 100 98 100 100 100 75 66 84 0 5 0 0 0
100 100 100 100 100 100 100 99 5 4 0 0 0 0 0 0 0 0 0 0 0 0 0 0 0 0 0 0 0 0 0 0 0 28 48 6 0 0 1 0 0 0 0 0 0
100 100 100 100 100 100 76 5 0 0 0 5 2 5 2 2 0 0 0 0 0 0 0 0 0 0 0 0 0 0 0 0 0 0 0 0 0 0 0 0 0 0 0 0 0
100 100 100 82 21 5 0 0 0 2 3 5 6 31 22 4 0 0 0 0 0 0 0 0 0 0 0 0 0 0 0 0 0 0 0 0 0 0 0 0 0 0 0 0 0
100 100 86 76 75 7 15 0 5 5 80 80 80 67 5 0 0 0 0 0 0 0 0 0 0 0 0 0 0 0 0 0 0 0 0 0 0 0 0 0 0 0 0 0 0
64 5 5 39 5 1 2 5 20 45 100 94 41 1 0 0 0 0 0 0 0 0 0 0 0 0 0 0 0 0 0 0 0 0 0 0 0 0 0 0 0 0 0 0 0
5 5 30 62 5 19 74 98 100 96 81 13 2 0 0 0 0 0 0 0 0 0 0 0 0 0 0 0 0 0 0 0 0 0 0 0 0 0 0 0 0 0 0 0 0
9 60 49 84 94 100 100 96 48 53 8 1 0 0 0 0 0 0 0 0 0 0 0 0 0 0 0 0 0 0 0 0 0 0 0 0 0 0 0 0 0 0 0 0 0
97 100 100 100 100 100 77 29 78 6 2 0 0 0 0 0 0 0 0 0 0 0 0 0 0 0 0 0 0 0 0 0 0 0 0 0 0 0 0 0 0 1 4 0 4
100 100 100 100 99 79 29 73 16 0 0 0 0 0 0 0 0 0 0 0 0 0 0 0 0 0 0 0 0 0 0 0 0 0 0 0 0 4 0 0 1 5 0 0 1
100 100 68 58 34 22 60 19 2 0 0 0 0 0 0 0 0 0 0 0 0 0 0 0 0 0 0 0 0 0 0 0 2 1 2 0 0 0 0 0 5 4 0 0 5
74 67 57 8 5 5 5 0 0 0 0 0 0 0 0 0 0 0 0 0 0 0 0 0 0 0 0 0 0 0 0 0 0 0 0 0 0 2 0 0 1 0 0 3 5
100 53 22 5 5 2 0 0 4 0 0 0 0 0 0 0 0 0 0 0 0 0 0 0 0 0 0 0 0 0 0 0 0 2 4 2 1 0 0 0 2 5 5 4 5
91 40 5 5 4 0 2 0 0 0 0 0 0 0 0 0 0 0 0 0 0 0 0 0 0 0 0 0 0 0 0 3 2 22 4 0 0 0 1 3 5 5 4 0 0
41 10 5 5 0 5 5 0 0 0 0 0 0 0 0 0 0 0 0 0 0 0 0 0 0 0 0 0 0 4 4 0 0 1 1 2 0 0 2 5 8 1 0 1 5
92 5 5 15 5 20 5 5 0 0 0 0 0 0 0 3 4 5 0 0 0 0 0 0 0 0 0 0 0 0 0 0 0 4 4 4 4 5 5 5 1 5 4 6 69
60 34 51 24 55 22 5 5 1 5 5 5 5 5 5 5 5 0 0 0 0 0 0 0 0 0 0 0 0 4 0 0 5 5 5 79 44 78 5 6 17 5 26 98 100
58 83 37 9 29 24 5 5 5 8 5 5 5 5 5 5 4 0 0 0 1 0 0 0 0 0 0 2 0 0 0 5 5 9 9 6 38 5 10 5 10 83 100 88 62
92 25 74 100 96 54 9 14 12 19 5 2 2 1 0 0 0 0 0 0 0 0 1 5 1 5 5 5 5 5 3 2 4 4 51 5 5 5 5 30 64 44 74 98 42
95 90 88 6 56 100 62 60 57 10 5 1 0 0 0 0 0 0 0 0 0 0 0 0 5 3 4 5 5 0 0 4 2 3 5 5 5 5 5 5 28 66 100 54 73
100 100 100 34 5 46 92 30 55 5 5 5 5 0 18 0 0 1 2 1 3 0 4 5 3 5 44 5 5 16 5 5 4 5 5 5 73 5 6 42 85 94 8 66 99

GFSSW_prec_cloud_021.txt.gz
Cloud_Cover
3 0 35 100 100 100 100 48 24 1 0 3 0 0 0 21 31 1 0 24 100 100 100 100 100 100 100 100 100 100 100 100 100 100 100 100 96 47 94 98 100 100 100 100 100
7 4 10 97 96 96 91 22 6 0 0 0 0 41 88 69 2 1 4 0 20 100 100 100 100 100 100 100 100 100 100 100 100 100 100 100 99 82 100 100 100 100 100 100 100
36 4 8 5 69 90 77 0 0 0 2 59 100 100 100 95 85 1 0 0 1 4 91 100 100 100 100 100 100 100 100 100 100 100 100 100 100 98 100 100 100 100 100 100 100
5 5 4 3 73 94 71 0 3 15 77 100 100 99 94 2 13 5 5 0 1 0 6 13 100 100 100 100 100 100 100 100 100 100 100 99 100 100 100 100 100 100 100 100 100
86 4 5 2 86 99 34 0 18 100 69 100 89 28 84 76 34 0 0 0 0 0 0 0 9 42 9 86 100 100 100 100 100 100 100 100 100 100 100 100 100 100 100 100 100
78 70 3 1 18 69 3 77 100 100 100 100 100 100 9 0 0 0 0 0 0 0 0 0 0 0 0 2 13 78 100 100 100 100 100 100 100 100 100 100 100 93 41 89 98
66 37 18 100 5 7 93 100 100 100 100 100 52 1 0 0 0 0 0 0 0 0 0 0 0 0 0 0 0 0 1 6 68 100 99 100 100 100 100 100 93 8 0 2 4
14 100 100 85 100 100 100 100 100 100 99 13 1 0 0 0 0 0 0 0 0 0 0 0 0 0 0 0 0 0 0 2 0 0 0 6 69 18 1 4 4 0 0 0 0
100 100 100 100 100 100 100 100 85 5 5 3 2 0 0 0 0 0 0 0 0 0 0 0 0 0 0 0 0 0 49 1 0 0 0 0 18 5 0 0 0 0 0 0 0
100 100 100 100 100 100 100 90 5 31 16 0 0 2 4 2 4 4 3 3 1 0 0 0 0 0 0 1 86 6 0 0 0 0 0 0 0 0 0 0 0 0 0 0 0
100 100 100 100 100 100 35 4 0 0 0 1 5 58 9 5 5 4 1 0 0 0 0 0 1 4 0 0 0 0 0 0 0 0 0 0 0 0 0 0 0 0 0 0 0
100 100 100 80 11 5 12 0 0 0 11 38 49 52 5 0 0 0 0 0 0 0 0 0 0 0 0 0 0 0 0 0 0 0 0 0 0 0 0 0 0 0 0 0 0
100 100 100 10 5 28 1 4 6 29 98 53 7 4 0 0 0 0 0 0 0 0 0 0 0 0 0 0 0 0 0 0 0 0 0 0 0 0 0 0 0 0 0 0 0
43 63 34 5 33 5 25 96 100 100 98 18 3 0 0 0 0 0 0 0 0 0 0 0 0 0 0 0 0 0 0 0 0 0 10 0 77 0 0 0 0 0 0 0 0
91 79 100 10 25 73 100 100 78 62 18 5 0 0 0 0 0 0 0 0 0 0 0 0 0 0 0 0 0 0 0 0 0 0 0 0 0 62 0 0 0 0 0 0 0
84 100 100 66 51 100 100 80 68 6 5 0 0 0 0 0 0 0 0 0 0 0 0 0 0 0 0 0 0 0 0 0 0 0 1 4 0 100 64 3 2 0 0 0 0
100 100 100 100 100 100 75 49 23 5 5 0 0 0 0 0 0 0 0 0 0 0 0 0 0 0 0 0 0 0 0 5 55 19 57 3 0 9 0 0 0 0 0 0 0
100 100 100 100 100 91 31 53 8 5 2 0 0 0 0 0 0 0 0 0 0 0 0 3 4 0 0 0 0 0 0 4 2 5 18 0 1 18 0 0 0 0 0 0 0
100 100 100 51 80 79 10 46 22 4 0 0 0 0 0 0 0 0 0 0 0 0 1 0 2 0 0 0 0 0 3 0 0 0 0 1 5 2 0 0 0 0 0 1 5
100 99 71 83 56 30 5 63 5 3 0 0 0 0 0 0 0 0 0 0 0 0 0 0 1 0 0 0 0 0 0 4 5 22 0 42 12 91 3 2 42 18 20 5 5
100 99 67 69 44 5 12 5 0 0 0 0 1 0 0 0 5 5 3 0 0 0 0 0 0 0 0 0 0 2 5 0 0 0 1 0 1 2 9 2 10 4 5 5 5
79 59 58 47 5 5 5 0 0 0 0 0 5 5 4 5 5 5 5 0 0 0 0 0 0 0 0 0 0 0 2 1 0 0 5 4 15 5 0 3 5 55 5 6 45
100 96 26 53 10 5 5 5 5 1 0 2 0 4 5 5 5 4 0 0 0 0 0 0 0 0 0 0 1 1 4 5 3 2 5 32 5 81 40 98 100 100 20 67 100
82 84 18 33 16 11 55 5 8 5 4 5 5 5 8 5 5 0 0 0 0 0 2 5 0 2 3 4 5 3 3 5 5 7 5 5 66 95 100 100 67 46 74 81 79
68 72 20 53 27 72 69 79 51 5 5 5 5 5 5 1 0 0 0 0 0 0 0 0 0 0 0 0 0 4 5 5 5 5 80 5 97 100 100 72 6 75 67 80 83
56 18 14 5 5 19 36 60 45 20 7 5 5 2 0 0 0 0 0 0 0 0 2 0 5 5 5 0 0 0 0 0 5 5 27 100 100 100 17 78 60 93 91 100 100
8 74 41 5 5 5 13 76 56 71 34 10 10 5 5 2 0 0 1 0 0 2 4 1 5 5 5 7 2 18 5 5 5 95 81 100 100 78 71 100 70 80 54 100 73

GFSSW_prec_cloud_024.txt.gz
Cloud_Cover
0 5 0 0 13 100 81 23 4 3 0 6 9 0 0 0 0 22 1 3 100 100 100 100 100 100 100 100 100 100 100 100 100 100 100 100 100 100 95 85 100 100 100 100 100
2 0 8 2 3 98 77 100 96 14 5 0 0 0 0 0 0 9 1 5 6 26 100 100 100 100 100 100 100 100 100 100 100 100 97 91 100 100 100 94 100 100 100 100 100
7 5 2 0 5 8 95 20 100 100 4 0 0 0 0 0 0 50 28 5 2 0 0 100 100 100 100 100 100 100 100 100 100 100 93 100 100 100 100 100 100 100 100 100 100
5 5 1 5 86 26 71 100 45 4 0 0 0 1 4 51 68 12 5 0 0 0 0 85 100 100 100 100 100 100 100 100 100 100 100 100 100 100 100 100 100 100 100 100 100
5 4 4 99 38 38 100 99 2 0 5 24 79 100 100 100 78 98 4 0 1 3 5 6 86 96 100 93 100 100 100 100 100 100 100 100 100 100 100 100 100 100 100 100 100
8 57 32 4 1 49 100 0 0 5 100 100 100 100 82 43 26 5 55 5 3 0 0 3 87 48 1 2 74 100 100 100 100 100 100 100 100 100 100 100 100 100 100 100 100
100 100 5 4 5 5 0 2 38 100 100 100 13 21 96 99 100 100 3 1 0 0 0 0 0 0 0 0 0 0 75 81 79 100 100 100 100 100 100 100 100 100 100 100 100
6 6 7 1 10 55 17 32 100 100 100 100 100 100 100 78 86 2 0 0 0 0 0 0 0 0 1 0 0 0 0 17 4 4 2 4 23 56 4 4 56 22 13 5 56
92 100 100 61 100 100 100 100 100 100 100 100 94 58 54 4 4 0 0 0 0 0 0 0 0 0 0 0 0 0 60 70 0 4 5 5 44 100 2 0 0 0 0 0 0
100 100 98 99 100 100 100 100 100 100 97 3 0 1 0 1 5 0 0 0 0 0 0 0 0 0 0 20 100 100 38 10 1 1 0 0 0 75 0 0 0 0 0 15 34
100 100 100 100 100 100 100 100 100 86 98 2 4 1 1 2 5 4 2 1 5 2 0 0 8 87 11 0 0 0 0 0 4 0 0 0 0 2 0 0 0 0 0 0 0
100 100 100 100 100 100 91 44 6 17 6 1 3 7 45 27 36 48 74 51 5 4 5 5 4 0 0 0 0 0 0 1 0 0 0 0 0 0 0 0 0 0 0 0 0
100 100 100 100 100 100 59 24 4 0 5 7 81 100 90 77 73 46 20 16 4 3 1 0 1 0 0 0 0 0 0 0 0 0 0 0 1 0 0 0 0 0 0 0 0
100 100 100 100 7 5 3 0 0 5 58 76 99 83 57 41 7 5 1 1 0 0 0 0 0 0 0 0 0 0 0 0 0 0 10 2 27 70 1 0 0 0 0 0 0
100 100 56 5 14 2 5 3 14 99 100 100 79 28 5 5 0 0 0 0 0 0 0 0 0 0 0 0 0 0 0 0 0 0 0 2 0 95 5 8 2 0 0 0 0
100 44 6 5 5 76 61 99 99 100 80 48 37 5 1 0 0 0 0 0 0 0 0 0 0 0 0 0 0 0 0 0 0 0 0 11 58 100 100 96 22 1 0 0 0
9 64 34 65 84 90 100 100 92 48 21 11 5 0 0 0 0 0 0 0 1 2 1 0 0 0 0 1 0 0 0 11 65 71 12 21 65 38 8 92 51 5 0 0 0
93 97 54 84 100 100 88 72 46 72 40 5 2 0 0 0 0 0 0 0 0 0 6 6 8 0 0 0 0 0 0 2 2 10 32 19 2 5 1 1 5 0 0 1 0
87 96 100 100 100 100 69 79 85 70 45 5 0 0 0 0 0 0 0 0 0 0 1 0 2 0 0 0 0 9 3 0 0 0 0 0 9 64 18 42 5 0 13 82 7
100 100 100 100 100 100 95 64 68 36 5 1 0 0 2 0 0 4 0 0 0 0 0 0 4 0 0 0 0 0 0 2 87 9 5 9 88 100 70 24 43 93 48 5 5
100 100 100 100 100 98 83 78 84 27 5 0 4 0 5 1 5 5 2 0 0 0 0 0 0 0 0 0 0 0 4 2 2 2 2 17 28 8 66 24 20 5 8 13 5
100 100 100 99 86 82 100 92 91 11 2 0 0 0 5 0 5 2 0 0 0 0 0 0 0 0 0 0 0 0 0 3 5 0 0 1 68 0 0 2 4 8 13 60 5
100 100 100 74 60 50 63 99 43 5 2 0 1 2 2 5 3 5 5 2 0 0 0 0 0 0 0 1 0 0 2 4 1 0 0 1 5 96 77 28 100 98 100 28 18
100 90 67 71 74 7 14 64 5 5 2 0 5 5 4 3 5 5 3 1 0 0 0 0 0 3 1 2 1 0 0 4 4 5 5 0 15 29 93 100 81 43 6 7 5
97 99 38 89 9 5 5 5 5 5 0 5 5 5 16 5 5 5 5 0 0 0 0 0 0 0 0 0 0 0 0 0 0 5 77 9 99 95 94 5 79 16 5 5 7
74 72 5 51 58 28 14 21 6 5 5 5 5 5 15 5 5 5 0 0 0 0 0 0 0 0 0 0 0 3 0 0 0 5 61 20 46 96 65 53 5 5 5 5 5
98 43 56 15 39 70 28 32 64 12 10 5 5 5 18 6 5 0 0 0 0 0 1 0 0 1 2 6 4 1 0 0 5 77 52 90 34 96 66 11 5 63 5 5 6

GFSSW_prec_cloud_027.txt.gz
Cloud_Cover
100 100 89 0 0 0 0 47 0 0 0 0 0 0 0 0 2 1 0 2 0 0 100 100 100 100 100 100 100 100 100 100 100 100 100 100 100 100 100 99 100 100 100 89 56
46 100 5 0 0 0 0 4 0 3 2 5 2 0 0 0 5 5 3 4 0 0 6 100 100 100 100 100 100 100 100 100 100 100 100 100 100 100 100 100 100 99 98 99 100
100 99 5 4 1 1 1 3 50 89 52 32 2 0 0 0 0 5 99 5 5 23 100 100 100 100 100 100 100 100 100 100 100 100 100 100 100 100 100 99 98 79 100 100 100
100 99 20 5 5 58 100 5 52 100 100 100 44 0 0 0 1 69 88 38 99 48 24 100 100 100 100 100 100 100 100 100 100 100 100 100 100 100 100 100 100 100 100 100 100
100 49 3 5 5 68 100 82 100 100 83 100 5 0 1 1 56 23 90 100 76 10 2 60 100 100 100 100 100 100 100 100 100 100 100 100 100 100 100 100 100 100 100 100 100
71 5 9 5 11 96 58 99 100 24 4 5 5 3 44 93 100 100 74 5 0 3 3 1 18 100 100 100 100 100 100 100 100 100 100 100 100 100 100 100 100 100 100 100 100
68 44 7 94 6 5 3 97 2 0 3 31 97 98 100 100 65 4 5 77 59 74 50 3 4 47 5 91 100 98 97 100 100 100 100 100 100 100 100 100 100 100 100 100 100
100 100 100 90 0 0 5 0 11 100 100 100 100 100 100 100 100 100 100 100 93 89 4 0 0 0 0 0 0 10 89 71 100 100 96 3 81 85 88 97 94 98 98 38 26
98 5 5 0 0 0 4 49 100 100 100 100 100 96 96 100 100 100 98 31 4 1 0 0 0 0 0 2 2 72 100 31 24 5 0 0 0 0 5 13 20 4 3 40 45
97 100 80 3 66 82 94 95 100 100 100 100 100 100 100 100 69 93 15 3 0 0 0 0 0 4 58 2 14 12 59 67 3 0 0 0 1 67 8 2 2 0 0 0 0
100 100 96 100 100 94 91 100 100 100 100 100 79 100 70 57 29 50 5 5 0 0 0 0 1 5 0 0 26 16 30 4 0 0 0 0 0 0 0 0 0 0 0 0 0
93 100 100 100 100 100 98 100 100 100 79 49 4 4 5 49 5 5 1 1 2 0 0 2 0 5 5 1 0 3 1 0 0 0 0 0 0 0 0 0 0 0 0 0 0
100 100 100 100 100 100 100 100 92 12 64 64 99 4 4 28 31 19 5 5 5 3 2 5 3 3 0 0 0 0 0 0 0 0 0 0 0 0 0 0 0 2 0 0 0
100 100 100 100 100 100 100 56 100 100 50 34 65 62 10 67 63 9 5 5 5 4 5 2 0 0 0 0 0 0 0 0 0 0 0 0 3 2 0 0 1 1 0 0 0
100 100 100 100 100 10 7 5 49 94 64 92 100 91 34 60 23 41 5 5 2 2 0 0 0 0 0 0 0 0 0 0 0 0 0 0 1 98 31 5 4 0 0 4 1
100 100 100 100 46 68 48 0 5 96 76 99 62 60 86 71 57 5 4 0 0 0 0 0 0 0 0 0 0 0 0 0 0 0 0 0 21 99 36 10 1 0 24 7 23
100 100 100 28 13 3 3 5 75 98 98 60 64 78 78 52 6 0 0 0 0 0 0 0 0 0 0 0 0 0 0 0 3 4 82 36 24 100 100 78 2 1 5 0 0
100 100 97 5 1 9 58 100 95 54 32 22 46 71 14 2 0 0 0 0 0 1 4 3 0 0 0 0 0 0 0 0 0 2 5 8 49 98 56 5 81 80 56 5 3
100 5 5 5 11 99 96 90 78 23 53 19 6 5 4 0 0 0 0 0 0 0 0 5 0 0 0 0 0 0 0 0 0 0 0 2 4 52 15 93 100 100 90 58 5
51 37 5 13 99 100 42 9 50 66 25 5 6 3 0 0 0 0 0 0 0 0 0 0 0 0 0 0 0 0 0 0 1 0 1 0 5 31 5 51 79 100 100 60 24
47 93 37 100 100 98 46 51 28 5 15 37 5 1 39 4 4 42 2 0 0 0 0 0 0 0 0 0 0 0 0 0 0 0 2 4 2 5 5 8 23 57 22 5 5
68 99 49 79 97 100 22 41 5 20 15 5 4 0 8 5 5 4 3 0 0 0 0 0 0 0 0 0 0 0 0 1 0 0 0 4 0 2 6 40 100 45 89 64 5
100 90 97 100 100 100 74 37 5 29 39 5 2 0 0 0 3 5 5 5 1 0 0 0 0 0 0 0 0 0 0 0 0 2 0 1 0 5 92 65 100 61 48 11 62
91 100 100 100 100 82 99 92 32 5 32 5 1 0 0 0 2 5 6 5 5 1 0 0 0 0 0 2 1 0 0 0 0 0 1 2 3 0 99 4 12 67 5 5 7
100 100 100 100 100 84 49 45 33 7 7 5 1 5 4 4 5 5 5 2 5 5 4 0 0 0 0 0 0 0 0 0 0 0 1 2 81 88 5 63 77 5 5 5 5
100 100 100 100 80 64 54 11 6 22 5 5 0 0 4 5 5 5 5 5 0 0 0 0 0 0 0 0 0 0 0 0 0 0 0 5 37 88 42 5 5 5 5 5 18
100 100 100 73 90 61 5 5 5 5 5 5 5 5 5 5 5 4 1 0 0 0 0 0 0 5 5 6 4 0 0 0 1 0 3 2 5 5 5 5 5 5 5 5 7

GFSSW_prec_cloud_030.txt.gz
Cloud_Cover
11 46 100 92 100 9 5 0 0 0 0 0 3 0 0 0 0 0 0 4 4 17 74 100 100 100 100 100 100 100 100 100 100 100 100 100 100 100 100 100 100 100 100 100 100
87 100 98 100 100 14 5 5 0 0 0 0 0 0 0 0 0 0 3 5 5 5 29 100 100 100 100 100 100 100 100 100 100 100 100 100 100 100 100 100 99 98 100 100 100
72 100 100 100 16 5 5 4 0 0 4 54 3 0 0 0 0 0 4 7 50 80 100 100 100 100 100 100 100 100 100 100 100 100 100 100 100 100 100 100 100 100 100 97 100
97 65 100 100 35 33 100 7 22 16 18 100 82 13 1 2 0 0 22 94 74 8 34 100 100 100 100 100 100 100 100 100 100 100 100 100 100 100 100 100 72 90 100 100 100
91 86 100 96 5 3 87 52 6 3 100 52 100 98 3 1 0 0 59 94 18 79 20 7 100 100 100 100 100 100 100 100 100 100 100 100 100 100 100 100 100 100 100 100 100
7 93 61 6 5 5 46 38 89 52 100 75 87 100 4 25 11 16 85 64 100 100 100 87 86 79 100 100 100 100 100 100 100 100 100 100 100 100 100 100 100 100 100 100 100
5 41 8 5 5 5 67 100 76 20 5 51 7 7 90 97 67 71 84 98 85 100 100 100 100 89 100 100 100 100 100 100 97 100 100 100 100 100 100 100 100 100 100 100 100
62 5 6 5 14 52 26 90 5 1 0 4 74 100 100 99 100 100 100 100 100 100 64 100 35 86 94 100 100 100 100 100 100 100 100 100 100 100 92 95 90 100 100 100 100
24 20 5 94 78 9 4 3 0 16 48 100 100 100 100 100 100 100 100 100 88 98 95 20 5 5 6 42 100 100 100 100 100 100 100 100 100 100 100 100 100 99 100 100 4
18 5 4 27 2 3 0 5 99 100 100 100 100 100 100 100 87 97 97 100 78 6 5 4 4 5 5 4 5 3 4 25 62 27 3 44 18 22 5 76 64 8 48 3 0
42 60 5 0 4 5 33 98 100 98 100 100 89 93 99 100 100 100 100 68 5 4 35 14 4 4 0 5 5 6 2 3 0 0 0 0 0 0 0 0 0 0 0 0 0
33 100 34 98 9 98 97 100 100 100 100 100 100 100 100 98 94 90 9 5 5 0 5 2 2 0 5 1 95 97 90 4 0 0 0 0 0 0 0 0 0 0 0 0 0
46 29 23 100 100 100 100 100 100 100 100 96 100 100 98 14 18 49 5 1 0 0 0 0 1 5 1 2 4 50 5 0 0 0 0 0 0 0 0 0 0 0 0 84 88
6 48 75 100 100 100 100 100 100 100 100 4 6 9 8 5 3 2 0 5 5 5 5 3 4 2 5 3 0 0 0 0 0 0 0 0 0 0 0 0 0 0 0 63 100
77 100 30 100 78 98 100 100 62 65 8 5 5 5 5 5 10 6 5 6 6 5 5 0 0 0 0 0 0 0 0 0 0 0 0 0 0 0 0 0 0 0 62 100 100
100 99 98 100 100 100 100 71 100 100 74 10 35 53 36 6 7 19 5 5 2 2 0 0 0 0 0 0 0 0 0 0 0 0 0 0 0 4 5 4 60 16 100 100 98
100 100 100 100 100 100 73 82 54 85 60 64 47 56 72 68 55 7 5 5 0 0 0 0 0 0 0 0 0 0 0 0 1 3 4 2 1 5 51 27 88 100 100 25 86
100 100 100 100 100 100 93 8 7 93 93 13 86 78 51 76 61 12 1 0 0 0 0 0 2 0 0 0 0 0 0 0 0 2 5 5 14 51 11 16 78 65 30 40 63
100 95 100 100 21 16 5 14 48 39 76 75 29 60 88 73 5 2 0 0 0 3 0 0 0 0 0 0 0 0 0 0 0 0 0 0 5 5 58 89 100 100 99 99 88
100 100 100 91 10 5 11 88 90 72 6 35 60 92 78 8 4 0 0 0 0 0 0 0 0 0 0 0 0 0 0 0 0 0 1 0 3 60 5 89 16 13 12 70 7
100 100 100 15 36 77 37 41 6 19 59 63 34 9 5 3 0 0 0 0 0 0 0 0 0 0 0 0 0 0 0 0 0 0 2 4 0 0 1 5 5 7 92 100 100
100 100 69 5 88 92 49 64 7 9 7 73 31 5 5 5 0 0 0 0 0 0 0 0 0 0 0 0 0 0 0 0 0 0 0 4 1 3 31 48 5 27 84 44 85
100 51 5 83 100 67 23 25 55 5 16 59 14 5 0 5 1 0 0 1 1 0 0 0 0 0 0 0 0 0 0 0 2 2 0 0 0 0 24 93 89 78 63 48 12
91 11 54 100 94 49 44 44 29 5 15 34 8 5 5 0 0 2 5 5 5 5 5 1 2 0 0 0 0 0 0 5 4 5 3 1 0 0 5 5 5 1 5 5 62
80 100 100 100 100 100 98 46 5 5 5 9 45 5 4 4 5 5 5 5 5 5 5 5 4 0 0 1 5 5 5 0 0 0 0 0 0 0 1 4 5 5 5 64 97
100 100 56 100 58 99 54 31 23 6 5 10 89 40 16 6 3 0 5 5 5 5 5 0 0 0 0 0 5 5 0 0 0 0 0 0 0 0 4 5 5 5 20 97 100
100 78 95 100 100 100 91 44 38 72 98 100 52 5 5 4 5 5 5 5 5 5 4 2 4 3 5 5 5 5 1 0 0 3 4 0 0 0 0 3 4 5 5 10 6

GFSSW_prec_cloud_033.txt.gz
Cloud_Cover
0 18 84 56 83 85 16 25 18 2 0 0 19 4 0 0 3 12 5 1 4 41 16 61 93 87 100 100 100 100 100 100 100 100 100 100 100 100 100 100 100 100 100 100 100
30 53 5 100 100 24 69 49 0 0 0 0 1 0 0 2 7 5 4 0 3 5 31 100 80 99 100 100 100 100 100 100 100 100 100 100 100 100 100 100 100 100 100 100 100
16 8 17 44 100 100 9 5 0 1 0 0 0 0 0 2 1 5 5 0 2 72 100 98 73 100 100 78 100 100 100 100 100 100 100 100 100 100 100 100 100 100 100 100 100
0 0 21 57 49 47 78 5 5 57 2 4 30 2 0 2 0 0 0 3 56 100 100 5 5 96 100 100 100 100 100 100 100 100 100 100 100 100 100 100 100 100 100 100 100
0 8 31 22 19 5 5 4 7 100 12 0 100 27 7 26 1 0 21 11 92 89 18 46 99 100 100 100 100 100 100 100 100 100 98 100 100 100 100 94 100 100 100 100 100
1 14 20 22 6 5 2 0 6 100 44 3 28 100 73 23 2 5 26 93 95 100 96 100 100 100 100 100 100 100 100 100 100 95 87 100 100 100 100 100 100 100 100 100 100
7 4 13 5 5 3 1 5 22 100 100 32 100 55 83 95 40 76 90 100 100 100 100 100 100 87 99 100 100 100 100 100 100 100 100 100 100 100 100 100 100 100 100 100 100
4 5 64 9 5 5 11 30 100 100 100 5 8 34 99 94 14 26 69 100 100 100 100 100 100 100 100 100 100 100 100 100 100 100 100 100 100 100 100 100 100 100 100 100 100
2 20 100 64 5 5 12 24 100 65 0 1 28 35 100 100 100 100 100 100 100 100 100 100 92 100 100 100 86 96 100 100 100 100 100 100 100 61 95 100 100 97 100 100 100
8 29 64 8 5 22 13 5 5 0 50 100 100 96 86 99 93 88 96 100 100 100 100 100 95 25 60 16 26 49 95 100 100 100 100 100 100 100 100 100 100 100 100 100 100
5 5 5 5 5 1 0 0 2 73 98 100 98 100 96 100 100 100 100 85 69 100 39 97 8 4 5 5 5 5 5 5 56 92 100 100 100 100 100 100 100 100 10 5 5
5 5 4 5 4 5 2 91 71 94 99 97 100 100 100 65 71 54 100 100 100 78 3 5 4 4 14 14 5 5 5 5 9 6 33 8 5 0 0 5 5 4 0 0 0
98 5 14 9 0 87 61 98 100 100 100 100 100 100 100 100 100 100 86 49 17 5 1 0 0 0 96 4 31 3 5 5 1 0 0 1 0 0 0 0 0 0 0 5 5
97 15 5 2 73 100 80 96 35 100 100 100 100 100 100 36 18 8 5 3 0 0 0 0 0 0 0 3 0 0 0 0 0 0 0 0 0 0 0 0 0 5 0 5 78
97 94 7 100 100 100 51 89 99 92 99 98 90 80 6 40 26 5 0 0 1 5 5 4 0 0 0 0 0 0 0 0 0 0 0 0 0 0 0 0 0 5 5 57 89
44 56 5 52 91 82 100 99 100 100 42 0 5 3 1 2 3 5 4 4 5 2 5 0 0 0 0 0 0 0 0 0 0 0 0 0 0 0 0 0 0 5 15 92 97
79 95 5 10 42 100 100 100 100 100 36 5 5 2 2 5 10 18 1 5 4 0 0 0 0 0 0 0 0 0 0 0 0 0 0 0 0 0 0 0 4 42 26 49 100
100 94 53 100 99 100 100 9 5 5 17 22 8 27 42 41 5 5 5 5 5 1 0 0 0 0 0 0 0 0 0 0 0 0 0 0 4 0 0 3 5 5 5 5 28
78 86 100 100 100 100 40 10 5 6 36 23 59 94 53 24 56 5 5 2 0 0 0 0 0 0 0 0 0 0 0 0 0 0 3 0 0 0 0 5 4 2 5 60 97
12 100 100 100 100 100 5 27 5 6 56 70 92 32 56 55 10 38 4 0 0 0 0 1 2 3 2 0 0 0 0 0 0 0 1 0 0 0 0 1 5 83 97 6 5
100 99 100 100 100 100 17 69 5 2 59 99 67 87 21 33 29 4 4 0 0 0 1 3 0 0 0 0 0 0 0 0 0 0 2 3 0 0 0 1 5 4 2 5 5
100 100 100 100 39 25 5 26 19 99 37 32 76 46 33 9 5 4 0 0 0 0 0 0 0 0 0 0 0 0 0 0 0 0 1 4 1 0 0 0 5 5 5 5 33
100 100 100 100 79 5 5 79 74 27 56 64 55 43 68 25 4 0 0 0 5 4 0 0 0 0 0 1 5 1 0 0 0 0 0 1 0 0 0 0 4 5 5 5 6
100 100 100 100 5 12 46 75 77 92 100 85 49 57 24 5 5 0 0 0 0 5 0 0 2 5 4 5 5 5 3 2 0 0 0 0 0 0 0 0 5 5 5 5 5
100 100 100 100 95 100 76 76 97 81 71 61 78 68 12 5 0 0 0 3 5 5 5 5 8 5 5 4 1 0 0 0 0 0 0 0 0 0 0 0 0 3 5 5 62
100 100 100 16 100 99 87 80 85 71 57 60 68 15 5 5 5 5 0 3 5 5 5 36 56 5 0 0 0 4 0 0 2 5 0 5 0 2 0 4 0 4 5 5 25
100 100 23 85 100 76 57 80 99 95 78 66 6 5 5 33 33 5 5 5 5 5 5 5 5 10 5 6 18 8 4 5 5 5 5 5 5 5 5 5 3 5 5 20 98

GFSSW_prec_cloud_036.txt.gz
Cloud_Cover
3 14 100 100 15 99 97 14 71 44 5 5 16 15 20 3 5 17 0 4 10 5 7 77 97 67 49 36 39 100 85 100 99 100 100 100 100 100 100 100 100 100 100 100 100
40 93 100 28 0 66 100 96 29 100 40 1 2 7 5 4 67 0 0 0 5 5 60 87 79 55 100 32 91 100 83 100 88 100 100 100 100 100 100 100 100 100 100 100 100
39 7 26 11 0 23 100 100 100 43 6 2 5 6 0 15 9 2 0 0 1 67 80 64 70 58 99 78 100 100 100 100 100 100 100 100 100 100 100 100 100 100 100 100 100
3 1 14 24 57 0 85 100 69 6 5 5 20 0 2 36 0 0 0 0 4 23 69 46 63 70 100 91 100 97 100 100 100 100 100 100 100 100 100 100 100 100 100 100 100
0 0 12 30 100 34 10 18 5 4 1 56 23 5 10 25 17 3 0 2 5 0 7 100 98 98 100 100 97 100 100 100 100 100 100 100 100 100 100 100 100 100 100 100 100
0 0 16 30 28 6 5 56 4 5 17 100 100 5 53 80 50 1 0 5 39 96 100 100 100 100 100 100 100 100 100 100 100 100 100 100 100 100 100 100 92 100 99 76 100
0 3 5 2 5 0 61 50 5 5 64 100 100 26 98 100 75 0 16 84 100 94 100 100 100 100 100 100 100 100 100 100 100 100 100 100 100 100 100 100 100 100 100 100 100
0 15 0 0 0 3 15 37 67 60 98 100 100 100 100 95 16 76 100 100 51 100 100 100 100 100 100 100 100 100 100 100 100 100 100 100 100 100 99 56 46 86 100 100 100
0 0 0 0 0 4 5 5 56 85 100 100 74 88 99 39 90 100 80 81 100 98 100 100 97 100 100 100 100 100 100 100 100 100 100 100 100 100 93 94 52 46 100 100 58
0 0 0 0 0 2 3 5 98 99 100 21 3 99 13 15 33 100 100 100 89 77 100 100 100 100 100 98 98 89 100 100 100 100 100 100 100 100 100 100 73 100 99 100 99
0 0 0 0 4 0 2 91 25 100 5 100 96 6 93 100 100 100 72 62 46 88 100 100 100 100 100 100 94 63 64 87 100 100 100 100 100 100 100 100 100 100 98 98 100
0 0 4 0 4 0 1 14 5 1 12 82 89 100 99 81 95 100 18 63 100 100 100 98 81 73 5 5 5 5 5 18 69 69 100 96 89 89 79 100 100 100 99 82 5
0 0 5 2 1 0 3 2 34 99 100 100 100 95 100 43 84 37 42 60 98 100 85 10 51 5 2 3 5 5 42 78 43 71 91 44 22 16 80 83 56 12 5 3 0
0 0 5 5 3 0 60 98 100 100 98 100 100 99 84 100 100 100 100 68 83 96 17 4 3 1 5 4 2 1 0 1 3 5 5 5 6 8 2 1 0 0 0 0 1
0 2 6 76 4 34 100 100 57 92 99 97 100 100 100 99 92 5 5 5 5 5 5 3 0 0 2 0 0 0 0 0 0 0 4 4 2 0 0 0 0 0 0 4 2
0 27 41 71 2 57 90 67 46 99 100 100 100 100 95 8 15 12 54 3 3 0 0 1 0 0 0 3 0 0 0 0 0 0 0 0 0 0 0 0 0 0 0 5 5
0 100 5 50 3 51 5 72 100 100 100 99 99 34 28 5 4 0 1 4 5 1 0 5 4 0 0 0 0 0 0 0 0 0 0 0 0 0 0 0 0 0 4 5 5
10 96 5 4 5 83 79 100 100 100 6 6 5 5 1 0 1 5 5 5 5 4 0 0 0 0 0 0 0 0 0 0 0 3 3 0 0 0 0 0 0 0 4 1 4
86 86 27 5 3 28 99 100 100 94 5 5 5 6 5 5 5 5 6 3 4 0 0 0 0 0 0 0 0 0 0 0 0 0 2 0 0 0 0 0 0 0 1 10 96
100 31 86 87 6 98 100 99 89 23 5 5 5 9 33 5 5 0 0 2 4 0 0 0 0 0 0 0 0 0 0 0 0 0 0 0 0 0 0 0 0 1 5 5 5
93 6 97 100 92 100 100 13 3 0 5 5 31 11 5 5 4 5 5 3 0 0 0 0 0 0 0 0 0 0 0 0 0 1 2 4 0 0 0 0 0 1 5 5 0
55 83 44 78 100 100 81 32 5 5 5 84 10 5 5 5 5 5 5 0 0 0 0 0 0 0 0 0 0 0 0 0 0 0 4 4 1 0 0 0 0 0 0 1 5
9 94 79 97 100 100 81 5 5 12 63 23 6 39 10 50 23 5 5 1 0 0 0 0 0 0 0 0 0 0 0 0 0 0 0 1 0 0 0 0 0 0 3 5 5
96 94 66 100 100 99 97 5 5 85 80 69 61 65 74 45 13 5 0 0 0 0 0 0 0 0 0 3 5 5 5 0 0 0 0 1 0 0 0 2 1 1 0 4 5
98 55 98 100 100 18 98 13 13 100 74 80 17 59 26 5 7 5 4 0 0 0 0 0 4 5 5 8 49 8 0 0 0 2 4 4 5 5 5 5 5 0 0 0 5
100 100 100 100 100 25 68 5 96 100 97 65 42 56 38 64 38 5 5 4 5 21 53 41 26 5 5 5 4 4 0 5 5 5 5 5 5 5 5 5 5 5 5 5 5
100 100 100 100 100 6 7 96 100 64 99 57 45 5 39 81 80 73 12 5 10 5 5 71 92 83 56 5 5 63 5 5 5 5 5 5 5 5 6 48 94 100 76 70 5

GFSSW_prec_cloud_039.txt.gz
Cloud_Cover
0 14 100 100 99 2 0 70 100 3 13 20 74 25 20 6 18 12 0 0 0 0 0 55 100 100 100 100 61 96 85 84 98 100 100 100 84 100 100 100 100 100 100 100 100
58 100 100 94 4 0 0 0 41 82 21 11 97 24 9 10 38 3 0 3 5 0 1 42 90 100 100 100 100 93 94 86 100 100 100 100 100 100 100 100 100 100 100 100 100
100 17 14 8 5 95 46 0 83 14 11 70 42 18 7 21 4 5 2 2 0 0 2 11 97 100 58 89 100 96 93 100 100 100 100 100 100 78 100 96 93 100 100 100 100
53 3 6 14 86 100 100 1 0 14 5 7 16 22 5 14 0 0 0 3 0 0 11 38 100 100 45 100 100 99 100 100 100 100 100 100 100 100 100 100 100 100 100 100 100
0 0 0 11 100 100 44 0 0 0 11 5 21 8 11 0 0 0 0 4 0 4 19 100 100 99 99 100 100 100 100 100 100 100 100 100 100 100 100 100 100 100 100 100 100
0 0 0 8 39 6 4 0 0 18 93 66 23 66 18 4 13 83 58 5 4 84 48 100 100 100 100 100 100 100 100 100 100 100 100 100 100 100 100 100 100 100 100 100 100
4 0 0 25 25 2 1 0 2 75 5 6 5 67 99 73 7 88 5 0 100 98 99 91 100 100 100 100 100 100 100 100 100 100 100 100 100 100 100 100 100 100 100 100 100
4 0 0 14 0 0 0 0 2 7 49 95 96 100 91 5 36 31 99 100 100 73 100 100 100 100 100 100 97 100 100 100 100 100 100 100 100 100 100 100 100 83 99 100 100
0 0 0 0 0 0 0 1 1 65 100 100 100 100 100 22 3 31 100 100 100 100 100 90 100 99 100 100 100 100 100 100 100 100 100 100 100 100 100 100 100 100 100 100 72
0 0 0 0 0 0 0 0 0 65 100 100 100 98 52 32 65 100 100 100 100 100 100 100 100 100 100 100 100 100 100 100 100 100 100 100 100 100 100 100 100 100 100 100 36
0 0 0 0 0 0 0 2 0 96 100 100 100 52 5 36 61 100 11 100 100 100 100 100 100 100 100 100 100 100 100 95 48 36 62 98 97 100 100 99 100 93 58 95 26
0 4 0 0 0 0 0 2 0 4 90 74 28 66 40 53 100 100 100 100 100 100 86 94 100 100 100 100 100 100 88 44 58 75 42 19 15 17 57 23 5 5 21 48 73
0 2 0 0 0 3 1 0 0 0 2 91 88 79 100 86 87 74 53 97 97 100 100 100 100 100 100 100 92 72 99 93 84 100 100 89 78 95 66 15 5 38 6 5 5
4 2 4 0 0 0 3 0 0 0 41 48 97 98 44 5 74 42 19 95 98 100 100 32 28 71 70 62 70 26 16 13 37 38 70 75 46 6 5 5 13 53 17 7 5
5 2 0 0 0 2 22 0 5 25 5 19 33 100 100 100 100 100 100 94 90 83 73 3 2 1 0 4 5 31 5 16 10 5 10 5 4 0 0 0 0 0 0 0 0
5 0 0 2 0 4 4 0 5 15 13 67 79 100 98 100 100 100 100 64 8 42 4 5 5 4 0 0 1 0 0 0 0 2 3 4 0 0 0 0 0 0 0 0 1
77 0 2 0 0 5 4 0 5 41 38 84 100 100 100 100 67 69 77 68 31 5 3 0 0 0 0 0 0 0 0 5 4 5 2 0 0 0 0 0 0 0 0 0 0
84 3 2 0 4 5 0 7 69 62 99 92 100 100 44 96 62 32 8 1 0 0 0 0 0 0 0 0 0 0 0 0 0 0 0 0 0 0 0 0 0 0 0 0 0
39 58 0 0 10 4 0 83 99 100 100 100 100 18 38 30 4 0 0 1 5 3 1 0 0 0 0 0 0 0 0 0 0 0 0 0 0 0 0 0 0 0 0 0 1
31 6 0 0 22 2 0 89 96 100 96 78 7 5 4 1 3 5 5 3 1 0 0 1 0 0 0 0 0 0 0 0 0 0 0 0 0 0 0 0 0 0 0 0 5
0 0 0 3 8 0 28 90 100 100 26 5 5 5 5 5 5 5 3 0 0 0 0 0 0 0 0 0 0 0 0 0 0 0 0 0 0 0 0 0 0 0 0 1 5
0 0 18 59 4 30 99 99 100 98 59 3 4 5 18 5 5 5 3 0 0 0 0 0 0 0 0 0 0 0 0 0 0 0 1 0 0 0 0 0 0 5 5 0 0
0 14 9 43 4 96 100 100 99 63 14 5 6 5 5 5 5 4 5 3 0 0 0 0 0 0 0 0 0 0 0 0 0 0 0 2 0 0 5 5 32 5 5 5 5
0 2 41 5 20 100 100 100 100 54 13 44 18 5 5 5 5 5 5 5 0 0 0 0 0 0 0 0 0 0 0 0 0 0 0 2 4 30 16 5 5 5 5 5 5
0 11 94 7 88 100 100 100 64 59 93 76 13 5 5 5 5 5 5 3 0 0 1 0 0 0 0 3 5 5 5 5 0 0 5 5 5 5 5 5 5 5 5 5 5
99 96 46 100 100 100 100 100 5 70 90 21 5 5 5 5 5 5 5 5 5 0 5 5 5 3 5 12 70 89 5 5 5 5 5 5 5 5 5 5 5 5 5 5 5
100 97 100 100 100 100 100 100 54 58 100 5 5 5 5 7 5 5 8 5 5 5 6 5 5 6 40 5 100 100 5 5 5 5 5 5 5 5 41 19 52 13 5 5 5

GFSSW_prec_cloud_042.txt.gz
Cloud_Cover
20 77 73 96 94 14 0 0 0 0 82 12 19 13 50 66 22 0 4 4 1 0 0 3 3 4 32 39 91 15 86 100 100 63 55 49 58 100 100 97 100 100 100 100 100
4 70 19 44 18 0 78 69 0 0 42 10 24 14 66 10 29 20 4 1 5 0 0 1 0 8 93 85 100 100 93 100 100 96 100 99 100 100 100 99 100 100 100 100 100
2 9 4 8 0 89 100 97 12 0 0 0 20 0 0 10 13 37 7 5 5 18 38 2 0 49 99 100 100 100 100 96 100 100 100 100 100 100 87 98 100 100 100 100 100
0 0 0 0 42 81 100 94 0 12 13 17 27 12 2 2 2 1 0 4 5 2 5 0 4 97 100 100 93 100 99 100 100 100 100 100 100 100 100 100 100 100 100 89 100
0 0 2 3 5 39 86 20 0 0 0 11 2 5 12 3 0 0 0 0 2 5 5 3 3 100 100 97 100 100 96 100 100 100 100 100 90 99 100 100 100 100 61 99 100
0 0 5 0 0 11 0 0 0 0 0 0 0 3 5 34 3 2 1 5 5 58 50 5 7 97 100 100 100 100 100 100 100 100 100 100 100 100 100 100 100 100 100 100 100
0 87 45 14 5 5 0 0 0 0 0 0 2 16 99 98 59 5 0 6 5 100 62 8 85 100 100 100 100 100 100 100 100 100 100 100 100 100 100 100 100 100 100 100 100
4 23 83 11 96 70 0 0 0 0 0 13 100 100 100 100 72 48 5 13 22 83 100 100 100 100 100 100 100 100 100 100 100 100 100 100 100 100 100 100 100 100 100 100 100
5 5 32 100 53 1 0 0 0 0 0 29 100 100 100 100 65 2 42 75 81 40 100 100 100 100 100 100 100 100 100 100 100 100 98 100 100 100 100 100 100 100 100 99 23
5 10 24 100 4 0 0 0 0 4 0 0 25 83 100 100 92 67 92 100 100 18 96 100 100 100 100 100 100 100 100 100 100 100 100 100 100 100 100 100 100 100 100 100 100
18 95 100 100 0 2 5 0 0 0 0 4 18 56 100 100 5 100 100 91 100 100 100 100 100 100 100 100 100 100 100 100 100 100 100 100 100 100 100 100 100 100 100 100 100
11 100 97 100 11 5 5 0 0 0 0 26 94 100 100 97 28 100 100 98 100 100 100 100 100 100 100 100 100 100 100 100 100 100 100 100 100 100 100 100 100 96 89 52 71
100 100 100 100 97 6 5 0 0 0 0 2 2 5 60 5 22 100 100 96 94 100 100 100 100 100 100 100 100 100 100 100 100 100 100 77 53 23 25 10 70 90 96 100 100
100 100 100 100 100 4 2 0 0 0 0 0 3 11 29 45 11 99 99 78 98 97 100 93 100 100 100 100 100 100 100 100 89 77 52 30 55 5 5 5 26 63 88 94 74
100 100 100 100 100 54 0 0 0 0 0 0 3 15 5 5 7 26 10 96 100 46 100 100 100 100 98 60 60 76 75 72 66 52 5 5 5 5 31 7 26 8 5 5 4
100 100 98 99 100 71 0 0 0 0 3 0 22 18 5 21 60 80 97 95 100 100 100 89 83 62 52 51 26 13 12 68 46 18 4 4 0 4 3 0 0 0 0 0 0
100 100 98 21 100 5 0 0 2 0 5 90 4 6 84 98 100 77 87 100 100 92 36 7 3 1 4 5 42 24 5 1 0 0 2 0 5 2 0 0 0 0 0 0 0
100 100 100 45 5 1 0 0 2 0 5 45 53 13 5 6 28 31 81 100 100 92 5 2 1 3 4 2 0 3 4 5 5 3 3 0 0 0 0 0 0 0 0 0 0
100 100 86 9 10 0 0 2 5 0 20 93 58 22 88 100 33 8 5 5 8 5 0 0 0 0 1 5 5 5 4 4 1 0 0 0 0 0 0 0 0 0 0 0 4
97 100 39 97 95 19 3 2 1 27 100 86 94 100 95 57 6 5 4 0 0 0 0 2 4 2 3 3 0 0 0 0 0 0 0 0 0 0 0 0 0 0 0 0 0
93 100 100 100 100 55 12 0 0 97 100 100 100 43 9 16 6 0 0 4 4 5 1 0 3 0 0 0 0 0 0 0 0 0 0 0 0 0 0 0 0 0 1 1 4
32 100 100 100 100 6 5 0 1 100 100 100 22 56 72 5 0 5 5 5 0 4 3 5 0 0 0 0 0 0 0 0 0 0 0 0 0 0 0 0 0 0 5 5 5
1 96 100 51 31 5 3 0 21 100 100 53 79 12 5 5 44 45 5 3 0 0 2 0 0 0 0 0 0 1 0 0 0 2 5 26 1 0 0 1 5 5 1 4 3
15 12 94 7 36 39 6 1 99 100 100 54 5 5 5 5 81 11 5 5 4 1 0 0 0 0 4 5 5 5 1 1 5 5 5 0 1 0 14 5 5 5 3 5 5
6 0 0 0 57 32 15 5 100 100 100 12 6 13 5 19 43 8 5 5 5 5 0 0 5 5 5 5 5 5 5 5 5 5 3 0 4 0 72 5 5 5 5 5 5
3 0 0 82 100 100 10 100 100 100 80 54 52 22 12 84 40 51 6 5 5 0 5 5 5 5 5 5 5 8 27 5 5 4 5 4 5 0 5 5 5 5 6 47 30
0 1 4 100 100 95 46 100 100 100 32 50 78 6 81 55 41 15 26 5 2 1 5 5 5 5 5 6 67 99 1 5 1 0 5 5 5 5 8 5 5 5 68 96 100

GFSSW_prec_cloud_045.txt.gz
Cloud_Cover
5 5 52 0 0 0 0 52 61 0 0 0 18 20 8 0 0 6 4 50 4 0 2 5 0 0 5 79 30 5 14 86 66 56 89 100 90 16 61 40 97 96 72 100 100
4 4 11 0 0 0 62 100 89 0 0 2 11 18 0 4 0 5 5 18 99 6 5 4 2 0 1 92 98 12 100 100 56 100 100 100 92 96 43 100 100 89 91 100 100
0 0 0 0 0 0 2 84 88 8 40 20 14 2 0 4 5 12 5 5 74 20 23 5 5 0 1 98 85 62 100 100 86 100 100 100 48 79 88 100 100 78 100 98 56
0 0 0 0 0 0 0 2 23 97 84 19 22 0 0 0 0 33 15 5 5 22 5 5 7 0 5 84 100 100 100 90 100 98 100 87 100 99 100 96 33 100 100 97 40
0 0 0 0 0 0 0 5 7 100 9 0 0 0 6 0 0 2 0 0 1 5 5 7 33 5 46 100 100 100 100 100 97 100 100 92 100 96 100 99 91 100 100 59 36
2 0 5 0 0 0 0 6 74 18 1 0 0 25 3 61 97 67 5 1 4 5 78 6 42 14 95 100 100 100 100 100 100 100 100 98 100 100 99 100 100 100 100 89 100
5 5 5 5 0 0 0 5 73 75 1 0 0 0 9 100 100 100 52 3 94 15 80 100 43 51 100 100 100 100 100 100 100 100 100 97 100 100 100 100 100 100 100 93 99
5 1 5 5 0 0 0 2 100 97 5 0 2 0 5 51 100 100 25 5 12 5 100 69 43 96 100 100 100 100 100 100 100 100 99 100 100 100 100 100 100 100 100 100 100
5 10 2 4 0 2 2 5 76 68 20 1 3 0 5 7 82 70 11 32 28 44 21 54 100 100 100 100 100 100 100 100 100 99 100 100 100 100 100 100 98 78 78 76 98
5 7 5 5 0 2 5 6 87 73 19 0 0 0 5 3 69 48 4 100 100 83 96 99 100 100 100 100 100 100 100 100 100 100 99 100 100 100 100 100 86 100 100 100 100
5 5 5 15 4 5 45 5 42 100 5 0 0 0 5 3 98 35 2 100 98 58 98 100 100 100 100 100 100 100 100 100 100 100 100 100 100 100 100 100 100 100 100 100 100
56 5 5 5 7 2 17 16 100 87 85 0 0 1 9 96 86 1 51 92 100 100 100 100 100 100 100 100 100 100 100 100 100 100 100 100 100 100 100 100 100 100 100 100 100
6 49 74 64 97 17 5 6 85 100 25 0 0 1 47 81 97 5 5 100 100 100 100 100 100 100 100 100 100 100 100 100 100 100 100 100 100 100 100 100 100 100 100 100 86
94 100 100 100 60 78 42 79 100 100 40 0 0 0 0 93 4 4 5 100 93 100 100 100 100 100 100 100 100 100 100 100 100 100 100 100 100 100 49 100 97 100 100 98 98
100 100 100 100 100 80 100 100 100 99 7 0 0 0 0 4 4 3 5 100 100 100 100 100 100 100 100 100 100 100 100 100 100 100 100 87 74 100 100 100 100 61 16 28 42
100 100 100 100 100 100 100 100 100 90 5 0 0 0 5 1 0 0 4 24 69 71 87 100 100 100 100 100 100 100 100 94 92 82 100 97 100 100 98 81 28 14 5 5 6
100 100 100 100 100 100 77 100 44 100 5 0 1 5 7 0 0 1 5 8 36 98 100 100 100 99 100 100 74 89 51 92 94 99 16 37 4 5 31 4 5 4 1 0 0
100 100 100 100 100 100 100 100 100 9 2 0 7 23 90 100 100 100 24 100 100 100 100 100 99 95 91 38 100 14 74 100 52 60 48 13 3 50 5 5 0 0 0 4 2
100 100 100 100 100 100 100 100 100 5 2 0 5 97 46 40 1 5 5 7 5 29 100 100 100 8 5 5 5 31 2 1 0 3 7 32 22 0 0 0 0 0 0 5 0
100 100 100 100 100 39 93 100 97 21 3 0 38 37 83 47 100 84 13 52 50 66 77 62 94 3 0 1 0 0 4 5 5 4 2 24 0 29 0 0 0 2 0 5 0
100 100 100 100 97 74 58 100 72 44 0 0 100 87 100 100 52 6 5 2 1 4 1 10 7 47 4 5 5 8 5 5 2 1 0 0 2 0 0 0 0 0 4 0 0
100 100 100 46 62 85 100 100 60 71 0 5 66 93 100 54 39 55 5 5 0 0 3 5 5 5 5 5 4 1 0 0 0 0 0 0 0 0 0 0 0 3 0 4 5
100 100 100 99 100 100 100 100 22 5 2 50 100 100 100 95 88 72 5 1 1 5 5 1 3 5 5 1 0 0 0 0 0 0 0 19 0 5 0 5 5 0 1 4 2
100 100 100 99 100 100 85 20 67 5 6 5 100 100 100 100 81 78 5 58 7 31 5 4 2 1 5 32 29 4 0 0 0 0 0 0 0 0 0 0 0 0 1 0 5
100 100 94 100 100 100 52 22 5 5 0 3 100 100 100 100 87 59 28 9 15 13 5 5 5 1 0 1 2 1 0 2 5 0 6 0 5 0 4 15 6 5 5 5 5
100 100 97 100 100 94 94 36 5 5 4 24 100 100 91 100 69 88 66 5 6 5 12 5 0 0 0 0 0 4 5 2 0 3 5 5 55 0 5 6 5 5 3 5 5
98 94 96 73 43 98 15 5 5 67 7 83 100 69 54 61 99 100 47 32 6 5 5 5 2 2 4 5 5 12 5 4 5 5 5 10 5 5 5 5 4 5 5 5 5

GFSSW_prec_cloud_048.txt.gz
Cloud_Cover
95 5 5 5 2 0 0 0 25 48 17 44 18 22 14 0 0 0 0 0 3 98 5 1 53 0 0 1 95 54 0 5 67 99 81 69 100 100 100 100 100 100 84 100 1
67 6 5 5 5 0 0 0 0 3 22 25 20 13 66 17 0 0 0 0 3 17 100 6 3 1 0 0 90 100 16 79 83 99 61 100 92 100 100 100 100 100 100 21 48
17 8 5 43 4 0 0 0 0 0 3 20 0 5 6 0 0 0 0 0 0 5 67 63 3 5 5 0 97 100 51 100 100 99 100 100 100 100 100 89 94 99 100 92 52
5 11 15 8 2 0 0 0 0 5 17 15 3 5 76 0 0 0 0 1 0 0 5 96 6 41 1 4 98 98 68 100 100 100 100 100 100 100 100 87 77 100 71 94 5
9 64 68 5 3 0 0 0 0 0 2 0 0 5 6 1 0 4 11 5 4 0 3 5 18 79 3 91 75 100 94 100 100 100 100 100 100 100 100 26 100 100 100 74 16
20 7 5 5 5 4 0 2 0 0 0 0 0 34 2 3 0 34 77 100 93 5 5 39 34 31 100 49 100 100 100 100 96 97 100 100 100 100 100 100 94 16 5 1 100
5 5 5 5 5 5 1 0 0 0 0 0 0 3 5 0 0 62 100 100 38 61 5 65 23 88 81 74 100 100 100 100 93 100 100 100 100 100 100 100 100 100 100 64 46
5 5 5 5 5 5 5 0 0 0 0 0 5 1 0 0 0 78 100 80 0 4 2 56 24 5 65 100 100 100 100 100 100 100 100 100 100 21 100 99 100 100 100 100 99
13 0 4 5 5 5 5 0 0 0 0 5 3 0 1 0 3 5 1 1 3 0 6 20 14 67 100 100 100 100 100 100 100 100 99 100 23 59 80 99 42 100 100 100 100
5 5 35 6 5 4 0 5 0 0 4 5 0 3 1 0 5 0 1 0 90 6 38 40 100 100 100 100 100 100 100 100 100 100 100 100 96 88 100 100 100 100 100 99 88
5 51 5 5 5 1 2 0 5 2 5 5 4 3 0 0 0 85 71 9 100 42 5 99 98 100 100 100 100 100 100 80 74 100 100 95 100 100 100 100 100 100 100 100 100
29 79 100 54 5 5 15 2 4 5 7 5 5 5 0 0 0 5 2 3 64 95 74 100 100 100 100 100 100 100 100 100 100 86 100 100 100 100 100 100 100 100 100 100 100
100 100 100 100 5 24 5 5 2 8 5 5 12 5 0 0 0 50 0 3 100 100 79 98 100 95 100 100 100 100 92 100 100 100 100 100 100 100 100 100 100 100 100 100 100
100 100 100 20 44 90 5 5 12 90 70 15 82 2 0 0 6 0 4 6 92 100 86 100 100 100 100 100 100 100 100 97 100 90 100 100 100 100 100 100 90 100 100 100 100
83 100 100 99 100 21 95 9 49 43 38 31 13 0 0 0 12 0 2 3 100 100 98 99 100 93 98 100 91 100 100 100 100 100 100 100 100 83 99 100 100 99 57 87 66
100 100 100 100 100 5 41 93 82 80 98 78 39 2 2 0 5 4 0 0 10 90 81 92 100 100 95 99 95 100 92 100 100 100 100 100 100 94 90 100 100 99 92 17 19
100 100 100 100 98 100 100 76 50 88 82 100 20 0 0 4 5 0 5 5 4 5 100 84 91 95 100 100 100 100 100 100 100 100 100 100 100 100 90 98 82 61 35 5 33
100 100 100 100 100 100 100 70 86 100 100 100 69 2 5 10 12 56 15 59 87 78 46 80 98 87 100 100 100 100 100 100 100 80 85 100 97 86 41 5 5 5 26 14 2
100 100 100 100 100 100 80 95 100 100 100 100 50 5 5 7 7 5 14 94 100 100 100 91 100 90 88 100 100 100 90 94 64 22 77 31 5 4 2 22 46 7 4 0 0
100 100 100 100 100 100 88 96 100 100 100 100 77 4 5 9 5 5 4 50 98 72 27 19 90 100 97 76 65 86 26 5 18 4 4 20 47 100 16 4 0 0 0 0 0
100 100 100 100 98 95 43 100 100 100 100 100 86 8 5 74 5 63 100 92 64 77 100 100 100 96 67 4 5 14 5 0 0 46 44 5 89 9 0 0 0 0 0 0 0
100 100 100 100 95 96 100 100 100 100 100 100 43 80 5 81 100 93 100 52 5 24 93 82 53 11 4 5 1 0 26 5 7 5 4 0 0 2 0 0 0 0 0 0 0
100 100 100 100 100 100 100 100 100 100 100 100 2 3 5 61 100 100 33 64 46 5 26 67 2 0 3 23 5 5 5 5 1 29 0 15 0 0 0 0 0 0 0 0 2
100 100 100 100 100 100 100 100 100 100 100 99 5 1 5 49 96 85 47 49 55 45 10 0 5 5 18 4 87 77 6 1 5 4 0 0 0 5 0 1 2 3 0 0 4
100 100 100 100 100 100 100 100 100 100 100 99 5 4 5 5 100 100 21 40 63 5 5 15 69 18 5 5 79 0 50 64 5 5 3 0 0 0 1 24 20 5 1 5 0
100 100 100 100 100 100 100 100 100 77 97 15 58 5 5 32 100 100 6 6 79 72 73 23 5 5 5 3 0 0 4 2 0 0 0 0 0 0 1 5 5 35 4 5 5
71 98 100 100 100 100 100 100 100 100 100 32 4 39 4 40 94 98 32 89 79 9 70 58 5 5 5 2 5 5 0 0 0 0 0 1 5 5 4 5 6 5 5 6 5

GFSSW_prec_cloud_051.txt.gz
Cloud_Cover
100 100 100 73 55 71 9 4 5 0 0 8 4 0 0 0 0 0 0 0 0 0 0 52 0 23 81 20 5 51 5 5 10 54 100 57 94 99 100 100 100 100 100 100 100
100 100 100 100 39 74 5 5 5 0 0 0 0 0 0 0 17 0 0 0 0 0 0 13 85 1 59 56 10 100 5 0 9 48 84 47 96 41 100 100 100 86 75 100 100
100 100 42 11 11 4 4 5 0 0 0 0 0 0 0 0 0 0 0 0 0 0 0 5 80 61 5 8 11 98 13 6 15 95 4 0 99 100 100 100 100 100 92 100 100
100 100 100 95 41 5 5 5 0 0 0 0 0 0 0 12 0 0 0 3 1 0 0 0 5 82 58 5 44 87 95 100 54 30 47 58 100 100 100 48 87 100 100 100 100
100 100 100 100 15 5 5 0 0 2 4 0 0 0 6 0 0 0 0 5 5 4 0 1 2 5 5 27 95 65 96 100 100 95 100 100 100 100 100 94 16 44 100 100 100
100 100 100 100 5 3 5 4 2 0 1 0 0 0 15 0 0 0 0 5 5 52 5 3 2 3 8 36 97 85 59 85 94 100 100 100 100 100 100 100 88 42 99 100 100
100 100 100 100 5 5 5 0 2 0 0 0 0 1 0 0 0 0 0 7 85 32 29 5 25 37 7 23 5 25 100 100 100 84 100 100 100 92 71 100 82 100 100 100 90
100 100 100 100 17 5 5 5 4 2 3 0 0 0 0 0 0 0 0 0 0 0 17 4 15 40 54 100 69 84 100 100 100 80 100 100 100 100 100 100 100 94 69 64 99
100 100 100 100 26 5 31 5 5 2 0 0 0 0 0 0 0 0 0 0 1 2 5 7 2 29 100 100 100 100 100 100 100 99 100 100 100 100 100 100 92 53 84 48 94
100 100 100 74 95 64 91 3 5 5 5 4 0 0 0 0 0 0 0 4 100 3 42 18 73 98 100 100 100 100 100 100 100 100 100 100 100 95 100 100 100 100 99 100 100
100 100 100 100 100 100 100 5 5 5 0 5 5 0 0 0 0 0 0 0 23 0 35 100 100 100 100 100 100 100 100 100 100 99 97 99 100 100 100 100 100 100 100 100 100
100 100 100 100 100 100 100 54 38 5 5 11 5 2 0 0 0 0 0 0 1 54 72 52 99 100 96 78 98 100 100 100 100 100 100 100 100 99 100 100 100 100 100 100 100
100 100 100 100 100 100 89 5 43 3 12 32 5 5 0 0 0 0 0 0 2 87 20 99 90 100 100 100 72 63 74 93 94 100 100 100 100 100 100 100 100 100 100 100 95
100 100 100 100 100 100 7 96 5 5 87 26 56 10 4 0 0 0 0 0 3 5 22 100 100 73 25 79 96 96 100 100 100 98 100 100 96 100 45 97 96 91 100 100 96
94 100 100 100 100 100 99 11 7 98 36 51 59 19 5 0 0 0 3 6 0 50 37 47 46 96 20 75 100 77 72 93 100 100 100 100 100 99 100 98 100 96 78 100 100
100 100 100 100 100 99 52 29 94 57 86 5 88 72 5 5 0 0 53 2 0 98 5 84 92 40 97 65 92 72 50 55 100 100 100 94 30 100 86 100 100 100 47 56 77
100 100 100 100 100 100 100 100 42 98 46 5 43 36 6 8 0 0 17 0 2 5 3 84 100 100 100 99 89 100 71 70 100 100 98 76 100 88 100 100 100 100 19 61 49
100 100 100 100 100 100 100 100 81 99 97 5 56 44 54 98 5 0 13 3 0 20 30 95 96 100 48 48 100 100 99 96 100 100 76 100 98 100 100 97 100 100 50 4 0
100 100 100 100 100 100 100 97 98 100 87 7 71 86 98 100 18 9 32 0 2 13 46 99 100 100 84 73 100 100 96 100 100 100 100 94 43 35 91 61 49 5 5 1 5
100 100 100 100 100 72 97 67 65 99 100 90 67 98 100 100 23 92 54 0 5 30 88 100 100 100 99 94 99 100 78 98 64 65 100 30 6 35 8 89 4 0 2 3 0
100 100 100 100 100 89 71 100 100 100 100 100 100 100 100 100 100 37 25 0 4 49 69 86 68 100 100 97 100 99 61 95 25 6 9 3 14 5 97 53 3 1 0 0 0
100 100 100 100 46 62 98 100 100 100 100 100 100 100 100 70 49 84 42 2 99 100 100 25 58 99 100 28 88 5 3 8 5 5 5 0 1 14 66 11 0 0 0 0 0
100 100 99 100 85 12 100 100 100 100 100 100 100 100 100 100 100 31 4 14 21 88 14 35 100 100 100 100 28 0 0 0 4 5 5 5 1 5 5 0 0 0 0 0 0
100 100 93 100 68 68 100 100 100 100 100 100 100 100 100 100 77 81 26 94 42 96 3 7 100 88 100 11 0 92 5 5 5 5 2 3 0 0 0 1 0 0 0 0 0
100 57 75 100 85 100 100 100 100 100 100 100 100 100 100 100 97 5 99 8 23 56 4 12 50 8 5 5 36 31 47 39 23 85 73 9 0 0 1 5 9 4 0 0 0
100 99 94 94 98 75 100 100 100 100 100 100 100 100 100 100 52 7 99 2 6 100 0 5 3 4 35 5 18 13 3 0 5 2 0 0 2 3 12 5 5 4 0 20 70
100 70 98 31 100 30 100 100 100 100 100 100 100 100 100 100 25 64 47 4 18 100 10 13 6 5 33 6 45 5 0 2 0 0 0 0 3 0 1 0 0 0 2 1 3

GFSSW_prec_cloud_054.txt.gz
Cloud_Cover
100 100 87 100 100 100 100 100 100 61 5 14 12 18 13 0 0 0 0 0 0 0 0 0 0 46 28 5 48 100 100 100 77 5 5 0 2 2 93 100 100 100 74 74 100
100 100 100 100 100 100 100 100 100 92 6 4 2 2 0 0 22 0 0 0 0 0 0 0 0 37 4 5 76 100 100 66 4 2 2 0 0 0 49 100 100 100 100 100 82
100 100 100 100 100 100 100 100 100 76 5 0 0 0 0 10 0 0 0 0 0 0 0 0 0 5 6 7 97 96 53 7 4 1 0 0 0 0 100 76 74 100 100 100 100
100 100 100 100 100 100 100 100 100 12 5 5 6 0 0 10 0 0 0 0 0 0 0 0 0 10 68 58 11 9 81 4 5 5 0 1 0 87 100 20 100 100 100 100 100
100 100 100 100 100 100 100 100 100 5 4 5 5 0 0 0 0 0 0 0 0 2 5 3 2 64 60 5 5 22 77 9 59 97 3 5 23 100 100 100 72 100 100 98 100
100 100 100 100 100 100 100 100 100 16 5 4 0 0 0 0 0 0 0 0 0 3 5 30 4 26 95 5 9 7 96 97 100 5 6 90 100 100 100 83 99 100 100 100 100
100 100 100 100 100 100 100 100 100 90 5 3 0 5 0 0 0 0 0 0 0 0 0 3 76 100 7 10 20 92 19 56 67 87 100 100 100 100 100 85 100 100 100 100 100
100 100 100 100 100 100 100 100 100 100 16 5 4 5 0 0 0 0 0 0 0 0 1 0 28 9 83 5 15 25 24 32 97 100 100 100 100 100 100 100 100 100 100 100 100
100 100 100 100 100 100 100 100 97 73 16 5 5 2 0 0 0 0 0 0 4 2 4 69 4 76 92 75 76 99 97 100 100 100 100 100 100 100 100 100 100 100 100 100 100
100 100 100 100 100 100 100 100 100 100 18 33 6 0 0 0 0 0 0 0 0 0 4 1 0 27 100 100 100 100 98 100 100 100 100 100 100 100 100 97 100 100 100 100 100
100 100 100 100 100 100 100 94 66 100 23 15 2 4 0 0 0 0 0 0 0 3 81 55 100 100 100 100 98 100 94 100 74 50 100 100 100 100 59 100 100 100 100 100 100
100 100 100 100 100 100 100 88 84 85 6 3 5 5 5 0 0 0 0 0 0 3 5 100 100 99 86 90 94 77 100 69 86 91 100 100 100 100 100 100 100 100 100 100 100
100 100 100 100 100 100 99 66 82 14 3 0 5 5 5 5 0 0 0 0 0 2 5 80 99 55 98 42 100 100 100 100 77 95 96 100 100 100 100 100 100 100 100 100 100
100 100 100 100 100 100 100 6 6 5 0 3 6 5 8 5 0 0 0 0 0 0 5 24 88 73 18 97 100 100 99 100 56 99 87 100 100 99 100 100 100 100 97 100 100
100 100 100 100 100 100 97 6 5 91 6 5 94 32 19 5 0 0 0 0 0 3 34 79 4 90 96 79 96 34 69 100 99 100 100 76 70 40 100 100 100 100 100 69 47
100 100 100 100 100 65 100 99 85 54 25 7 97 100 32 5 4 0 0 0 0 5 5 74 67 34 64 87 54 32 86 37 100 100 100 91 14 63 88 100 99 89 83 67 98
100 100 100 100 100 100 100 100 82 91 75 5 84 95 59 5 5 0 0 0 0 4 29 5 5 43 86 94 95 61 32 69 20 89 89 25 22 98 33 74 56 41 97 72 100
100 100 100 100 100 100 100 60 92 97 98 81 95 60 98 18 3 5 5 0 0 42 3 72 17 89 100 100 58 88 54 11 24 39 7 5 15 98 90 100 100 63 5 55 97
100 100 100 100 100 100 100 94 83 100 100 5 10 100 100 40 2 5 8 2 0 0 0 13 24 39 100 100 65 100 24 46 14 5 5 88 14 28 99 100 81 100 5 5 5
73 100 100 100 100 100 94 18 94 100 89 4 18 100 100 5 5 32 45 5 2 2 0 86 29 96 98 90 18 26 59 84 80 45 23 27 92 34 5 5 16 34 3 0 0
56 100 100 100 100 95 100 44 88 100 34 5 64 60 100 92 28 80 100 44 5 18 4 39 93 49 5 54 22 85 9 99 94 56 5 5 6 5 5 5 6 2 2 5 5
65 100 97 100 100 34 100 98 100 100 64 33 9 6 98 100 100 88 100 52 5 6 100 72 45 50 26 75 63 17 90 7 5 6 4 0 0 0 0 16 5 5 5 1 0
100 100 84 95 93 48 96 100 70 100 12 29 18 98 100 96 100 100 100 86 4 4 2 100 72 72 100 78 62 2 4 48 4 5 5 4 0 5 2 0 1 4 0 0 0
100 92 100 100 14 73 92 88 94 100 26 10 40 92 100 100 100 100 100 28 0 1 10 39 86 100 100 99 72 28 98 32 28 4 5 2 1 0 2 0 0 0 0 0 0
100 91 24 100 100 100 100 100 100 100 15 95 91 100 100 100 100 100 84 27 95 0 9 99 92 100 84 100 100 100 94 0 3 5 5 0 4 0 0 0 0 5 2 0 0
100 30 35 24 50 94 51 100 100 100 100 100 100 100 100 100 100 100 100 100 36 4 2 5 2 5 99 100 98 3 4 0 2 51 7 65 5 4 0 0 5 0 0 0 0
100 78 92 27 32 99 23 100 100 100 100 100 100 100 100 100 100 100 100 100 85 17 56 5 2 70 86 5 1 8 4 5 0 0 2 8 5 5 5 0 0 4 5 5 5

GFSSW_prec_cloud_057.txt.gz
Cloud_Cover
100 100 100 100 100 100 100 100 100 11 99 100 97 100 100 7 11 0 0 0 0 0 0 0 0 0 0 6 60 52 46 89 35 100 97 100 83 5 94 100 100 100 100 42 100
100 100 100 100 100 100 75 99 79 74 100 100 100 100 29 7 52 0 0 0 0 0 0 0 0 0 0 4 24 83 27 63 87 100 83 81 15 5 25 100 100 100 100 100 100
100 100 100 100 100 98 84 96 42 92 100 100 100 100 6 18 0 0 0 0 0 0 0 0 0 0 0 4 4 42 14 86 88 100 64 9 90 5 4 100 100 97 100 100 100
100 100 100 100 100 72 57 75 89 100 100 100 100 100 5 2 0 0 0 0 0 0 0 0 0 5 5 44 20 76 100 29 12 64 100 59 21 0 0 0 96 100 100 100 100
100 100 100 100 100 97 100 98 100 100 100 100 100 69 5 2 0 0 0 0 0 0 0 1 2 2 37 9 8 7 77 100 17 51 65 96 7 0 0 39 51 100 100 100 100
100 100 100 100 100 100 100 100 100 100 100 100 100 99 1 0 0 0 0 0 0 0 0 0 93 4 5 45 22 5 82 100 51 77 100 9 5 4 100 94 100 100 100 100 100
100 100 100 100 100 100 100 100 100 100 100 100 100 99 1 0 0 0 0 0 0 0 0 4 2 56 80 12 20 5 44 100 46 86 87 57 48 99 100 100 100 100 100 100 100
100 100 100 100 92 100 100 100 100 100 100 100 100 9 1 0 0 0 0 0 0 0 0 0 1 30 5 84 38 26 6 77 68 91 70 88 100 100 91 100 100 100 100 100 100
100 100 100 100 100 100 100 100 100 100 100 100 71 22 5 0 0 0 0 0 0 0 0 0 0 2 5 26 40 87 5 69 99 98 100 100 100 100 100 100 100 100 100 100 100
100 100 100 100 100 100 100 100 100 100 100 41 6 14 5 0 0 0 0 0 0 0 0 3 0 0 40 4 17 56 100 99 98 85 100 100 100 100 100 100 100 100 100 100 100
100 100 100 100 100 100 97 85 100 100 87 100 69 5 0 0 0 0 0 0 0 0 1 1 24 58 87 99 95 100 100 72 100 98 71 100 100 100 100 100 100 100 100 100 100
100 100 100 100 100 100 100 100 100 100 72 100 97 5 2 0 0 0 0 0 0 0 3 5 48 55 69 91 95 100 100 100 100 43 52 98 100 100 100 100 100 100 100 100 100
100 100 100 100 100 100 100 100 100 100 100 100 72 5 12 3 0 0 0 0 0 0 2 0 7 5 44 85 98 99 74 88 26 94 98 100 100 100 99 100 100 100 100 100 100
100 100 100 100 100 100 100 100 100 100 100 52 100 5 6 5 0 0 0 0 0 0 2 5 5 5 5 45 70 22 100 96 82 100 100 100 88 100 100 100 100 100 100 100 100
100 100 100 100 100 100 100 100 100 100 100 100 96 5 5 5 0 0 0 0 0 0 2 5 51 5 9 89 100 100 100 97 96 100 86 90 97 100 100 100 100 100 100 99 100
100 100 100 100 100 100 100 100 100 100 100 100 82 33 5 5 5 0 0 0 0 0 0 17 23 70 7 9 34 99 95 99 100 80 43 97 100 100 100 85 84 36 93 23 58
100 100 100 100 100 99 100 100 100 100 100 100 94 32 5 60 49 2 0 0 0 0 0 57 56 39 25 21 42 100 29 13 45 99 10 15 13 5 96 88 100 78 19 15 78
100 100 100 100 100 100 100 100 100 100 100 100 90 7 5 6 17 5 1 1 4 0 0 24 29 6 87 5 65 16 19 77 88 40 35 52 48 5 23 53 80 92 78 73 8
85 100 98 100 100 90 100 100 100 100 100 100 32 84 6 8 5 5 3 3 26 2 0 5 2 5 87 93 88 81 73 86 61 59 29 21 96 6 14 76 20 18 87 91 100
100 77 86 100 100 98 93 100 100 100 100 92 54 100 53 77 5 9 5 5 5 9 0 1 0 5 38 79 40 81 22 46 57 71 82 43 58 59 5 68 34 5 31 22 42
85 96 89 100 100 100 77 51 100 100 100 100 100 100 89 6 12 69 49 12 11 80 5 0 2 1 5 47 100 80 68 15 12 8 6 31 85 20 5 21 17 21 5 5 4
98 87 100 80 100 93 79 100 100 100 100 78 100 59 6 92 11 30 100 97 100 100 9 5 4 3 2 30 48 91 12 95 5 5 5 19 68 5 5 5 5 5 5 3 5
100 61 99 4 90 93 70 100 100 100 90 62 97 39 46 59 62 100 100 100 100 100 42 2 5 5 4 0 3 5 54 100 21 5 5 3 0 0 4 5 69 66 85 5 2
100 100 100 100 21 99 100 92 89 100 100 98 100 91 43 91 100 100 100 100 100 98 54 0 4 5 4 3 90 100 11 5 30 5 5 0 0 0 34 44 6 4 2 0 0
100 57 9 100 83 100 100 100 100 100 5 19 86 96 100 100 100 100 100 100 88 96 56 5 5 4 5 15 23 5 100 87 95 62 4 0 0 0 4 10 5 0 0 1 3
60 99 25 5 11 78 100 100 100 100 52 98 100 100 100 100 100 100 100 100 8 98 100 92 5 4 5 19 80 88 100 100 100 30 5 0 0 0 0 5 0 0 5 1 0
9 100 62 5 10 100 100 98 100 100 100 100 100 100 98 100 100 100 64 87 98 99 100 66 64 12 5 0 6 18 100 94 99 4 0 4 2 3 5 5 5 5 1 4 0

GFSSW_prec_cloud_060.txt.gz
Cloud_Cover
100 100 100 100 100 100 98 100 100 87 39 100 11 17 23 16 86 100 6 3 0 0 0 0 0 0 0 0 1 65 93 99 99 100 100 95 86 100 98 74 100 56 100 100 100
100 100 100 100 100 100 100 100 100 100 100 100 35 36 83 75 98 89 59 5 0 0 0 0 0 0 0 0 2 64 53 100 81 100 100 100 100 100 89 32 100 100 100 100 100
100 100 100 100 100 100 100 100 100 100 100 94 100 34 97 85 91 100 38 2 0 0 0 0 0 0 0 0 1 74 100 100 100 99 100 100 82 87 96 82 100 100 100 100 100
100 100 100 100 100 100 100 100 100 100 100 91 100 8 100 92 100 100 7 0 0 0 0 0 0 0 0 4 8 16 54 100 100 67 100 100 88 100 60 10 98 100 88 100 100
100 100 100 100 100 100 100 100 100 100 100 100 100 63 100 69 100 82 5 0 0 0 0 0 0 0 0 4 4 5 5 100 100 68 87 95 45 53 35 6 100 85 99 100 100
100 100 100 100 100 100 100 100 100 100 100 100 100 100 100 100 100 27 5 3 0 0 0 0 0 1 4 0 2 5 17 100 100 100 84 8 4 4 35 84 67 100 100 100 100
100 100 100 100 100 100 100 100 100 100 100 100 98 99 100 87 81 5 5 0 0 0 0 0 0 0 28 0 4 48 38 100 34 5 9 5 11 22 12 52 99 100 100 100 100
100 100 100 100 100 96 99 96 100 100 100 100 41 100 12 5 36 5 0 0 0 0 0 0 0 0 0 0 1 28 5 36 20 24 23 24 95 16 85 100 100 100 100 100 100
100 100 100 100 100 100 100 100 100 100 100 100 100 97 20 5 10 5 0 0 0 0 0 0 0 0 0 0 4 73 81 74 68 62 62 88 92 97 100 100 100 100 100 100 100
100 100 100 100 100 100 100 100 100 100 100 100 99 11 7 9 5 5 0 0 0 0 0 0 0 0 0 4 20 7 30 99 80 100 100 100 99 100 100 100 100 100 100 100 100
89 100 100 100 100 100 100 100 98 100 100 100 97 50 31 5 5 34 0 0 0 0 0 0 0 0 0 13 16 6 99 84 96 54 100 58 100 100 100 100 100 100 100 100 100
41 99 100 100 100 100 85 100 100 100 100 100 100 94 100 99 19 5 0 0 0 0 0 0 2 4 1 88 72 95 100 100 89 98 98 100 100 100 100 100 99 100 100 100 100
100 100 100 100 100 100 100 88 100 100 86 99 100 100 100 57 5 5 0 0 0 0 0 0 1 5 1 5 5 12 88 96 100 100 100 100 100 100 100 100 100 100 100 100 100
100 100 100 100 100 100 100 100 100 100 42 100 43 100 100 61 4 5 0 0 0 0 0 0 0 0 0 1 5 19 68 100 100 100 100 100 100 100 100 100 100 100 100 100 100
100 100 100 97 100 100 100 100 100 100 22 94 38 100 100 100 37 4 0 0 0 0 0 0 0 0 0 0 5 7 89 97 94 89 99 99 96 100 100 100 100 100 100 98 98
92 100 100 100 100 100 98 100 100 100 98 26 94 100 100 68 71 5 0 0 0 0 0 2 1 0 0 1 5 22 65 13 5 10 49 50 100 100 99 100 94 100 100 100 84
96 98 100 100 100 95 99 100 100 100 100 45 99 100 84 99 13 4 0 0 0 0 0 0 5 5 4 4 5 18 98 52 18 29 48 28 87 48 100 100 97 100 100 82 68
100 14 72 100 100 100 100 100 100 100 100 100 100 100 96 24 69 17 4 5 4 0 0 0 3 5 0 0 4 5 60 100 70 7 89 100 96 100 66 52 84 89 85 77 100
100 66 28 100 100 100 100 100 99 100 100 100 100 100 100 100 100 25 19 5 5 5 5 0 0 0 5 5 8 5 75 82 96 79 76 98 100 100 99 89 100 100 13 68 100
100 95 4 99 100 100 100 47 100 100 100 100 100 100 69 31 100 100 86 5 5 5 5 5 0 1 4 5 5 5 16 66 98 53 67 62 100 92 92 99 99 100 91 78 99
100 100 6 92 100 100 84 71 100 100 100 100 98 90 78 88 100 100 60 43 5 5 27 6 19 0 3 4 4 5 5 22 99 100 22 5 43 5 5 5 37 18 59 31 66
100 95 69 32 100 100 100 100 100 100 100 92 100 100 100 99 23 97 100 98 5 5 94 97 94 4 1 5 4 0 0 2 5 25 37 16 5 5 29 99 38 29 16 20 30
100 97 90 72 89 100 100 100 100 100 100 100 72 15 49 97 69 92 100 93 14 62 100 36 96 48 1 5 6 0 0 1 2 5 5 67 5 5 4 1 3 2 3 14 0
100 100 100 81 0 17 100 100 100 100 100 96 100 22 41 96 75 100 95 83 98 100 44 5 42 100 92 5 5 2 0 0 17 41 5 16 38 2 1 0 1 3 4 0 0
100 99 41 100 46 3 100 100 100 100 58 96 100 93 94 92 95 100 100 100 100 100 5 2 5 68 100 47 4 5 4 0 25 92 22 5 46 93 0 0 42 47 5 0 0
100 96 69 13 95 18 100 100 100 100 100 27 100 100 100 100 100 100 100 100 100 24 5 5 5 71 100 16 5 4 0 3 97 100 100 19 72 100 0 0 0 3 4 2 0
100 83 12 11 60 89 7 100 100 100 100 100 100 100 100 100 100 100 100 100 99 100 5 7 5 99 100 57 4 3 0 2 58 100 100 100 94 5 0 0 0 0 4 5 4

GFSSW_prec_cloud_066.txt.gz
Cloud_Cover
100 98 100 100 98 100 100 95 100 100 100 100 5 40 98 5 5 5 5 4 5 4 13 16 5 0 0 0 0 0 0 99 77 83 100 100 100 100 100 100 100 100 96 100 100
99 100 100 100 80 100 100 100 100 100 100 100 95 75 60 93 5 5 5 5 5 5 53 5 3 0 0 0 0 0 0 97 89 82 99 100 95 90 83 100 93 100 100 100 100
100 100 48 100 100 60 98 100 100 100 100 100 85 100 58 91 14 5 5 74 10 33 15 1 0 3 0 0 0 0 0 34 23 99 100 97 91 74 45 100 100 100 100 100 100
97 100 100 93 100 100 92 96 98 92 98 88 97 12 73 45 13 5 99 88 5 5 5 5 0 0 0 0 0 0 0 0 5 10 99 100 100 9 19 93 77 43 59 73 100
14 28 100 100 94 100 97 78 54 80 100 95 82 80 64 12 35 57 100 5 5 56 5 5 0 0 0 0 0 0 0 0 2 5 48 77 56 100 66 3 5 5 93 100 100
6 99 8 26 100 14 99 43 40 84 100 100 84 12 39 10 76 90 100 5 26 54 27 3 0 0 0 0 0 0 0 1 5 82 99 2 100 54 20 100 59 5 69 63 100
100 100 100 42 5 5 51 79 79 100 100 100 56 63 60 42 100 79 23 5 6 28 76 4 0 0 0 0 0 0 0 3 4 49 61 3 30 42 88 7 5 16 75 51 88
100 87 100 100 42 5 80 99 5 99 68 80 91 24 78 100 100 100 14 7 5 9 44 5 0 0 0 0 0 0 4 100 35 11 91 38 100 43 5 5 5 100 71 99 95
100 100 88 27 100 98 89 94 5 85 7 13 100 74 21 100 100 86 52 21 11 29 46 5 0 0 0 0 1 3 94 61 60 40 63 96 100 88 48 17 32 61 100 95 100
100 100 57 68 79 52 94 10 5 19 92 58 100 19 16 89 100 96 24 72 99 95 58 5 0 0 0 0 15 9 3 47 86 58 77 85 97 100 100 76 100 100 100 100 100
88 100 98 5 6 72 100 15 45 5 100 49 100 97 100 73 41 8 44 100 100 100 48 16 4 1 0 0 1 5 8 100 100 7 90 100 100 100 100 100 100 100 100 100 100
100 100 98 4 22 34 100 33 86 92 68 100 85 100 100 29 82 87 84 100 100 100 62 5 5 2 0 0 0 0 8 32 19 5 13 94 100 100 100 100 96 100 100 100 100
100 100 100 0 8 71 90 22 100 95 50 100 96 100 92 17 41 74 42 100 100 100 100 5 5 3 0 0 0 5 37 29 19 6 43 58 96 79 97 100 100 100 100 100 98
100 100 100 0 44 47 98 5 100 100 86 100 100 99 73 48 56 78 98 100 100 100 100 5 5 2 4 2 0 5 1 5 38 64 100 94 100 56 92 98 97 100 45 100 100
100 100 100 49 100 99 27 100 59 99 100 100 100 89 29 9 100 68 20 98 100 100 100 5 5 5 1 4 5 38 0 3 33 100 57 99 57 100 5 5 8 70 93 91 100
56 100 100 78 99 54 6 39 81 96 100 100 100 100 100 15 100 12 35 100 100 100 100 8 5 21 5 5 5 2 0 0 4 86 100 100 100 100 99 48 5 83 100 100 100
1 100 100 100 14 33 70 93 86 5 100 100 100 100 100 47 55 6 62 100 94 100 100 86 5 5 5 18 49 5 2 29 4 5 36 16 5 32 53 96 100 27 18 87 44
0 100 100 100 86 98 99 100 26 3 100 100 100 100 100 99 14 5 5 100 100 100 100 83 24 5 5 17 5 11 5 49 5 2 5 16 18 18 69 28 24 35 77 24 22
2 63 100 100 25 100 100 100 4 5 100 100 100 100 100 100 99 14 26 100 100 100 100 98 5 5 5 4 18 71 91 24 5 0 5 5 5 11 44 45 19 49 23 5 10
5 79 93 100 30 100 100 67 5 18 70 100 100 100 100 100 100 100 95 96 100 100 100 100 66 33 7 5 5 22 22 10 5 13 8 5 20 7 21 94 100 100 100 99 75
53 99 98 95 28 100 100 67 3 21 5 91 100 100 100 100 100 100 87 100 100 100 100 100 96 47 21 5 23 26 41 42 25 5 5 5 4 33 16 23 51 82 40 91 43
23 100 83 27 99 100 100 5 2 5 85 67 61 100 100 100 100 100 68 100 100 100 100 94 96 100 5 1 5 10 36 7 18 18 4 0 2 6 9 25 6 91 36 54 5
100 100 100 16 88 98 70 47 5 5 46 63 26 100 100 100 100 100 100 100 100 100 100 95 98 10 5 2 5 5 14 5 5 5 5 5 0 1 3 1 95 74 5 5 8
100 100 100 86 6 2 16 62 50 5 5 100 56 98 100 100 100 100 100 100 100 100 100 54 87 26 59 5 5 5 5 5 5 6 6 5 4 3 0 6 5 16 52 11 5
100 86 31 100 100 3 4 24 58 50 49 100 75 64 100 100 100 100 100 100 100 100 100 100 100 39 6 5 5 5 5 27 5 13 5 37 5 0 0 4 55 26 58 37 47
100 95 33 61 30 64 1 5 96 5 16 62 100 74 100 100 100 100 100 100 100 100 100 100 100 64 11 5 5 5 54 29 5 5 5 5 16 27 2 5 6 31 63 5 65
53 45 95 6 37 91 45 0 6 94 54 25 100 100 100 100 100 100 100 100 100 100 100 100 96 98 97 96 10 76 93 5 5 5 8 9 30 5 5 5 8 84 100 100 100

GFSSW_prec_cloud_069.txt.gz
Cloud_Cover
58 84 100 100 100 68 15 5 24 84 100 100 95 14 100 100 5 5 94 100 5 5 45 86 5 0 0 0 0 0 5 100 100 100 100 32 36 62 98 100 69 61 100 100 100
4 5 15 100 29 100 98 15 0 4 64 100 69 57 19 55 53 7 39 23 5 5 100 11 1 0 0 0 0 0 48 100 50 48 11 96 35 98 96 85 100 92 22 78 100
0 0 63 100 83 14 100 100 26 5 5 43 100 98 100 29 5 71 98 12 5 66 100 22 5 0 0 0 2 7 5 98 90 47 19 82 100 100 85 73 100 100 100 98 54
1 0 5 4 50 98 95 100 92 9 1 5 8 99 76 6 4 40 40 5 5 100 100 81 1 5 0 2 8 0 86 80 5 9 5 27 100 100 10 34 100 100 100 97 100
3 2 1 4 12 9 9 5 70 16 0 5 23 99 65 36 5 19 5 5 98 100 100 58 3 3 0 5 1 3 76 1 0 0 15 98 100 100 68 3 90 48 100 39 100
92 4 5 5 6 46 5 5 36 1 0 7 5 40 69 69 6 5 5 60 100 49 100 5 5 0 5 0 0 42 0 6 0 100 76 15 86 100 100 27 0 5 17 42 87
100 100 52 77 100 100 100 71 84 17 8 1 72 40 100 50 5 5 45 100 100 34 81 5 5 5 5 1 1 4 0 100 97 100 81 3 100 60 92 100 52 5 5 75 17
100 100 100 100 100 100 15 14 19 88 64 9 34 44 42 14 5 82 100 100 100 11 26 5 6 5 4 3 0 5 72 97 100 54 97 3 100 100 32 5 5 82 76 100 16
100 100 100 100 100 100 100 100 42 100 56 6 8 12 5 5 5 16 100 100 100 11 57 100 62 5 4 0 9 98 89 41 72 97 83 28 98 99 5 5 5 81 100 98 97
100 100 100 100 96 100 100 100 99 20 16 42 5 36 58 5 2 10 100 100 53 5 100 100 8 5 2 27 100 100 99 86 29 80 40 90 96 99 42 34 25 82 46 30 80
100 100 100 100 100 100 99 57 29 75 5 5 5 5 64 23 2 32 100 40 5 38 100 100 17 91 96 90 5 5 78 69 100 73 99 100 100 100 100 100 100 100 100 100 100
100 100 100 100 100 100 100 93 67 5 8 26 5 5 5 99 5 72 100 90 6 72 100 100 100 96 27 0 0 2 94 95 78 25 15 99 100 100 96 93 63 100 100 100 97
76 100 100 100 58 95 100 72 5 14 63 4 5 5 5 61 29 62 96 64 49 97 100 100 100 100 0 1 2 6 98 99 47 76 23 49 100 100 94 87 76 100 100 100 100
38 7 100 100 10 9 92 72 85 75 10 5 6 5 4 78 94 15 72 85 26 100 100 100 100 98 5 5 61 100 83 2 1 21 100 81 96 95 92 100 32 100 100 100 100
1 3 98 98 85 77 81 42 16 8 0 0 1 5 5 12 100 100 84 81 49 99 100 100 100 100 5 5 26 64 6 0 0 10 97 100 71 100 100 98 94 82 100 100 100
5 0 7 88 24 34 100 100 48 0 0 0 0 5 5 100 100 100 10 81 88 48 100 100 100 100 34 5 5 13 0 2 2 46 98 97 85 82 96 91 98 94 100 83 100
5 0 6 67 27 79 100 100 1 0 0 0 0 5 37 100 100 100 100 35 59 99 100 62 100 100 82 5 5 5 39 96 62 100 48 55 36 41 100 81 100 66 30 100 99
59 4 0 26 5 85 100 100 0 0 0 0 0 5 74 100 100 100 100 59 98 89 100 100 100 100 99 5 12 5 65 96 80 100 91 2 2 97 6 28 50 14 88 15 98
100 17 6 54 5 99 100 100 0 0 0 0 0 5 71 100 100 100 100 100 98 99 100 100 100 100 100 5 54 98 61 83 99 13 2 26 84 3 1 6 67 21 27 8 5
100 94 39 97 5 96 100 89 1 0 0 4 4 0 100 100 100 100 100 100 100 89 100 100 100 100 100 94 38 23 71 58 37 98 99 75 98 100 29 5 5 5 5 8 5
100 100 55 98 75 100 100 23 5 1 1 40 12 1 100 100 100 100 100 100 100 100 100 100 100 100 100 100 73 10 33 80 98 100 100 100 99 100 4 5 4 5 5 5 5
100 100 93 36 100 100 83 6 27 5 72 89 76 8 100 100 100 100 100 100 100 100 68 100 100 72 100 100 100 94 36 85 99 94 38 82 39 98 37 4 4 0 5 5 5
100 100 98 10 89 100 5 4 10 80 34 100 100 25 100 100 100 100 100 100 100 100 67 91 47 97 100 100 100 23 92 99 85 81 83 93 11 69 9 0 0 1 5 5 2
100 100 93 91 38 5 4 5 5 4 92 78 100 100 98 100 100 100 100 100 100 100 100 52 36 100 100 100 100 69 65 46 75 96 7 6 39 100 86 100 99 58 28 61 67
100 84 28 100 91 33 81 46 22 0 3 33 100 100 100 100 100 100 100 100 100 100 97 5 66 100 100 100 100 83 91 77 12 13 53 33 99 58 97 100 9 100 94 17 82
100 82 99 87 99 72 62 48 33 3 0 7 100 100 100 100 99 100 100 100 100 100 100 19 33 100 100 100 100 100 99 87 17 22 5 45 7 29 11 6 5 0 0 0 78
99 47 100 76 100 93 25 5 5 51 5 5 32 100 100 100 88 86 100 100 100 100 100 75 71 100 100 100 100 58 100 100 68 44 5 5 28 90 86 5 5 5 5 0 5

GFSSW_prec_cloud_072.txt.gz
Cloud_Cover
9 23 1 5 22 100 88 97 100 100 100 16 4 0 5 8 5 4 78 59 5 5 5 5 2 76 4 2 0 0 0 88 80 75 71 80 25 85 76 100 99 95 100 100 100
5 5 3 0 8 3 0 74 62 14 5 2 0 5 0 4 20 85 5 5 5 5 5 1 43 100 5 4 0 0 8 70 83 26 29 5 27 53 93 19 100 76 100 100 100
5 2 5 5 5 8 0 76 11 12 2 0 0 0 0 0 0 87 7 5 5 5 5 14 100 100 0 2 8 5 34 95 10 96 5 1 8 100 82 88 100 100 100 100 100
70 3 98 10 5 4 2 6 4 5 15 0 0 0 0 0 6 5 5 5 5 5 5 100 100 3 0 10 98 96 4 5 31 2 3 0 98 89 32 100 100 100 100 88 100
100 53 4 100 45 5 3 5 2 5 9 1 12 0 0 0 42 5 30 16 5 5 59 100 100 0 0 21 89 9 23 60 10 3 5 13 85 100 15 84 27 91 94 54 93
100 100 82 30 87 4 4 5 12 4 3 12 38 44 0 3 5 48 95 28 5 32 100 100 60 0 0 5 8 46 6 2 13 38 3 43 37 80 97 65 2 9 28 8 77
100 100 100 98 7 100 9 2 2 5 83 44 19 4 0 3 0 4 5 5 6 99 100 100 100 3 66 69 26 5 0 90 62 100 73 12 70 100 100 100 96 4 89 6 34
100 100 97 62 70 46 72 94 22 13 100 60 3 1 46 0 0 4 2 81 6 54 100 100 41 76 100 1 4 0 4 82 9 88 97 69 95 100 100 100 100 40 73 0 0
100 100 100 100 100 100 99 100 100 100 100 58 82 42 82 5 2 1 2 9 4 76 100 90 30 96 100 23 16 21 19 94 86 1 2 78 94 100 100 100 100 15 0 1 0
100 100 100 100 100 100 100 100 100 100 100 100 100 100 100 79 5 5 13 1 5 98 100 5 41 100 100 100 44 100 87 94 98 89 5 80 100 87 58 100 39 5 5 10 0
100 100 100 100 100 100 100 21 46 58 43 11 6 100 100 8 5 5 4 5 5 60 100 5 86 100 100 100 33 12 24 93 99 17 5 3 100 100 76 100 100 98 99 70 5
100 100 100 100 100 100 100 100 98 100 98 100 94 33 89 95 14 27 7 56 5 53 100 80 62 100 100 100 37 0 1 3 26 82 0 24 80 96 87 100 95 100 100 100 100
100 100 100 100 100 100 100 100 100 100 96 100 100 100 100 78 95 10 5 17 18 31 55 10 58 100 100 100 78 2 4 82 94 100 14 6 73 77 26 54 98 100 100 100 91
100 100 100 100 100 100 100 100 100 100 100 100 100 100 100 50 56 34 5 5 86 21 5 92 10 100 100 100 99 27 90 95 4 13 82 17 6 64 71 94 57 100 100 100 100
100 100 100 100 100 100 97 99 100 100 60 100 100 85 99 5 61 37 10 5 82 90 7 98 14 100 100 100 100 13 5 5 2 5 17 85 41 100 93 29 88 71 100 100 100
11 5 36 91 55 69 73 99 27 12 4 6 54 64 28 1 6 51 5 8 99 14 100 94 95 96 100 100 100 18 2 2 0 1 3 88 25 98 100 91 100 52 100 99 100
66 5 0 5 21 35 99 53 62 17 1 0 1 34 11 4 5 60 33 22 99 42 100 100 94 90 100 100 100 99 5 10 61 62 29 70 79 5 36 76 13 59 48 91 100
97 100 5 4 5 43 53 98 67 0 1 0 0 0 4 80 65 5 5 7 96 99 100 93 68 100 100 100 100 100 5 33 99 68 36 99 73 2 70 7 5 5 7 14 94
100 100 80 32 14 72 100 100 33 2 14 5 16 3 9 3 50 5 4 57 56 100 100 100 98 100 68 100 100 100 72 12 100 71 54 31 99 16 82 68 5 3 69 14 7
100 100 86 50 24 96 100 100 3 0 0 7 49 5 48 10 3 5 26 29 100 100 100 100 100 52 100 100 100 100 100 27 63 44 57 8 42 98 86 86 17 0 2 4 4
100 100 98 89 36 100 100 35 1 0 0 59 100 81 48 99 1 0 6 87 100 100 100 100 100 94 100 98 100 100 100 83 24 9 5 5 86 99 99 62 78 4 4 3 0
100 100 98 100 92 100 100 5 0 0 0 85 88 100 99 59 100 2 3 13 100 100 100 100 100 55 100 100 100 100 100 100 100 14 99 32 72 46 14 68 71 3 0 1 4
100 100 100 100 86 100 86 33 12 5 4 5 1 100 100 99 99 100 12 66 100 100 100 100 68 99 100 100 98 100 100 100 100 5 6 74 11 5 5 12 5 8 1 3 0
100 100 100 100 21 90 91 83 37 5 5 0 4 87 85 100 32 96 94 100 100 100 100 100 100 95 52 93 92 42 53 100 100 59 34 10 63 6 100 16 25 5 59 99 100
100 86 33 100 100 77 100 83 17 5 1 0 11 34 100 70 95 88 100 99 100 100 100 100 100 92 80 96 93 53 97 100 100 76 83 29 14 1 88 98 32 91 77 3 95
100 95 88 93 100 100 82 73 64 89 7 0 5 5 24 84 100 100 99 94 100 100 100 100 100 100 100 77 61 100 100 100 100 60 100 28 5 5 45 54 51 62 6 5 5
100 78 100 53 99 82 34 62 83 51 21 4 0 0 9 75 100 100 100 70 100 100 100 100 100 100 100 100 100 38 74 100 100 100 100 91 55 5 99 50 5 13 6 5 5

GFSSW_prec_cloud_075.txt.gz
Cloud_Cover
5 5 5 5 3 0 0 1 1 81 83 100 97 100 95 54 1 0 0 3 1 2 5 0 0 0 0 100 24 0 0 0 2 5 5 5 54 0 1 100 100 100 100 100 100
5 6 11 5 5 4 3 0 0 5 6 95 42 6 5 5 1 0 0 0 0 4 5 2 0 0 7 100 100 0 0 2 32 5 5 2 1 3 6 100 98 100 100 100 100
5 5 5 7 24 5 5 0 0 5 0 5 26 16 9 0 0 0 0 0 0 3 4 3 0 4 91 100 22 2 0 0 28 6 3 0 4 0 94 100 100 100 100 100 100
22 51 37 44 89 48 75 34 5 23 5 1 11 15 4 0 0 0 0 2 0 5 1 3 1 54 100 100 8 59 29 27 0 0 1 0 1 0 44 100 100 100 100 100 84
100 100 100 100 100 100 100 100 60 15 7 5 5 62 13 4 0 0 0 2 5 0 2 4 5 93 100 100 2 94 97 42 4 3 4 0 1 0 24 11 94 100 69 79 87
100 100 100 100 100 100 100 100 99 15 78 6 65 85 9 35 2 1 0 0 5 5 2 4 31 100 100 21 5 5 5 0 3 22 11 0 3 2 90 83 100 100 100 57 100
100 100 100 100 100 100 100 100 100 56 98 5 52 72 93 39 3 5 1 22 2 5 2 5 5 100 97 5 5 98 95 0 0 40 6 0 11 99 99 100 100 100 100 100 100
100 100 100 100 100 100 100 100 100 46 5 15 44 79 28 21 33 0 4 5 0 2 2 2 4 100 82 2 52 100 96 0 0 28 53 0 3 96 71 100 100 100 100 48 42
100 100 100 100 100 100 100 100 100 65 5 2 73 30 85 76 100 44 43 73 76 1 2 4 5 100 4 5 66 100 99 32 35 6 5 0 2 84 94 100 100 100 100 92 39
100 100 100 100 100 100 100 100 98 100 4 11 61 17 100 100 100 100 100 100 95 0 0 5 5 3 13 5 72 100 100 41 89 19 5 5 5 100 71 99 100 100 100 66 82
100 100 100 100 100 100 100 100 100 100 100 97 41 33 78 100 100 100 53 22 33 2 0 5 5 4 96 43 63 100 100 64 5 99 99 5 5 34 70 8 100 100 76 100 100
100 100 100 100 100 100 100 100 100 100 100 100 6 44 96 98 100 100 100 100 97 5 5 5 48 5 0 22 100 100 100 100 4 100 4 5 0 4 2 4 17 15 85 100 100
100 100 100 100 100 100 100 100 100 97 74 100 100 36 98 4 99 100 100 100 100 100 3 4 29 5 38 32 100 100 100 100 30 57 5 10 0 4 2 0 0 2 30 98 100
100 100 100 100 100 100 100 100 99 92 100 100 100 22 84 97 99 100 100 100 85 27 5 5 12 5 100 100 100 100 100 100 44 5 0 8 3 2 61 92 4 24 93 84 45
100 100 100 100 100 100 100 100 99 100 100 85 68 100 100 100 100 100 100 100 100 100 4 35 45 21 5 90 100 100 100 100 84 0 0 2 5 6 3 5 5 3 43 80 5
100 100 100 100 100 100 100 100 100 100 84 100 100 100 100 100 100 100 100 100 100 100 6 6 27 5 20 6 97 100 100 100 100 4 0 2 81 5 4 5 4 3 78 34 98
98 100 50 100 100 35 80 75 100 100 100 100 100 100 100 100 100 100 100 100 93 44 5 77 34 8 32 98 100 100 100 100 100 5 0 22 56 0 4 2 1 13 8 69 70
57 30 6 6 36 82 87 62 90 99 98 100 100 100 100 97 94 47 22 50 5 5 5 12 43 99 99 53 100 100 100 100 100 15 39 16 57 18 2 0 5 56 5 47 10
97 92 97 99 4 33 100 100 55 4 96 100 38 18 71 100 44 98 5 5 25 5 3 7 96 100 24 84 100 100 100 82 100 100 80 69 54 84 96 79 14 5 2 0 4
100 100 100 99 24 67 100 26 8 0 0 4 1 47 95 100 56 5 28 5 5 5 99 85 84 95 100 91 100 86 100 100 100 100 88 5 5 50 45 39 42 1 0 0 0
100 100 96 100 100 76 100 99 3 0 0 0 2 59 96 16 100 88 18 3 5 67 100 93 24 99 100 15 100 100 100 100 100 100 97 10 19 5 58 64 29 14 3 4 1
100 100 100 100 100 100 95 100 5 3 0 0 6 3 94 100 100 27 49 86 5 2 8 11 46 100 98 89 100 100 100 100 100 100 100 98 6 5 28 15 14 88 53 4 0
100 100 100 82 100 100 100 86 72 35 2 0 0 98 68 86 99 62 97 34 63 5 5 45 100 100 100 100 99 99 89 100 100 100 100 100 25 12 60 100 100 2 16 5 0
100 100 100 100 95 100 100 73 70 12 3 0 0 62 100 30 100 72 100 100 100 100 9 100 100 60 100 100 100 100 100 100 100 19 100 100 100 98 98 92 16 60 39 1 0
100 100 93 100 100 84 71 57 40 78 7 3 0 0 96 100 100 100 100 82 100 100 100 16 95 100 100 100 100 100 100 99 23 100 68 100 100 100 5 5 38 95 5 44 8
100 99 96 92 100 100 88 100 27 53 20 33 0 0 65 100 100 100 92 100 78 74 51 20 90 100 100 100 100 100 100 10 29 60 100 100 100 100 100 99 39 86 98 5 5
100 100 100 50 96 69 100 89 16 84 37 36 6 0 4 1 97 100 100 100 100 100 100 99 93 100 100 100 100 95 100 99 60 37 100 100 100 100 100 100 7 68 58 36 6

GFSSW_prec_cloud_078.txt.gz
Cloud_Cover
100 100 100 90 68 30 84 5 5 1 0 0 0 1 100 99 96 64 78 5 1 0 0 0 0 0 0 0 0 16 95 13 0 3 5 5 5 5 5 100 100 100 100 100 100
100 100 100 100 100 82 12 94 0 5 0 0 0 3 90 80 71 19 5 3 0 0 0 0 0 0 0 0 1 73 31 1 0 0 5 4 0 2 3 100 100 89 100 100 100
100 100 100 100 100 100 10 5 5 2 5 4 0 0 25 89 10 0 0 0 0 0 0 0 0 0 0 0 74 100 5 2 0 2 0 6 44 5 1 100 100 90 100 100 100
99 100 100 100 100 100 26 5 12 67 4 99 5 52 100 43 4 0 0 0 0 0 0 0 0 0 0 4 100 56 0 5 42 5 2 79 51 4 14 100 100 66 95 100 100
100 100 100 100 100 100 100 64 18 69 90 100 68 100 59 67 3 4 5 5 2 0 0 1 0 0 0 1 29 1 0 3 96 2 5 32 6 5 58 100 100 79 58 100 100
100 100 100 100 100 100 100 100 100 50 88 100 100 100 98 73 3 5 5 5 5 5 4 5 5 0 0 0 79 0 0 5 26 2 2 1 90 20 69 100 100 100 55 88 100
100 100 100 100 100 100 100 100 100 46 78 100 100 100 100 42 5 26 5 4 16 0 4 0 2 0 5 0 0 0 0 5 100 5 0 5 100 69 84 100 100 100 100 72 100
6 98 100 100 100 100 100 100 99 6 69 10 98 100 100 100 65 5 5 0 19 4 0 23 3 0 0 0 0 0 0 9 91 4 5 5 5 5 15 100 100 100 77 31 100
32 19 79 100 100 100 100 100 98 5 5 46 97 100 100 100 100 39 19 4 5 100 86 100 84 2 0 0 0 0 0 7 5 72 69 5 5 5 6 100 100 100 100 27 99
69 93 97 95 100 100 100 100 100 24 6 37 93 100 100 100 100 26 39 7 46 91 100 100 100 0 2 0 0 0 3 5 99 100 98 18 4 5 7 94 100 100 100 85 100
100 100 100 100 98 100 100 100 100 100 100 31 59 94 100 100 100 100 5 5 5 57 100 100 100 31 4 2 5 0 0 3 99 100 100 2 2 5 17 56 100 100 100 100 95
99 100 100 100 100 100 100 100 96 91 100 100 62 82 100 100 100 100 100 52 100 100 100 100 100 98 100 17 5 0 0 2 99 100 100 5 5 5 2 4 1 2 0 1 1
100 100 100 100 100 100 100 100 100 100 85 100 100 58 100 56 100 100 100 100 92 12 91 100 100 100 100 5 5 26 3 3 49 100 100 13 0 0 0 5 0 5 20 5 5
100 100 100 100 100 100 100 100 100 100 100 100 100 74 65 56 86 100 100 100 65 5 5 41 100 100 81 5 7 46 5 97 25 99 100 17 0 0 3 0 0 0 5 99 15
100 100 100 100 100 100 100 100 100 100 92 100 100 100 100 100 89 100 100 100 100 100 40 100 100 100 67 100 46 78 5 98 91 95 100 57 1 0 0 0 0 0 67 81 95
100 100 100 100 100 100 100 100 100 100 96 30 100 100 100 100 100 100 100 100 100 100 87 100 100 100 100 75 52 95 67 24 96 93 100 75 10 2 1 0 0 0 0 49 90
84 97 96 100 100 99 100 100 100 100 100 100 100 8 95 100 100 100 100 100 100 100 100 100 100 100 100 100 98 98 92 35 5 4 92 98 96 5 0 0 2 0 0 17 58
100 100 39 92 99 19 97 68 100 100 100 100 100 100 100 100 100 100 100 100 100 100 100 100 100 100 100 96 100 100 97 70 29 2 87 92 100 6 0 0 0 0 0 1 10
99 25 39 43 5 1 42 100 7 72 100 100 99 100 65 100 100 100 100 100 100 100 100 100 100 100 99 92 86 98 55 92 5 5 92 85 100 73 4 1 0 1 5 0 0
76 98 100 2 98 46 99 13 2 1 6 100 68 25 47 31 100 100 100 100 100 100 100 100 100 100 100 98 86 13 92 42 26 37 56 14 95 92 19 5 5 5 5 32 0
100 100 85 53 100 100 89 45 0 0 0 0 0 56 100 98 64 79 99 100 100 100 100 100 100 100 100 15 96 100 100 98 99 65 7 57 98 100 100 23 30 22 5 5 11
100 100 100 82 100 100 78 5 5 2 5 2 0 0 0 100 100 100 35 100 100 100 100 100 96 51 100 100 58 20 90 67 8 100 61 6 95 100 100 68 8 5 5 1 0
100 100 100 100 99 100 100 98 19 5 2 5 5 0 0 74 65 40 60 100 100 94 60 88 53 63 100 79 23 98 99 100 47 100 37 70 100 58 100 93 78 5 10 37 5
100 100 100 100 68 69 100 100 100 55 4 5 3 1 2 1 15 54 100 100 100 78 99 100 48 3 24 60 76 69 100 100 100 100 100 100 100 5 100 78 80 76 29 90 74
100 100 63 95 100 75 70 98 100 100 100 46 5 4 5 5 0 94 100 100 100 100 45 100 71 5 2 100 100 100 61 100 100 100 100 100 100 8 19 67 100 54 100 100 34
100 100 100 26 86 100 100 100 78 82 79 68 5 38 5 0 1 54 100 100 100 100 48 87 86 64 43 92 100 100 96 100 100 100 100 100 14 100 5 89 59 91 100 59 5
100 80 92 57 93 96 100 100 99 100 61 100 100 98 5 0 0 4 42 100 100 100 100 100 89 35 0 5 100 98 9 100 100 100 100 100 100 100 100 99 59 100 100 100 8

GFSSW_prec_cloud_081.txt.gz
Cloud_Cover
7 56 5 100 100 97 100 100 100 6 6 17 5 2 6 48 90 4 100 42 5 5 2 0 0 0 0 0 0 0 0 0 0 0 0 0 0 0 0 0 0 100 100 100 100
0 2 12 66 100 100 100 100 73 59 32 7 6 5 42 100 48 3 10 5 78 7 1 0 0 0 0 0 0 1 3 2 0 0 2 0 0 0 0 0 82 100 100 100 100
5 1 4 7 97 100 100 100 100 96 75 57 31 5 99 100 37 0 2 4 10 5 0 0 0 0 0 0 0 2 1 0 0 0 0 0 0 0 0 0 99 100 100 100 100
5 5 5 5 96 75 100 100 100 99 100 94 69 43 98 82 56 0 0 0 0 1 0 0 0 0 0 0 0 0 0 0 0 0 0 0 0 0 0 1 96 100 100 100 100
5 5 5 5 59 99 100 100 100 99 94 97 43 41 71 99 89 100 5 0 1 0 4 6 0 0 0 0 0 0 0 0 0 0 2 1 5 0 0 0 96 100 100 100 100
5 5 5 5 5 31 97 100 100 98 98 87 79 40 66 99 100 99 99 5 5 1 2 1 9 2 0 0 0 0 0 0 0 0 5 4 5 0 0 0 96 100 100 100 100
5 5 5 92 5 5 89 100 100 92 52 100 99 99 100 100 89 100 100 53 37 12 0 0 3 5 0 5 1 0 0 0 0 0 7 3 0 0 0 0 62 100 100 100 100
50 74 100 38 30 5 9 94 100 72 98 10 82 100 100 100 16 100 98 100 7 52 23 1 21 39 25 15 59 5 0 0 0 18 47 2 0 0 0 3 62 100 100 80 100
52 54 100 100 77 41 5 8 45 100 100 99 42 66 100 100 30 84 100 100 64 90 52 28 5 24 100 100 100 3 0 0 0 0 5 4 1 0 0 28 86 100 71 5 84
57 84 100 100 100 100 12 96 6 5 98 94 96 42 95 100 99 96 100 100 98 100 100 6 5 25 13 100 100 5 5 3 0 0 0 5 8 0 0 1 98 100 99 21 57
79 100 100 100 100 100 100 73 78 5 43 100 100 100 99 100 96 5 57 100 100 100 100 18 53 67 5 98 100 55 88 5 5 5 0 5 100 0 0 0 9 99 100 97 44
79 100 100 100 100 100 100 97 93 83 93 100 100 100 100 99 87 89 7 99 100 100 100 22 91 19 5 100 97 100 100 24 5 5 0 14 100 8 0 0 0 0 68 100 100
84 100 100 100 100 100 100 100 100 100 97 99 100 100 100 96 96 100 71 100 100 100 100 100 100 14 5 100 100 100 100 86 17 5 5 82 100 8 0 0 0 0 0 11 28
100 100 100 100 100 100 100 100 100 99 93 100 100 100 100 68 48 100 100 100 100 100 100 12 100 95 4 6 6 100 100 61 37 5 23 68 86 16 0 0 0 0 0 0 0
100 100 99 100 100 100 100 100 100 100 63 100 100 100 100 100 89 100 100 74 10 98 100 99 100 42 1 98 97 100 100 35 66 29 90 8 6 60 15 0 0 0 0 0 0
100 100 99 100 100 100 100 100 100 100 100 100 100 100 100 100 100 100 100 74 100 100 100 100 100 16 86 100 100 100 100 100 54 81 90 83 91 5 91 0 0 0 0 0 0
100 100 100 100 100 100 100 100 100 100 100 99 44 100 100 100 100 100 100 100 90 100 76 100 100 100 30 21 74 100 100 100 87 5 53 76 85 59 100 5 5 0 0 0 0
100 100 100 100 100 100 100 100 85 100 100 73 84 5 100 100 100 100 100 100 100 100 98 100 100 100 100 100 100 100 99 74 89 50 89 100 74 100 100 5 5 0 0 0 0
100 100 100 100 100 100 100 69 95 95 59 100 43 19 4 87 100 100 100 100 100 100 100 100 100 100 100 100 100 100 8 88 5 43 12 100 70 96 100 54 8 5 2 0 0
100 100 100 100 100 100 100 34 15 6 64 46 100 100 64 5 19 100 100 100 100 100 100 100 100 100 100 100 60 82 100 92 36 100 59 98 100 100 100 100 100 60 9 4 1
100 100 100 100 9 100 98 96 98 5 12 45 6 5 5 1 4 46 67 100 100 100 100 100 100 100 100 93 91 100 100 100 100 100 46 78 83 99 100 100 100 80 82 80 63
100 100 92 100 99 100 100 50 5 3 0 1 2 0 4 5 4 5 78 100 100 100 100 100 100 100 100 100 100 100 100 100 100 77 100 31 95 51 66 100 100 100 66 96 97
100 100 100 76 93 100 100 100 43 5 1 5 2 1 0 2 2 4 6 100 100 100 100 100 100 100 100 100 100 100 100 100 100 100 100 97 100 6 100 95 100 100 100 19 92
100 100 100 100 15 5 90 92 100 88 6 2 5 4 3 2 0 3 0 100 62 91 100 100 100 93 100 100 100 100 100 100 100 100 100 61 99 94 60 90 98 100 100 62 11
100 100 100 95 100 99 70 86 100 100 92 71 57 2 0 5 1 1 0 13 84 89 98 100 100 86 53 100 100 100 100 100 100 71 6 96 39 100 45 61 43 76 100 100 100
100 100 100 98 66 100 94 100 100 99 100 94 82 100 10 15 4 0 0 1 5 98 100 100 100 39 100 85 35 59 100 100 98 87 5 65 43 100 100 90 7 97 98 100 100
100 100 100 91 61 97 100 36 97 100 100 100 73 99 48 5 1 1 6 1 3 71 100 100 100 100 5 4 78 99 48 94 44 6 29 29 92 100 100 100 100 99 76 98 100

GFSSW_prec_cloud_084.txt.gz
Cloud_Cover
0 1 0 0 0 0 0 5 8 24 5 10 29 48 53 97 88 45 5 2 0 0 5 6 6 0 0 0 0 0 0 0 0 0 0 0 0 0 0 0 0 5 8 100 100
76 5 0 0 0 0 0 0 5 87 92 5 6 22 5 92 17 7 13 5 0 0 5 20 5 0 0 0 0 0 0 0 0 0 0 0 0 0 0 0 1 5 100 100 100
2 2 2 1 1 1 4 4 0 4 25 100 19 97 71 92 100 5 6 5 5 0 0 0 3 0 0 0 0 0 0 0 0 0 0 0 0 0 0 0 4 5 97 100 100
5 5 5 0 5 0 0 5 5 0 5 11 100 91 100 90 100 94 6 37 5 5 2 0 0 0 0 0 0 0 0 0 0 0 0 0 0 0 0 4 0 31 100 100 100
5 44 59 5 1 0 0 0 5 4 2 48 97 100 54 97 94 77 86 19 9 19 4 3 0 0 0 0 2 1 0 0 0 0 0 0 0 5 0 5 0 100 100 100 100
5 6 82 5 4 2 0 0 0 5 5 62 100 92 99 98 100 100 100 50 16 11 8 0 0 0 0 0 2 1 5 5 5 0 0 0 0 5 0 1 0 93 98 100 100
5 5 5 5 5 1 0 0 3 3 2 5 100 100 100 100 100 100 97 80 40 99 68 4 5 5 0 0 0 0 3 64 5 0 0 0 0 0 2 0 0 20 95 100 100
5 7 50 31 31 70 7 4 0 0 5 5 18 100 99 100 100 100 18 100 75 99 87 37 20 34 5 1 5 4 47 53 2 0 0 0 0 0 0 0 0 6 100 94 100
45 83 100 100 76 39 73 22 5 5 2 2 69 58 100 100 100 100 100 100 100 100 56 42 96 100 13 16 4 5 25 100 5 3 0 0 0 0 0 0 0 1 65 98 99
78 95 86 100 97 15 77 21 7 5 16 85 30 97 60 100 100 100 70 92 100 100 50 100 79 58 100 5 5 5 17 98 23 5 3 0 0 0 4 0 0 0 38 88 99
39 100 100 100 100 96 99 100 59 5 5 100 100 89 69 100 100 100 42 100 100 100 100 100 100 100 100 63 100 15 38 100 100 5 4 4 1 0 1 2 0 0 26 19 99
93 100 100 100 100 96 100 95 95 76 86 47 100 100 100 70 89 100 99 100 100 100 97 27 90 100 95 5 90 97 8 99 100 99 42 7 20 5 0 3 0 0 0 0 27
43 100 100 100 100 100 100 100 84 78 100 100 100 100 100 31 40 100 100 100 100 100 98 71 100 100 98 51 100 98 43 76 99 66 100 100 9 5 0 5 5 0 0 0 1
100 100 100 100 100 100 100 100 100 95 100 100 97 100 100 27 19 100 100 100 100 100 100 25 100 100 100 96 100 100 53 5 38 100 100 100 72 5 0 6 41 0 0 0 0
59 100 100 100 100 100 100 100 100 100 99 99 100 100 100 100 100 100 100 100 100 100 100 100 100 100 40 99 6 92 98 6 6 100 100 96 98 8 2 0 62 0 0 0 0
9 95 100 100 100 100 100 97 100 100 91 62 100 100 100 100 100 100 100 100 100 100 100 100 100 100 100 95 65 100 68 7 5 100 100 100 100 54 5 3 58 4 0 0 0
5 4 98 100 100 100 100 100 100 85 58 100 100 100 100 100 100 100 100 100 100 100 100 100 100 100 100 100 57 88 98 5 5 99 100 100 100 64 61 4 29 74 0 0 0
3 2 15 100 100 100 100 100 87 12 91 100 100 100 100 100 100 100 100 100 100 100 100 100 100 100 99 100 100 55 66 5 73 100 100 100 100 99 100 98 11 91 41 1 0
4 37 82 100 100 100 100 100 16 83 100 100 100 100 100 100 100 100 100 100 100 100 100 100 100 100 100 100 100 99 99 100 92 5 53 100 100 87 93 97 21 2 98 41 0
29 64 76 74 100 100 96 100 62 86 100 100 100 57 100 100 100 100 100 100 100 100 100 100 100 100 100 100 81 5 52 67 23 46 100 100 100 100 58 98 98 5 46 99 4
66 100 54 100 98 96 91 77 78 100 100 100 100 100 56 100 100 100 100 100 100 100 100 100 100 100 100 100 100 100 84 75 88 99 100 100 100 100 100 99 100 17 26 100 100
48 100 11 94 100 98 100 100 100 100 100 100 100 100 100 69 6 66 86 100 100 94 100 100 100 98 100 100 100 99 50 99 76 44 7 78 100 100 100 100 100 100 98 100 100
100 94 94 48 91 100 100 100 100 100 100 100 100 100 100 100 27 4 16 100 100 100 100 97 100 100 100 100 100 100 100 96 34 48 11 100 100 100 100 100 100 100 100 100 100
100 100 89 100 28 35 80 71 100 100 100 100 100 100 98 100 95 21 8 2 75 100 87 50 5 99 100 100 100 97 96 100 100 100 100 100 100 100 100 100 100 100 100 100 100
100 98 84 90 96 100 42 35 60 100 100 100 90 79 86 17 5 2 1 0 0 14 7 34 40 78 65 76 100 100 100 100 100 100 100 100 100 100 100 100 100 100 100 100 96
100 98 62 99 87 100 98 86 44 58 82 48 36 6 41 5 5 5 5 2 1 5 5 95 92 82 5 99 100 100 100 100 100 100 100 100 100 100 100 100 96 100 100 100 100
99 96 98 27 47 92 54 28 7 5 52 49 95 95 28 31 100 100 57 36 31 5 31 76 100 67 4 31 33 100 100 100 100 100 100 100 100 100 100 100 66 22 98 100 100

GFSSW_prec_cloud_087.txt.gz
Cloud_Cover
62 6 5 6 2 8 5 4 0 0 0 0 0 3 2 22 88 100 69 45 5 44 5 5 5 0 0 3 0 0 0 0 0 0 0 0 0 0 0 0 0 0 0 45 100
8 7 3 0 0 0 0 5 3 0 0 0 0 4 68 7 6 96 100 100 6 35 33 5 5 3 0 0 0 0 0 0 0 0 0 0 0 0 0 0 0 0 3 100 100
5 2 0 0 0 0 0 0 2 5 0 0 0 4 24 82 64 5 84 100 98 72 16 6 5 5 4 0 0 0 0 0 0 0 0 0 0 0 0 0 0 0 1 100 100
7 7 23 54 5 0 0 0 0 0 0 0 0 5 5 95 100 80 6 87 100 100 55 6 5 6 5 1 0 0 0 0 0 0 0 0 0 0 0 0 0 0 30 83 100
100 91 67 33 5 5 1 0 0 0 0 5 0 3 7 5 100 100 100 100 100 56 81 87 17 22 34 5 1 0 0 0 0 0 0 0 0 0 0 0 0 0 5 69 100
98 20 5 5 4 5 3 0 0 0 0 0 0 1 38 9 100 100 100 100 100 71 89 50 74 86 59 5 5 0 0 0 0 0 0 0 0 0 0 0 0 0 3 6 100
71 5 5 5 5 5 5 5 0 0 0 12 74 35 14 64 49 100 100 100 100 100 100 100 44 82 79 8 5 0 5 0 0 0 3 0 0 0 0 0 0 0 0 16 98
5 5 5 5 5 5 5 5 1 0 0 58 94 85 5 16 5 82 99 100 100 100 100 100 100 18 100 44 5 4 5 3 5 5 5 4 0 0 0 0 0 0 1 27 75
5 1 4 5 5 13 72 11 5 5 4 6 52 83 11 82 41 41 22 100 100 100 100 82 78 99 100 100 87 3 35 5 5 5 5 5 0 0 0 0 0 0 41 48 40
5 5 0 5 5 5 87 96 33 5 5 79 82 37 30 84 78 5 5 70 100 100 82 82 87 100 100 100 97 5 100 8 10 10 5 5 2 4 2 4 0 0 0 0 8
22 1 0 4 7 54 5 79 79 10 5 5 39 85 89 100 31 86 76 69 100 100 100 88 79 100 100 100 31 9 100 17 5 5 22 12 5 5 9 5 1 0 0 0 0
100 5 0 0 5 20 96 100 92 5 74 16 11 65 100 68 10 50 100 94 100 100 100 5 82 100 100 100 70 74 100 100 2 5 72 14 4 97 54 5 2 0 5 0 0
76 52 0 0 5 33 48 80 73 6 56 100 22 10 100 72 54 100 47 100 100 95 100 90 98 100 100 100 85 62 100 92 4 61 100 9 4 99 99 5 5 0 5 0 0
18 5 4 0 1 5 32 100 85 98 90 100 93 21 72 89 86 100 4 100 100 100 100 100 99 100 100 100 100 99 100 42 93 100 100 36 40 45 57 5 5 0 9 1 0
100 15 5 1 27 5 28 100 100 100 30 99 100 96 100 100 100 100 100 100 100 100 100 100 100 100 100 100 100 100 100 52 100 100 100 12 99 85 100 16 5 16 50 17 0
66 4 5 1 15 7 8 100 77 100 38 91 100 72 100 100 100 100 100 100 100 100 81 100 100 100 100 100 100 100 100 82 74 87 100 28 91 100 100 60 25 7 10 8 5
0 2 3 5 15 0 96 73 100 81 15 100 100 100 100 100 100 100 100 100 100 100 96 100 100 100 100 100 100 100 100 95 5 58 99 15 28 100 99 77 90 55 87 12 5
4 5 0 2 5 4 56 70 100 77 97 100 100 100 100 100 100 100 100 100 100 100 100 99 100 100 100 100 100 100 100 88 51 34 100 88 68 100 100 22 74 80 37 88 65
46 7 29 1 5 22 5 38 2 100 100 100 100 100 100 100 100 100 100 100 100 100 100 100 100 100 100 100 100 100 100 100 43 34 80 13 100 100 100 13 84 100 33 72 89
5 22 3 0 5 45 65 0 5 31 100 100 100 100 100 100 100 100 100 100 100 100 100 100 100 100 100 100 100 100 100 91 8 5 62 100 100 100 100 100 100 100 100 67 38
9 13 1 0 8 89 99 3 5 5 99 100 100 100 100 100 100 100 100 100 100 99 100 77 100 100 100 100 100 100 68 98 6 5 16 93 100 100 100 66 69 100 100 32 24
19 98 90 5 88 87 100 43 2 100 100 100 100 100 100 100 100 100 100 100 100 99 94 100 97 100 100 100 100 100 100 100 43 5 5 68 100 100 100 49 100 100 100 5 5
98 96 93 76 99 100 97 83 26 100 100 100 100 100 100 100 99 100 100 100 100 100 100 100 68 100 100 100 100 100 73 11 18 5 5 16 100 100 100 100 100 100 100 79 99
98 89 60 100 100 84 79 56 99 100 100 34 91 100 100 100 100 100 100 100 100 100 100 86 100 100 100 100 100 100 100 100 87 4 18 78 100 100 100 100 89 100 100 100 79
100 83 27 85 98 100 96 73 100 100 100 100 78 100 100 100 100 100 100 98 100 100 100 100 60 97 100 100 100 100 100 99 5 4 6 99 100 100 100 100 74 100 100 100 100
100 45 98 13 43 98 100 98 95 100 100 100 100 100 100 100 100 100 100 98 10 5 5 90 100 93 93 100 100 100 100 100 98 98 4 61 23 100 100 100 100 100 100 100 100
95 36 27 59 30 100 64 10 42 54 50 100 100 100 100 100 100 100 76 58 32 5 5 5 99 100 13 7 13 31 97 99 87 98 64 3 93 100 100 100 100 97 97 96 100

GFSSW_prec_cloud_090.txt.gz
Cloud_Cover
100 100 100 100 6 5 1 0 2 0 0 0 0 0 0 0 0 0 4 2 9 98 98 52 63 19 83 47 5 0 0 0 0 0 0 0 0 0 0 0 0 0 0 0 40
100 100 100 83 6 4 1 0 0 2 0 0 0 0 0 0 0 0 12 44 30 5 100 87 26 91 100 80 5 5 0 0 0 0 0 0 0 0 0 0 0 0 0 3 5
100 74 95 13 5 5 5 5 1 5 2 2 5 0 0 0 0 0 0 65 55 54 25 100 85 16 100 100 55 10 0 0 0 0 0 0 0 0 0 0 19 0 0 38 95
100 100 100 100 83 8 5 62 89 7 0 4 0 0 0 0 0 0 0 3 6 100 21 50 99 100 100 100 97 63 5 5 0 0 0 0 0 0 0 0 0 0 0 0 6
100 100 100 54 96 59 99 73 46 5 3 0 3 1 0 0 4 0 0 5 5 34 100 100 96 84 98 100 100 84 32 5 2 0 0 0 0 0 0 0 0 0 0 0 90
100 100 100 100 100 100 100 100 100 100 53 5 47 0 0 0 3 5 0 5 5 58 45 100 100 100 100 100 100 97 60 5 5 2 5 0 0 0 0 0 0 0 0 0 22
100 100 100 100 100 99 25 64 7 5 53 15 20 9 0 3 0 5 5 5 5 54 100 100 100 100 100 71 100 23 80 5 5 5 55 5 0 0 0 0 0 0 0 0 0
100 100 100 100 100 100 88 5 52 22 3 0 7 0 0 0 0 5 5 5 6 100 99 92 100 100 100 100 100 100 87 5 5 20 4 30 0 0 0 0 0 0 0 0 0
100 100 100 100 100 100 100 53 4 4 0 2 5 0 0 3 5 12 86 9 8 83 94 9 31 98 100 100 100 100 69 6 91 5 7 96 3 0 0 0 0 1 0 0 0
100 100 100 100 100 100 100 5 5 0 10 14 14 3 3 4 5 47 100 95 45 77 14 18 15 71 100 100 100 100 32 79 100 53 8 89 36 0 0 0 5 5 0 0 0
100 100 62 100 100 100 59 8 5 5 3 0 4 5 17 67 80 9 100 72 100 94 5 56 67 97 100 100 100 100 100 100 100 8 24 68 100 5 5 0 4 3 0 0 0
100 91 97 100 100 99 44 67 0 0 11 1 2 4 100 71 10 92 100 93 30 100 71 5 0 77 100 100 100 100 100 100 100 76 36 100 99 5 4 0 6 5 0 0 0
100 100 52 32 5 41 14 3 0 0 38 24 91 5 61 60 22 100 100 100 87 99 88 48 27 100 95 100 100 100 97 100 100 60 90 100 97 5 4 5 5 9 5 0 0
100 100 65 17 6 2 3 29 0 2 42 0 27 42 41 67 96 100 25 37 86 90 100 53 99 100 99 100 100 100 100 34 100 5 29 100 100 5 5 5 3 52 5 5 0
100 100 96 5 9 5 5 0 0 90 0 0 0 79 100 100 73 100 79 96 100 100 96 61 100 100 94 96 100 100 95 49 100 65 72 100 100 41 5 5 5 88 4 5 5
100 75 2 5 20 5 0 0 60 22 0 0 2 100 100 100 100 100 100 99 100 100 100 39 100 100 100 100 100 100 100 52 100 6 99 100 100 59 8 5 5 15 5 21 5
72 5 3 6 11 32 2 1 7 0 0 0 7 100 100 100 100 100 100 100 97 100 100 99 100 100 100 100 88 100 100 100 100 35 100 100 38 98 16 55 71 49 5 16 4
6 5 5 5 12 28 9 0 0 0 0 0 1 97 100 100 100 100 100 100 94 100 100 100 100 100 100 100 100 100 100 100 89 72 100 82 97 100 100 100 100 5 5 5 62
5 16 9 5 2 4 12 0 0 0 0 0 13 100 100 100 100 100 100 98 100 100 74 100 100 100 100 100 99 85 100 100 87 97 100 94 100 100 100 100 100 99 6 65 100
41 64 12 5 0 3 54 0 0 0 0 0 100 100 100 100 100 100 100 100 100 100 99 99 100 100 100 100 100 100 100 100 5 100 59 100 100 100 100 85 100 100 97 77 100
74 97 21 1 1 76 69 4 0 0 2 0 100 100 100 100 100 100 100 100 100 100 97 100 100 100 100 100 100 100 66 100 25 100 100 100 100 100 100 100 100 96 71 7 100
80 99 6 4 61 89 91 40 30 0 2 2 74 100 100 100 100 100 100 100 100 94 99 84 100 100 100 100 100 100 100 100 100 100 87 49 100 100 100 100 100 99 8 8 100
100 88 28 56 98 100 100 82 76 7 0 0 57 100 100 100 100 100 100 100 100 100 83 91 100 100 100 100 100 100 100 100 95 84 11 36 100 100 100 100 100 100 100 86 100
61 99 87 65 66 95 100 93 100 95 5 0 11 100 100 100 100 100 100 100 99 100 100 100 100 100 100 100 92 100 100 100 100 77 83 5 98 100 100 100 100 100 100 100 100
100 72 71 92 87 85 100 100 100 100 55 19 31 100 100 100 100 100 100 100 97 84 100 100 100 100 100 100 100 100 100 100 100 66 11 82 26 99 100 100 100 100 100 100 100
100 86 92 90 100 99 92 91 100 100 100 100 91 100 100 100 100 100 100 100 100 100 100 100 100 100 100 100 100 100 100 100 74 34 5 5 5 65 25 100 100 100 99 98 100
98 63 90 99 95 76 49 36 91 100 100 51 100 100 100 100 100 100 100 100 100 90 100 100 100 100 100 100 100 100 100 100 100 100 83 6 8 96 40 60 100 100 100 97 94

GFSSW_prec_cloud_093.txt.gz
Cloud_Cover
93 98 71 5 6 73 100 100 100 98 6 1 0 0 0 0 0 0 0 0 0 0 0 0 0 88 100 100 48 45 100 18 5 1 0 0 0 0 0 0 0 1 0 1 0
100 83 100 90 100 100 100 100 100 5 3 2 0 0 0 0 0 0 0 0 0 0 0 0 0 4 80 100 100 66 100 41 5 5 0 0 0 0 0 0 0 6 100 12 0
100 100 100 100 100 100 100 100 90 97 5 0 2 0 1 3 0 0 0 0 0 0 0 0 0 0 26 100 98 5 100 33 9 5 5 0 0 0 0 0 1 8 1 0 0
100 100 100 100 100 100 42 100 100 100 98 22 16 5 5 5 7 1 0 0 0 0 0 0 0 2 5 94 100 100 100 100 99 5 13 4 0 0 0 0 0 0 0 0 0
100 100 100 100 100 100 100 100 100 100 100 91 100 99 100 19 82 8 4 1 0 0 0 1 0 4 5 20 51 100 100 100 100 54 50 9 0 2 0 0 0 0 0 0 0
100 100 100 100 100 100 100 100 100 100 100 100 100 100 100 100 51 10 5 1 0 0 0 1 5 0 2 100 89 100 100 84 100 100 28 5 0 5 6 1 0 0 0 0 0
100 63 100 100 100 100 100 100 100 100 100 100 97 90 75 94 87 4 5 0 0 0 0 0 5 3 11 99 100 100 100 98 100 38 7 5 3 5 18 5 0 0 0 0 0
99 100 100 100 100 100 100 100 100 100 100 100 100 100 100 98 16 6 5 0 0 0 2 2 5 5 18 96 89 100 100 100 100 76 52 13 5 1 6 5 2 0 0 0 0
5 35 100 100 100 100 100 100 100 100 100 100 100 100 100 95 99 51 4 4 0 0 2 5 5 32 63 5 37 100 100 100 100 100 100 59 5 44 94 36 11 0 1 0 0
100 93 38 97 100 100 100 100 100 100 100 100 100 100 100 91 15 6 0 0 0 0 5 5 40 6 17 12 39 100 100 100 100 100 100 100 100 82 5 62 18 0 4 0 0
100 100 51 100 100 100 100 100 100 74 100 100 100 100 96 91 52 16 0 1 3 5 2 10 66 5 94 67 100 100 98 100 97 100 100 100 100 100 5 100 100 2 2 1 0
5 100 100 75 100 100 97 100 97 17 7 37 53 20 88 12 5 0 5 43 27 7 80 14 3 76 100 100 98 100 100 100 100 60 59 100 100 100 86 99 6 5 3 1 0
57 76 76 50 95 100 100 42 98 42 4 40 14 4 3 3 0 3 0 70 87 99 62 6 44 100 95 98 47 100 100 100 100 100 84 100 100 100 100 97 5 5 0 1 2
83 100 92 100 100 100 55 100 100 84 47 26 1 5 1 0 0 0 0 69 99 75 100 85 96 92 98 55 100 24 100 100 100 99 81 94 100 100 100 99 5 5 3 4 5
19 9 96 100 100 100 69 47 100 100 100 11 4 56 6 0 0 0 2 7 100 100 100 38 100 100 79 79 64 10 99 95 100 100 77 46 100 100 100 7 25 5 5 8 0
11 44 5 13 15 22 100 82 98 100 66 5 5 34 11 0 0 1 8 97 100 100 100 100 97 97 88 100 46 100 100 95 100 100 88 91 100 100 100 84 91 30 10 5 5
78 94 9 53 21 77 12 5 3 0 0 1 0 4 0 0 0 12 78 100 100 100 100 100 82 100 100 100 79 94 100 86 100 100 96 98 100 100 100 56 16 83 20 5 5
100 94 10 44 73 62 8 5 3 0 0 0 0 0 0 0 0 67 94 100 100 100 100 96 79 94 100 100 100 99 100 100 98 100 100 100 100 100 100 82 47 100 87 91 5
100 85 59 92 93 77 80 5 0 0 0 5 4 0 5 0 1 6 100 100 100 100 100 66 100 34 99 100 92 90 100 100 100 100 100 100 100 100 100 30 98 100 100 100 34
91 100 99 100 85 92 87 4 0 2 4 6 1 1 5 28 1 36 100 100 100 100 100 100 100 92 100 100 99 100 100 100 100 71 100 100 100 100 100 99 74 100 99 100 100
88 99 100 79 12 88 46 5 0 4 1 13 0 43 4 94 6 33 100 100 100 100 100 100 80 98 100 100 100 100 100 100 100 97 100 100 100 100 100 100 97 75 62 96 100
100 98 25 29 73 79 81 67 75 15 25 3 0 2 64 14 100 98 100 100 100 100 100 100 100 89 100 100 100 100 100 100 100 98 100 100 100 100 100 100 100 98 46 22 100
96 98 42 80 95 100 100 100 100 100 20 3 5 3 5 1 98 100 100 100 100 100 100 100 100 100 100 100 100 100 100 100 100 73 100 100 100 100 100 100 100 100 99 6 23
98 98 97 91 84 91 100 100 100 100 100 90 86 98 6 3 77 100 100 100 100 100 100 100 94 100 100 100 100 100 100 100 100 93 96 95 100 100 100 100 100 100 56 97 98
100 72 100 100 62 94 99 85 100 100 94 100 93 10 0 0 10 93 100 100 100 100 100 100 100 100 100 67 100 100 100 100 100 100 100 100 100 100 100 100 100 100 100 94 95
99 31 20 99 100 100 50 83 100 100 100 100 100 93 6 0 8 100 100 100 99 100 100 100 100 100 100 100 100 100 100 100 68 99 100 100 100 100 100 100 100 100 100 100 99
96 17 99 100 100 100 100 57 99 100 95 87 100 95 100 93 56 100 100 100 100 100 100 100 100 100 100 100 100 100 100 100 100 100 84 61 97 100 100 100 100 100 100 100 100

GFSSW_prec_cloud_099.txt.gz
Cloud_Cover
100 100 100 100 100 100 100 100 78 93 91 8 5 3 4 5 5 12 86 100 88 100 100 4 0 0 0 0 0 0 0 0 0 0 3 4 29 5 34 21 5 0 0 0 0
100 100 100 100 100 100 100 58 69 5 92 45 5 5 1 7 15 33 82 100 100 60 4 3 0 0 0 0 0 0 0 0 0 0 34 84 100 94 73 5 5 5 3 0 0
99 96 100 100 100 99 100 100 98 99 99 100 99 84 14 59 98 100 100 100 100 58 5 3 0 0 0 0 0 0 0 0 2 0 0 13 5 5 3 5 31 7 5 1 0
100 99 100 100 100 100 100 100 100 100 100 67 94 29 48 18 84 100 100 100 86 90 62 19 0 3 0 0 0 0 2 0 0 2 0 0 4 100 25 86 100 99 5 3 0
55 9 5 27 96 100 100 100 100 100 100 100 100 100 97 58 100 54 100 100 100 100 100 100 45 3 0 1 3 0 0 0 3 3 1 0 2 5 100 24 100 100 5 0 0
78 90 100 31 55 94 98 100 100 100 99 100 100 100 100 100 100 100 100 100 100 100 100 100 89 18 3 13 2 7 3 0 1 5 0 0 0 0 100 5 99 100 100 3 0
100 100 100 100 100 100 100 100 100 97 98 100 100 99 100 100 100 100 100 100 100 100 100 100 100 96 5 13 83 99 1 0 54 5 5 0 0 18 100 5 60 100 9 5 0
95 95 33 39 17 86 94 85 37 5 33 5 57 36 99 92 97 100 80 100 100 100 100 100 100 69 99 99 99 8 1 4 46 1 0 35 0 79 96 9 96 100 79 44 0
100 100 100 82 16 70 50 21 92 5 5 41 3 0 62 17 7 100 97 100 100 100 100 100 100 100 100 98 53 94 91 2 0 0 5 61 0 5 92 5 100 100 100 100 0
100 95 100 100 100 96 100 42 92 18 55 50 5 12 11 39 5 5 49 100 100 100 100 100 100 99 100 100 100 98 1 0 0 5 99 4 3 21 88 5 83 100 100 100 57
5 5 46 93 34 98 100 21 90 8 94 6 5 5 4 5 5 5 16 5 28 100 100 100 86 97 100 100 100 6 5 0 0 5 90 2 15 18 95 18 72 100 100 100 8
38 41 93 85 92 59 60 36 97 29 48 82 25 74 9 2 1 62 1 5 17 64 96 100 100 100 100 100 100 78 4 8 0 5 100 8 0 7 70 100 44 50 100 100 33
89 22 77 12 13 11 23 30 95 94 2 69 21 32 11 0 5 49 0 5 6 86 90 76 92 100 100 100 100 72 5 4 4 5 17 16 0 4 47 100 37 5 89 100 100
5 5 5 3 2 1 22 100 100 99 70 1 2 3 0 5 9 44 10 2 5 9 100 30 45 84 91 50 11 0 0 4 24 96 9 100 11 0 16 100 87 5 60 99 5
2 3 4 5 5 0 39 100 100 52 46 0 0 0 0 0 0 5 38 5 7 5 18 42 91 12 5 6 3 0 6 8 69 6 5 89 19 5 17 100 100 64 41 100 10
5 5 4 2 5 9 75 100 7 90 41 0 0 0 0 0 0 0 0 2 5 47 36 21 63 44 64 30 1 20 72 90 83 46 23 83 76 33 100 100 100 95 8 100 98
3 2 0 5 0 77 100 73 80 73 0 0 0 1 0 0 0 0 0 0 0 2 100 100 100 100 6 4 2 5 43 89 79 58 3 99 83 100 100 100 100 100 5 90 100
5 4 0 5 48 89 98 100 96 0 0 0 43 99 100 20 40 1 0 0 0 0 5 5 23 100 99 8 5 5 95 69 15 3 51 100 39 100 100 88 100 100 100 55 100
5 6 4 33 100 18 100 100 0 0 0 69 1 96 44 65 98 96 10 5 19 2 0 0 2 97 16 15 19 10 31 25 100 100 67 85 73 100 100 100 100 100 99 46 100
43 10 3 69 100 100 100 16 2 0 11 26 3 2 29 100 83 4 30 2 6 40 72 3 0 2 0 96 36 92 86 90 99 100 79 99 100 100 100 81 100 98 100 98 100
16 64 32 6 36 100 86 11 2 0 82 99 19 97 100 80 9 70 99 5 100 37 100 45 0 67 12 12 69 100 100 73 77 100 100 100 100 100 100 100 100 100 100 100 100
53 96 5 80 92 100 67 5 0 0 5 7 76 5 100 36 61 81 100 100 95 100 100 78 3 91 96 63 100 100 100 100 100 100 100 100 100 100 100 100 100 100 100 100 99
98 33 26 100 100 56 5 5 3 0 4 8 98 2 50 5 7 100 99 100 96 100 100 100 4 39 100 100 100 100 100 100 97 100 100 100 100 100 100 96 100 100 100 100 100
100 96 18 80 95 92 100 100 40 0 5 6 82 75 0 36 96 58 100 100 100 93 100 99 5 14 100 100 100 100 100 94 99 100 100 100 100 100 100 100 100 100 100 100 100
100 53 73 81 99 100 85 43 100 90 10 12 6 4 0 3 40 5 97 70 97 29 100 98 89 99 100 100 100 100 80 85 100 100 100 100 100 100 100 100 100 100 100 100 100
100 71 14 57 100 99 85 100 88 100 100 100 4 0 0 2 4 4 5 32 5 75 58 5 0 100 100 100 100 100 100 100 100 100 100 100 100 100 100 100 100 100 100 100 81
72 64 84 13 5 46 75 100 72 5 66 62 99 18 13 25 3 0 0 0 0 4 100 5 3 99 100 100 100 94 100 100 100 100 100 100 100 100 100 100 100 100 100 100 98

GFSSW_prec_cloud_102.txt.gz
Cloud_Cover
100 100 100 100 100 100 100 100 100 100 100 98 99 75 95 100 100 70 27 6 4 5 5 4 11 6 100 72 5 0 0 0 0 0 0 0 0 0 0 57 7 5 5 5 5
100 95 100 100 100 100 100 100 100 100 100 100 44 97 95 72 64 74 35 5 4 1 5 33 100 62 100 85 3 0 0 0 0 0 0 0 0 0 0 5 81 95 5 0 5
99 53 100 100 100 83 100 100 100 100 100 100 62 100 90 5 92 98 17 5 81 17 51 78 100 100 73 60 0 4 5 0 0 0 0 0 0 0 1 0 4 4 4 1 10
5 5 63 66 100 100 100 100 100 100 100 100 100 100 100 64 80 94 16 98 98 81 42 21 9 100 100 51 100 94 6 1 0 0 0 0 1 0 1 0 0 0 5 17 100
55 26 5 5 96 100 87 100 100 100 98 100 100 100 100 100 100 100 100 97 95 66 97 100 100 100 100 100 17 100 74 0 0 0 13 0 5 2 1 1 0 0 0 7 99
34 24 42 94 91 100 81 94 100 100 96 100 100 100 100 100 42 97 100 100 100 90 77 100 100 100 100 100 100 100 5 11 2 1 100 60 0 4 27 5 0 0 0 1 52
47 8 59 99 84 13 43 100 100 81 65 44 71 92 100 100 96 20 71 100 100 100 100 100 100 100 100 100 100 100 14 6 86 95 64 66 3 5 5 2 0 0 1 3 91
99 99 72 11 41 5 73 100 100 51 35 7 5 81 90 79 99 100 88 100 96 87 99 100 100 100 100 100 100 100 100 100 99 98 84 13 2 5 0 0 0 0 5 33 7
100 100 100 100 100 80 100 100 100 100 100 96 60 45 13 68 5 5 6 34 52 99 100 98 100 100 100 100 100 100 100 99 85 93 98 48 0 3 3 2 1 0 0 5 38
100 100 100 100 100 100 100 100 74 100 100 80 100 33 37 5 5 6 4 0 1 0 0 4 38 95 52 100 100 100 97 77 28 100 76 68 0 0 3 4 0 0 5 11 5
100 100 100 100 100 70 5 43 100 56 99 100 100 23 85 34 79 13 55 4 0 4 3 5 0 4 98 100 100 100 91 39 100 100 95 54 5 0 3 5 0 2 30 18 8
100 100 100 100 100 66 21 13 85 40 20 5 48 30 62 84 15 81 6 1 4 0 1 0 0 41 86 51 96 9 5 17 100 100 68 12 3 18 5 46 10 0 63 63 27
100 100 100 100 100 100 100 94 42 94 65 43 48 61 89 46 4 55 30 7 10 5 1 0 1 4 0 5 6 94 98 99 96 100 5 5 5 70 94 11 56 31 100 97 95
100 90 100 76 98 100 100 43 88 80 24 0 5 14 54 100 81 86 100 9 1 1 5 0 0 3 3 4 25 7 96 89 99 100 100 99 10 6 32 3 43 4 99 81 100
100 100 98 94 16 68 43 5 78 96 63 0 0 2 3 76 53 34 100 5 6 69 6 0 3 0 0 1 98 23 100 90 24 5 0 3 4 96 32 0 6 5 98 90 96
35 79 24 5 2 0 0 3 42 77 56 0 0 0 0 0 2 4 5 11 0 3 2 5 5 4 0 1 5 34 75 8 12 5 5 28 3 5 18 15 26 5 99 100 84
0 2 14 64 14 0 5 30 87 94 0 0 0 100 79 17 0 0 0 0 0 0 0 4 0 0 0 0 4 10 49 83 82 81 15 69 1 2 1 49 1 29 99 100 99
5 5 5 5 0 4 95 100 100 2 0 0 0 6 0 0 2 0 0 0 0 0 0 0 0 0 0 0 11 46 35 17 27 5 5 3 0 5 3 5 55 91 100 100 100
4 22 9 0 1 5 90 100 100 100 94 100 1 73 28 20 83 96 14 16 5 0 0 0 0 0 0 0 0 5 28 89 100 7 1 4 1 0 71 83 80 99 89 100 100
100 64 6 0 1 58 100 91 100 100 6 100 86 100 100 100 100 100 97 93 100 10 18 5 1 0 0 0 0 0 19 63 17 16 6 4 0 1 17 100 100 100 100 100 100
17 72 2 5 13 92 98 27 4 3 0 3 100 100 100 100 100 100 100 100 100 100 43 83 21 0 0 0 0 0 2 100 97 61 2 3 2 59 79 100 100 100 82 65 73
96 95 5 78 100 88 100 100 73 0 0 3 100 100 100 100 100 100 100 100 38 100 100 61 77 8 21 87 10 4 66 100 24 12 44 57 4 38 97 100 100 100 92 100 64
100 18 1 26 58 100 94 72 48 6 5 8 100 99 82 94 82 99 86 14 65 39 90 100 73 81 34 100 83 100 100 100 76 94 12 76 87 98 100 100 100 100 100 100 18
83 91 16 99 100 100 100 92 75 100 3 94 64 6 100 100 100 88 89 89 100 52 74 100 100 100 66 99 93 100 100 91 52 82 84 67 100 100 100 100 100 100 100 100 97
98 94 17 35 97 100 59 100 100 100 76 79 98 70 5 14 95 98 39 13 100 100 100 100 100 84 100 100 100 100 100 100 100 100 60 100 100 100 100 100 100 100 100 100 100
100 98 96 48 20 100 77 100 100 100 100 98 50 2 0 0 1 5 1 0 100 100 100 100 100 100 99 86 100 100 100 100 100 100 100 100 100 100 100 100 100 99 99 100 100
90 96 98 51 5 61 83 11 89 100 96 100 100 68 38 4 0 5 2 0 57 100 100 100 100 100 100 93 95 100 100 100 100 100 100 100 100 100 100 100 100 100 100 100 100

GFSSW_prec_cloud_105.txt.gz
Cloud_Cover
38 100 100 100 100 100 100 100 100 100 100 100 100 100 100 100 100 100 100 100 100 100 100 80 14 5 0 0 0 0 0 88 79 9 0 0 0 0 0 0 0 0 0 0 25
5 76 100 100 100 100 100 100 100 100 100 100 100 100 100 100 100 100 100 100 100 100 100 100 96 75 5 3 0 0 0 62 100 84 2 2 0 0 0 0 0 0 0 0 0
58 66 6 77 90 100 100 100 100 100 100 100 100 100 100 100 100 100 100 100 100 100 100 99 27 5 4 4 4 1 0 2 99 73 76 100 3 0 0 0 0 0 0 0 0
6 97 100 59 56 6 5 44 100 100 100 100 100 100 100 100 100 100 100 100 100 92 50 16 8 5 4 3 2 0 0 43 99 78 87 100 94 0 0 0 0 0 0 0 0
57 54 70 100 44 32 48 28 44 10 13 100 100 100 100 100 100 92 100 100 100 100 93 92 5 5 22 3 0 0 7 92 84 26 100 100 100 0 0 0 0 0 0 3 0
100 100 100 100 100 99 98 92 66 68 20 11 46 100 100 100 100 100 100 100 100 100 100 84 100 82 24 15 33 97 6 92 8 87 100 100 30 0 32 0 0 0 4 2 0
100 100 100 100 100 100 100 100 64 11 98 46 14 40 94 100 100 100 100 100 100 100 100 100 100 100 100 96 85 67 35 62 100 100 100 69 13 6 0 0 0 5 24 4 5
100 100 100 100 100 100 100 100 100 100 100 14 48 24 57 100 97 100 100 100 100 100 100 100 100 90 5 98 100 100 100 100 98 100 100 69 21 19 4 0 0 5 6 5 5
100 100 100 100 100 100 100 100 100 100 100 100 24 88 86 100 94 94 99 100 96 79 100 100 100 100 62 91 5 14 100 100 100 100 100 31 1 100 5 0 1 5 96 23 46
100 100 100 100 100 100 100 100 100 100 100 100 100 98 20 34 100 100 93 100 43 10 22 8 9 16 59 36 100 100 88 97 100 100 57 76 18 5 53 0 5 6 100 87 100
100 100 100 100 100 99 95 100 100 100 96 100 100 86 43 46 5 24 100 100 97 83 51 99 3 0 0 2 3 0 0 0 12 100 100 91 1 3 0 3 5 99 64 100 100
100 100 100 76 100 86 52 81 97 100 71 82 75 99 100 99 4 61 32 86 100 98 82 24 1 3 0 0 0 0 0 1 14 100 100 99 0 0 0 5 5 79 90 100 87
100 100 100 100 97 94 100 100 100 99 44 98 100 91 100 91 11 13 50 83 89 96 12 7 27 5 2 1 0 0 3 7 16 100 76 3 0 4 5 5 5 6 86 100 20
100 100 100 100 100 100 80 31 78 100 46 1 71 91 100 80 1 100 100 5 48 17 51 5 5 5 14 5 3 0 3 5 2 7 3 83 0 5 15 98 99 100 78 28 1
94 94 31 5 79 2 6 2 5 93 95 0 0 0 0 29 94 25 100 86 6 63 100 7 92 100 100 93 84 3 0 0 0 1 0 3 2 65 100 100 100 30 5 19 5
5 5 6 38 69 3 3 0 4 20 56 0 0 0 17 1 0 1 28 87 14 59 37 100 100 100 70 100 94 52 2 0 0 2 0 5 7 13 99 97 10 5 15 22 0
5 2 15 23 7 0 1 4 47 62 0 0 0 0 71 15 0 5 33 0 0 0 1 89 92 100 100 100 100 18 31 24 4 0 0 47 84 90 16 51 6 4 17 8 0
0 0 0 0 0 5 5 100 94 5 64 48 72 0 5 96 21 14 63 4 0 1 0 0 2 7 100 100 100 100 100 95 5 0 4 10 1 5 47 100 59 5 10 0 0
2 0 0 0 0 0 55 95 21 34 98 100 98 100 6 77 97 100 100 92 68 11 2 0 0 0 4 81 46 96 98 93 5 5 4 0 0 4 38 14 5 11 4 0 5
83 7 4 4 0 3 100 60 14 59 100 100 90 100 78 87 92 61 96 86 100 57 5 5 0 0 0 0 0 12 28 4 3 5 9 3 0 5 97 45 89 100 12 5 26
5 10 9 5 54 80 88 5 47 100 100 84 78 100 100 100 100 94 98 100 86 100 33 5 5 0 0 0 0 0 0 1 65 76 5 4 4 94 99 100 32 81 57 91 100
5 77 27 6 58 69 95 25 6 62 81 61 91 100 100 100 100 100 100 100 100 100 100 32 6 5 0 0 0 0 0 0 5 8 5 5 39 100 80 6 5 7 99 100 100
55 69 19 51 89 80 86 55 32 5 83 36 44 100 100 100 100 100 100 100 100 100 100 100 66 5 1 1 42 18 1 0 0 1 5 23 5 70 29 5 5 97 100 95 100
47 87 7 79 100 87 93 5 5 85 86 98 16 99 100 100 100 100 100 100 100 100 100 100 100 99 98 69 48 93 48 3 0 26 25 100 70 53 77 100 91 96 100 100 100
60 89 83 92 100 97 60 5 22 79 86 94 63 89 100 100 100 100 100 100 100 100 100 98 80 100 93 99 100 100 30 90 79 8 6 71 11 32 88 100 11 100 100 100 100
98 73 96 21 5 9 89 82 35 100 100 100 97 27 91 100 98 99 100 100 100 100 100 32 100 100 100 100 100 99 100 75 6 28 72 50 92 100 99 100 100 100 100 100 100
94 75 94 9 5 16 23 7 87 63 100 100 91 5 5 17 62 11 91 38 79 76 12 34 100 100 100 100 100 100 100 100 100 100 100 100 100 100 100 100 100 100 100 100 100

GFSSW_prec_cloud_108.txt.gz
Cloud_Cover
6 97 17 46 41 100 100 100 100 100 100 100 100 100 100 100 100 100 100 100 100 100 100 100 100 100 96 100 96 81 5 5 4 5 0 0 0 0 1 0 0 0 0 0 0
0 0 12 24 5 7 78 100 100 100 100 100 100 100 100 100 100 100 100 100 100 100 100 100 100 98 97 100 100 64 10 9 5 1 0 0 0 0 0 44 18 0 0 0 0
5 4 5 5 1 2 5 5 29 100 100 100 100 100 100 100 100 100 100 100 100 100 100 100 100 100 100 99 100 99 21 32 17 4 0 0 0 0 2 92 22 5 0 0 0
5 5 5 5 5 10 7 5 14 11 93 100 100 100 100 100 100 100 100 100 100 100 100 100 96 94 100 100 100 97 7 26 91 5 0 0 0 0 1 100 8 9 4 0 0
5 5 5 18 94 98 99 100 99 86 100 19 99 100 100 100 100 100 100 100 100 100 100 100 100 100 98 19 13 5 39 5 5 1 5 0 59 76 5 87 0 5 5 0 0
5 5 5 29 100 100 99 100 49 15 96 87 82 100 96 100 100 100 100 100 100 100 100 100 100 100 59 76 5 13 5 5 6 28 64 86 100 1 22 2 0 3 8 4 0
5 5 37 100 100 100 100 100 91 100 100 50 79 100 100 100 97 68 19 100 100 100 100 100 100 100 100 100 57 57 58 64 99 71 100 100 3 32 100 2 0 0 60 7 5
5 5 5 97 100 100 100 100 100 100 100 100 47 20 96 100 100 100 100 99 50 88 100 100 100 100 100 100 100 100 70 100 97 100 100 100 6 96 92 2 0 36 8 4 5
5 18 67 100 94 91 99 100 100 100 100 100 93 90 48 100 100 100 100 100 100 100 75 100 64 99 100 76 83 57 100 100 100 100 100 100 5 74 86 65 67 79 35 4 5
22 99 99 99 67 50 91 100 100 100 100 100 100 100 99 100 100 100 100 100 92 84 91 100 100 68 40 14 29 100 95 100 100 100 12 3 75 100 100 75 31 4 9 2 5
85 87 70 50 83 8 87 80 100 100 100 100 59 100 100 100 100 100 100 100 100 100 100 100 100 2 5 99 99 40 5 5 63 36 69 89 74 2 2 4 0 0 1 3 0
79 100 100 100 100 87 100 100 91 100 100 100 100 100 100 100 20 93 100 94 100 100 100 88 7 13 66 12 5 5 5 17 7 6 14 59 3 0 0 4 29 5 8 5 5
11 74 73 100 65 100 100 100 100 65 98 100 100 100 100 75 96 89 100 65 30 100 100 100 5 8 6 98 94 54 28 15 21 5 12 4 4 0 2 5 19 100 100 39 5
48 99 86 72 5 14 57 98 31 15 52 7 54 78 100 100 34 5 98 100 86 24 100 86 58 12 100 46 99 100 100 100 100 6 5 3 1 0 4 48 58 100 100 3 0
98 5 5 6 91 9 3 0 0 5 0 0 0 0 0 43 62 99 100 92 0 73 100 2 2 49 80 95 100 98 100 100 100 65 5 0 0 87 94 69 100 99 5 3 0
6 6 23 15 34 3 0 0 0 4 13 0 0 0 0 0 0 0 3 40 8 5 30 5 5 5 5 5 43 66 42 89 98 19 0 1 4 1 33 72 88 6 5 4 5
20 6 5 5 10 2 0 0 1 2 0 0 1 0 0 3 0 2 4 2 8 2 5 61 73 100 100 99 93 100 91 32 100 98 12 89 77 0 9 32 4 4 1 2 5
75 5 5 5 0 5 0 5 40 0 0 0 18 0 55 9 5 4 24 7 100 100 77 19 1 39 3 93 99 100 100 100 100 100 97 70 11 2 5 2 5 55 6 13 5
96 5 5 5 0 0 4 36 3 0 0 3 7 97 63 100 100 100 91 100 100 100 100 98 8 0 4 5 33 100 92 100 100 100 98 77 5 5 6 5 5 5 5 5 5
16 5 5 5 1 3 10 12 2 4 16 55 94 70 100 96 100 100 100 100 100 100 88 66 5 3 0 14 0 1 76 100 100 100 88 70 99 100 100 96 1 1 4 5 5
10 5 34 5 5 13 47 5 20 5 22 31 22 96 100 82 100 100 100 100 100 100 100 98 5 1 3 94 39 0 0 1 2 4 14 100 100 100 100 100 5 1 5 53 8
10 5 100 7 13 94 95 83 40 5 7 29 58 99 99 100 100 100 100 100 100 100 100 100 98 3 3 6 1 5 4 0 5 5 3 6 79 100 100 100 78 0 5 14 76
6 10 13 83 63 46 7 6 21 33 5 96 44 100 100 100 100 100 100 100 100 100 100 100 87 37 77 2 95 90 20 0 0 0 0 16 92 22 50 93 2 2 5 28 100
26 37 35 100 98 100 73 5 4 73 42 77 17 100 100 100 100 100 100 100 100 100 100 100 100 100 74 75 82 65 76 80 0 1 0 0 0 5 3 4 1 1 14 27 99
49 36 56 84 81 92 50 5 4 4 69 22 56 100 100 100 100 100 100 100 100 100 100 100 100 100 100 88 98 100 100 84 56 0 0 0 0 1 0 42 20 60 100 63 99
98 49 100 99 6 5 7 5 5 5 5 6 35 82 100 100 100 100 100 100 100 100 100 100 100 100 100 99 54 71 100 100 100 80 5 4 2 2 0 5 97 100 100 98 100
38 95 96 8 5 17 4 5 3 13 74 5 63 69 98 100 100 100 100 100 100 100 100 100 100 100 100 100 90 18 30 100 100 100 72 15 10 15 13 34 90 100 100 87 100

GFSSW_prec_cloud_111.txt.gz
Cloud_Cover
98 93 31 0 0 0 0 0 2 3 65 39 91 100 100 100 100 100 100 100 92 100 100 100 100 100 100 100 100 100 97 100 100 100 19 0 0 0 0 0 0 0 0 0 5
0 2 0 0 0 0 0 0 1 3 0 4 23 96 100 100 100 100 100 100 100 100 100 100 100 100 100 100 100 94 86 100 100 100 42 0 0 0 1 1 0 0 0 0 6
68 5 21 1 0 0 0 0 0 0 0 0 0 4 36 100 100 100 100 100 100 100 100 100 100 100 93 90 97 100 99 100 100 100 89 5 1 0 5 0 0 0 0 0 5
60 90 25 99 9 22 6 2 0 0 1 2 1 7 4 94 100 100 100 100 100 100 100 100 100 100 100 100 100 100 100 100 100 100 41 6 4 5 5 5 5 0 0 0 0
45 89 79 40 22 25 6 5 0 0 1 2 8 100 67 89 95 89 100 100 100 100 100 100 100 100 100 100 100 100 100 100 100 100 100 96 56 15 5 6 5 0 0 5 0
22 5 5 2 20 58 27 0 1 5 5 5 39 98 88 100 100 100 54 100 100 100 100 100 100 100 100 100 72 93 98 100 73 21 79 98 100 5 29 18 0 0 1 5 5
5 5 2 0 0 0 0 0 0 5 5 39 34 99 100 100 100 100 98 100 100 100 100 100 100 52 50 100 100 99 93 87 28 94 81 98 76 26 19 49 2 0 1 6 9
47 5 0 0 0 0 0 0 0 0 2 82 47 65 100 100 100 100 100 100 100 100 100 100 100 98 95 100 98 94 27 94 100 100 100 100 18 20 97 94 2 0 4 1 5
66 3 0 0 0 0 0 5 5 3 5 73 99 100 91 100 100 100 100 100 100 100 100 100 100 100 100 82 97 34 98 100 100 100 100 100 59 98 87 5 0 1 0 2 4
0 0 0 0 0 0 5 5 5 5 14 5 81 100 97 94 100 100 100 100 100 100 100 100 100 35 24 44 16 89 100 68 100 100 100 100 100 100 100 91 96 5 5 4 20
27 5 5 0 0 2 5 5 100 92 100 100 62 66 100 99 22 100 100 100 100 100 100 100 100 9 5 99 93 19 5 5 5 12 5 8 98 100 100 99 35 74 8 16 9
99 5 3 0 5 5 1 1 58 58 79 100 100 27 14 100 100 98 100 100 100 100 100 94 72 99 100 99 77 8 5 12 65 94 33 35 32 37 95 79 84 10 16 48 12
96 5 5 5 5 2 1 5 2 4 91 43 82 100 100 66 16 94 100 100 100 100 100 100 100 100 100 100 100 94 20 20 60 100 87 3 48 67 9 5 14 18 46 6 5
80 5 5 5 4 0 0 2 5 5 0 0 0 4 12 100 100 60 14 60 100 100 100 100 94 98 100 84 100 59 88 98 100 97 10 28 0 3 5 5 43 26 50 95 77
5 6 30 5 4 0 0 0 2 5 0 0 0 0 0 0 0 4 97 84 0 60 100 7 76 100 49 98 100 100 100 100 100 86 5 5 2 5 13 41 5 75 100 100 92
35 14 5 2 0 0 0 2 0 0 0 0 0 0 0 0 0 4 2 0 2 4 0 1 6 11 100 89 18 54 100 92 7 5 0 5 5 5 41 100 100 45 69 100 96
6 5 7 3 5 3 0 5 5 0 0 0 0 0 0 0 0 3 5 5 10 3 0 0 0 1 70 77 5 36 94 100 91 5 5 45 5 49 100 100 100 100 74 16 5
18 5 5 5 66 80 5 5 0 0 0 0 0 0 2 0 0 0 43 66 6 46 28 17 0 5 6 67 28 87 99 100 99 34 6 62 5 21 94 98 99 93 62 10 5
95 58 5 6 100 98 5 3 0 0 1 6 3 2 0 76 16 90 100 100 100 100 100 73 6 11 1 57 60 51 29 52 100 100 14 5 6 31 45 89 6 80 29 100 11
100 59 5 25 100 42 5 2 0 5 5 12 94 6 6 4 84 100 100 100 100 100 100 93 64 84 5 0 22 5 63 100 59 55 15 7 11 100 100 43 5 100 100 97 100
100 49 33 17 5 6 5 5 4 3 32 21 47 88 59 88 100 100 100 100 100 100 100 100 99 7 5 1 0 0 2 28 81 8 15 100 60 100 100 100 10 7 6 10 100
100 8 100 94 10 67 52 5 5 5 6 81 42 9 99 88 100 100 100 100 100 100 100 100 98 100 0 88 87 90 1 1 7 9 5 7 100 100 100 100 100 96 90 52 99
99 24 66 58 7 40 6 5 5 5 5 86 84 99 10 60 87 100 100 100 100 100 100 100 100 100 80 36 100 100 73 4 0 0 0 0 2 22 97 100 100 100 100 55 11
100 100 100 100 91 100 74 21 4 4 5 35 97 100 29 100 24 100 100 100 100 100 100 100 100 100 100 13 75 100 100 68 2 0 0 0 0 0 24 100 70 100 89 85 26
100 100 99 84 92 60 7 5 5 5 0 5 8 88 91 84 100 100 100 100 100 100 100 100 100 100 100 93 68 97 100 100 100 47 0 0 0 0 4 5 6 32 6 5 62
100 100 97 77 15 5 5 3 2 3 5 5 20 5 100 73 100 100 100 100 100 100 100 100 100 100 100 100 99 99 100 100 100 100 99 0 0 0 0 0 12 5 5 15 54
99 32 5 5 5 15 3 2 5 3 0 5 3 17 23 70 100 100 100 100 100 100 100 100 100 100 100 99 100 100 100 100 100 100 61 78 2 85 99 87 71 11 26 43 90

GFSSW_prec_cloud_114.txt.gz
Cloud_Cover
6 3 6 2 4 1 1 0 0 0 0 0 0 0 4 92 24 5 100 100 100 100 100 100 100 100 100 100 100 100 76 99 100 100 5 0 2 5 12 15 5 1 0 0 0
5 5 5 14 5 5 5 4 3 1 4 1 0 0 0 0 5 78 22 59 100 100 100 100 100 100 100 100 100 100 100 100 100 100 100 76 20 100 100 59 25 5 0 0 0
5 6 6 5 5 5 5 7 100 100 9 6 5 0 0 0 0 0 8 92 22 100 63 100 100 100 100 100 78 100 93 100 100 100 100 88 9 15 13 34 100 5 0 0 0
6 7 14 5 5 4 4 5 0 13 32 16 49 5 3 3 1 0 2 5 56 96 66 97 98 100 100 100 100 100 100 100 100 100 100 100 100 89 56 48 55 5 0 0 0
93 50 100 67 8 5 4 5 5 2 0 1 3 3 0 4 14 5 5 7 89 22 79 86 96 93 100 100 100 100 100 100 100 100 100 100 100 100 100 100 100 23 0 0 0
95 62 64 41 31 5 5 5 5 0 0 0 3 0 0 0 3 5 5 5 52 100 100 98 84 45 74 95 100 100 76 79 100 100 100 100 100 96 43 99 89 83 63 2 0
82 67 100 78 47 5 19 5 3 0 0 0 0 0 0 0 6 39 97 66 5 98 100 100 95 88 54 100 100 100 100 100 100 66 70 98 99 99 100 62 5 5 0 0 0
100 100 97 97 30 16 5 4 0 0 0 0 0 0 0 0 0 70 100 100 100 100 100 100 100 100 100 100 100 100 100 100 100 100 100 100 46 100 39 8 5 0 0 0 0
100 42 36 31 8 5 5 3 0 0 0 0 0 2 1 0 1 100 100 100 80 100 99 100 100 100 100 100 87 100 100 100 100 100 100 100 100 100 68 48 5 0 0 4 5
100 90 5 5 5 5 4 5 0 0 0 0 0 0 58 86 41 27 100 100 100 100 100 100 100 100 100 100 84 100 100 100 100 100 100 98 100 100 100 99 47 4 4 5 24
100 67 5 5 5 5 5 0 1 2 0 0 0 0 4 72 100 86 62 100 100 100 100 100 100 12 100 100 100 100 100 100 100 100 100 89 87 100 89 100 100 100 100 88 45
100 21 5 5 6 75 5 4 3 0 0 0 0 5 8 5 36 79 100 32 100 100 100 100 98 100 100 100 100 100 100 100 100 100 65 100 99 82 48 82 92 54 74 100 100
6 5 47 83 71 5 5 6 5 5 2 0 0 0 15 56 41 85 35 16 6 98 100 100 100 100 75 64 96 100 100 96 100 100 32 74 28 100 71 34 81 35 16 8 68
96 100 84 6 19 29 5 5 0 5 0 0 0 0 0 0 0 0 20 23 4 3 69 64 99 100 100 100 90 60 100 100 100 100 6 99 16 11 7 14 5 5 39 99 100
100 100 100 11 5 5 4 0 1 6 0 0 0 0 0 0 0 0 0 0 0 0 2 0 5 40 100 100 100 100 100 100 100 100 100 41 37 50 8 100 32 5 44 26 64
100 100 5 5 5 5 4 5 4 0 4 4 2 0 0 0 0 0 0 4 14 17 0 1 1 0 2 100 100 100 100 100 86 18 5 66 35 4 91 92 97 41 28 9 89
100 97 5 5 5 4 5 5 0 2 1 0 1 0 0 0 0 0 3 26 92 93 90 66 3 0 0 0 48 94 100 100 100 79 28 99 38 60 5 56 95 90 56 40 18
42 5 5 12 5 5 5 5 0 0 0 0 0 0 0 0 0 0 5 53 100 100 98 100 30 98 0 0 0 5 24 100 100 61 90 100 100 97 32 5 5 69 84 88 51
68 24 46 5 5 5 5 5 0 0 0 5 0 0 0 5 5 54 5 76 100 100 100 100 86 30 90 0 0 0 5 7 98 98 83 9 5 21 98 11 5 3 5 91 100
65 18 23 29 5 5 5 5 1 1 5 5 5 5 5 5 8 80 28 86 100 100 100 100 76 47 96 45 3 0 4 36 53 61 5 5 5 5 8 5 5 5 47 73 85
87 14 42 8 5 5 10 14 1 5 5 24 54 83 89 93 98 100 82 96 100 100 100 100 100 100 84 100 61 0 12 34 5 10 69 99 34 99 78 6 5 5 5 56 99
80 92 48 76 11 31 66 6 2 24 5 86 86 99 100 100 75 100 100 82 100 100 100 100 100 100 100 98 7 13 21 36 8 5 5 86 91 31 59 51 5 5 43 34 99
96 58 99 62 69 100 11 5 64 100 5 96 94 96 80 99 96 95 100 92 100 100 100 100 100 100 95 96 100 71 84 100 100 100 94 5 11 12 79 100 90 36 100 100 100
71 75 74 85 100 95 42 39 100 29 2 51 64 68 76 7 81 86 100 98 100 100 100 100 100 100 100 100 100 100 100 33 92 100 13 99 92 100 12 5 67 100 100 100 100
98 41 87 98 100 80 92 100 56 5 2 1 29 88 77 76 5 18 100 100 89 100 100 100 100 100 100 100 100 100 100 100 88 49 100 7 5 87 14 29 64 75 100 100 100
86 100 100 100 98 100 100 45 5 22 4 4 28 93 5 33 99 96 100 98 100 100 100 100 100 100 100 99 100 100 100 100 100 100 98 32 4 100 100 34 94 27 37 41 70
92 84 100 100 100 100 66 4 6 6 3 10 85 5 5 5 5 4 100 96 100 100 100 100 100 100 100 100 100 100 100 100 100 100 100 100 95 0 0 2 57 100 100 63 19

GFSSW_prec_cloud_117.txt.gz
Cloud_Cover
5 8 5 6 5 5 5 5 5 0 0 0 0 0 0 0 0 0 0 0 0 2 97 83 93 76 98 100 100 100 100 100 100 100 100 68 54 7 4 0 5 5 5 0 5
5 35 5 5 5 3 5 5 5 5 0 0 0 0 0 3 0 1 0 0 0 0 0 14 99 99 96 100 100 100 100 100 100 100 100 26 5 5 0 0 5 48 98 91 74
5 99 92 8 27 47 5 5 18 5 5 5 0 0 0 0 0 0 8 3 0 0 0 0 0 48 99 87 100 100 100 100 100 100 100 100 100 56 4 6 100 100 100 100 99
5 21 98 98 71 90 6 37 54 62 5 3 0 0 0 0 0 0 0 0 0 0 0 0 0 0 0 96 100 100 100 100 100 100 100 100 70 8 76 100 100 100 100 56 94
6 8 22 100 100 100 100 100 100 59 5 5 8 5 4 5 0 0 0 0 0 4 2 5 25 6 3 5 75 100 100 95 100 100 100 100 93 75 10 69 100 100 100 100 100
100 100 100 97 100 100 100 100 100 100 100 25 5 5 5 4 0 0 0 0 0 0 0 4 65 100 5 6 36 32 100 100 98 99 100 100 100 100 100 100 95 100 100 100 100
100 100 100 100 100 100 94 100 100 55 5 5 5 2 0 0 0 0 0 0 0 0 0 4 34 67 100 95 99 58 55 100 100 100 100 100 100 100 100 100 96 100 100 36 89
100 100 100 100 100 100 100 100 100 53 5 5 5 4 0 0 0 0 0 0 0 0 0 7 99 100 68 100 81 98 92 5 100 100 100 100 94 100 100 100 100 82 16 7 36
100 100 100 100 100 100 100 100 100 100 33 92 4 0 0 0 0 0 0 0 0 0 2 90 82 100 100 98 79 23 46 80 90 100 100 100 100 100 100 100 55 68 15 1 5
100 100 100 100 100 100 100 100 100 100 5 5 3 0 0 0 0 0 0 0 0 5 0 100 100 100 100 100 98 98 100 100 100 100 100 100 100 100 100 100 100 100 82 5 4
100 100 100 100 100 100 100 100 92 80 2 0 0 0 0 0 0 0 0 0 0 4 5 5 100 100 100 100 100 100 100 100 100 100 100 29 100 100 100 100 100 100 87 52 13
100 100 100 100 100 100 100 72 13 0 0 2 3 0 0 0 0 0 0 0 0 0 4 43 0 100 100 100 100 100 99 99 100 100 100 98 88 100 100 100 100 100 100 100 100
100 100 100 100 100 92 80 10 12 3 5 3 0 0 0 0 0 0 0 0 0 4 1 0 1 56 100 100 100 100 100 100 100 100 100 100 24 77 100 100 99 100 64 89 100
100 100 100 83 100 95 55 5 8 21 16 2 4 0 0 0 0 0 0 0 0 0 0 0 0 0 37 100 100 100 100 100 100 100 100 100 82 100 97 99 83 100 100 68 5
100 100 100 64 36 18 99 100 96 49 6 2 0 0 0 0 0 0 0 0 2 55 54 0 7 5 3 4 100 100 100 100 100 100 100 100 89 100 100 100 43 47 100 100 93
100 100 100 100 100 100 99 100 81 20 1 0 0 0 0 0 0 0 0 2 3 28 62 80 61 92 20 24 80 92 100 100 100 88 100 100 98 100 100 100 98 13 97 100 100
100 100 100 100 92 100 5 56 5 5 2 1 0 0 0 0 0 0 0 24 53 34 1 0 84 99 100 89 88 83 18 100 100 100 6 100 100 98 100 100 100 80 97 100 100
98 100 86 100 20 6 5 5 5 5 5 0 0 0 0 0 0 2 69 100 100 66 32 100 2 92 100 100 100 100 100 20 100 100 88 93 78 100 100 100 100 100 100 74 48
100 96 44 32 5 5 5 5 5 4 0 2 0 0 0 2 0 5 92 35 99 96 89 51 92 94 100 24 75 100 100 26 100 100 100 100 100 100 100 100 35 94 100 100 33
100 100 99 60 39 9 5 5 5 0 0 0 0 0 0 5 4 5 50 19 100 100 100 88 99 42 57 36 25 99 100 95 100 100 100 100 100 100 100 100 100 100 100 100 100
100 100 100 100 57 6 5 7 1 0 5 2 0 4 5 5 5 27 56 14 100 100 100 100 100 100 100 100 100 100 100 100 100 100 100 90 100 100 100 100 100 100 100 100 100
100 26 100 100 75 49 5 5 5 3 5 5 5 8 88 81 5 59 56 99 100 100 100 100 99 100 100 100 100 97 100 100 100 100 100 100 46 100 100 100 100 100 100 100 100
50 34 98 81 98 15 5 5 5 5 5 5 87 99 99 93 50 100 100 100 99 100 100 100 100 100 97 100 100 93 100 100 100 100 100 100 93 28 100 98 75 100 22 67 93
44 77 84 66 20 62 5 8 5 5 5 5 20 22 100 60 36 100 100 90 96 100 91 100 99 100 100 100 100 100 96 90 100 100 100 100 100 95 61 84 14 100 40 77 58
100 96 64 94 85 68 51 5 8 35 6 43 5 97 100 56 5 77 59 3 91 100 100 100 100 100 96 100 100 100 100 100 50 71 96 98 100 88 50 20 10 100 100 98 100
100 100 64 75 95 66 68 71 96 53 5 5 96 9 99 66 95 96 18 3 19 99 100 100 100 89 88 100 100 100 100 100 100 40 99 16 80 100 35 100 9 72 100 98 100
100 100 100 100 97 30 67 100 100 71 55 5 5 5 5 5 5 5 1 0 52 86 100 100 100 100 92 100 100 100 100 100 100 100 2 74 90 76 34 30 100 100 90 100 100

GFSSW_prec_cloud_120.txt.gz
Cloud_Cover
1 2 1 5 5 1 3 5 5 5 2 0 0 0 0 0 0 0 0 0 0 0 0 0 0 0 0 0 93 100 94 2 92 100 100 100 100 8 3 71 16 0 20 10 1
5 5 4 4 5 5 5 5 5 5 5 5 4 5 3 1 0 1 0 0 0 0 0 0 0 0 0 0 0 27 97 100 62 82 100 100 100 35 1 62 5 15 100 83 5
5 5 5 5 5 5 5 5 20 34 97 38 51 98 90 13 3 5 5 2 4 0 0 0 0 0 0 0 0 0 0 100 100 82 72 100 100 98 93 92 92 98 11 22 4
99 92 100 91 78 44 5 5 38 80 100 100 100 100 100 84 89 18 5 0 0 1 0 0 0 0 0 0 0 1 0 3 98 100 99 33 100 100 100 84 64 63 19 94 72
100 93 100 99 95 100 99 100 100 100 100 100 100 91 40 10 4 2 5 5 5 5 0 0 0 0 0 0 0 0 3 2 4 98 100 100 100 100 100 100 100 100 100 100 100
100 100 100 100 100 100 100 100 100 100 100 100 78 100 92 82 20 28 25 5 5 5 3 0 0 0 0 0 0 0 4 11 33 5 56 100 100 100 100 100 100 100 100 72 92
100 100 100 100 100 100 100 100 100 100 100 100 100 100 100 99 68 64 87 100 11 0 0 0 0 0 0 0 0 0 5 73 74 32 5 96 100 100 100 100 99 100 100 100 100
100 100 100 100 100 100 100 100 100 100 100 100 100 100 100 100 100 100 72 24 5 0 0 0 0 0 0 0 0 1 3 31 48 100 33 100 0 100 100 100 100 29 22 98 100
100 100 100 100 100 100 100 100 100 100 100 100 100 100 100 100 82 56 87 10 0 0 0 0 0 0 0 0 0 87 94 99 83 100 100 100 1 90 100 100 100 100 28 5 5
100 100 100 100 100 100 100 100 100 100 100 100 100 100 100 100 97 57 12 0 0 0 0 0 0 0 0 3 0 100 99 100 8 89 100 100 19 95 61 100 100 100 100 94 100
100 100 100 100 100 100 100 100 100 100 100 100 100 100 100 2 44 0 0 0 0 0 0 0 0 0 0 0 0 57 100 100 100 82 100 100 100 100 100 100 100 100 100 100 100
100 100 100 100 100 100 100 100 100 100 100 100 100 100 100 30 0 0 0 0 0 0 0 0 0 0 0 0 0 0 100 100 100 100 100 100 95 97 100 62 100 100 100 100 100
100 100 100 100 100 100 100 100 100 100 86 78 93 68 34 5 0 5 0 0 0 0 0 0 0 0 0 0 0 0 10 100 100 100 100 100 100 5 18 78 95 100 100 100 100
100 99 79 84 100 100 100 100 100 100 100 30 5 4 5 2 2 5 2 0 0 0 0 0 0 4 5 4 5 0 0 40 100 100 100 100 92 100 86 86 100 100 100 100 100
88 100 100 100 100 100 100 100 100 95 6 0 0 0 0 0 0 0 0 0 0 0 3 0 0 5 4 4 50 16 0 0 94 99 100 100 98 100 100 100 100 100 100 100 100
100 100 100 100 55 66 100 99 13 8 4 3 0 0 0 0 0 0 0 0 0 4 1 2 4 22 94 72 55 38 56 29 30 100 99 100 100 100 100 100 100 100 100 100 78
100 100 100 100 92 100 100 36 100 20 4 1 0 0 0 0 0 0 0 0 24 15 14 4 0 1 82 77 14 58 99 48 84 16 5 100 100 100 100 100 100 100 100 100 100
100 100 100 100 100 100 100 100 81 5 5 0 3 0 0 0 0 0 1 2 6 46 12 83 0 6 98 78 100 86 83 91 100 91 5 100 77 100 100 100 100 100 100 92 95
100 100 100 100 100 100 100 100 90 94 5 4 4 0 0 0 0 2 5 5 49 60 97 87 0 9 94 99 100 99 94 62 100 100 98 94 78 94 100 100 100 100 100 100 100
100 100 100 100 100 94 91 100 100 49 4 5 2 0 0 0 1 5 5 2 52 80 100 46 32 57 100 100 96 100 94 100 100 100 99 70 93 100 100 100 100 100 100 100 100
100 100 100 100 100 100 100 39 42 5 5 4 0 0 0 3 6 5 5 15 52 63 48 5 25 90 100 100 94 100 100 100 100 39 84 83 94 100 100 100 100 100 100 100 100
100 100 100 100 100 100 44 72 5 5 5 1 0 0 5 14 45 7 40 98 96 12 5 82 56 100 100 100 100 100 100 97 100 98 100 100 18 100 100 100 100 100 89 92 100
100 87 100 100 100 96 22 19 54 6 5 5 5 8 19 5 69 5 47 72 25 100 50 56 12 97 100 100 100 96 48 91 34 99 99 23 82 100 100 100 100 100 100 100 100
100 100 100 100 93 99 68 100 71 13 5 0 1 4 5 91 53 17 10 37 82 6 100 94 54 100 100 100 100 100 100 100 61 23 72 100 5 24 90 100 100 100 100 100 100
100 100 100 99 100 100 79 11 5 5 5 5 1 5 27 72 73 82 59 5 0 18 100 100 88 62 98 100 100 100 100 100 75 74 8 2 100 99 100 100 100 100 100 100 100
100 100 100 100 100 100 100 74 5 5 5 5 4 5 5 26 97 70 34 3 0 0 99 65 89 49 20 100 100 100 100 100 100 46 100 64 46 100 78 23 97 100 98 94 100
100 100 100 100 100 100 67 18 21 8 5 5 4 5 6 5 22 5 0 0 0 0 54 86 100 98 47 100 92 100 100 100 100 64 59 56 100 98 71 85 99 100 100 100 100

GFSSW_prec_cloud_123.txt.gz
Cloud_Cover
100 47 5 11 5 2 0 0 4 0 0 0 0 0 1 5 1 0 4 2 3 0 0 0 0 0 0 0 0 0 0 0 0 0 1 92 100 78 1 63 63 91 75 23 36
100 100 82 100 94 12 5 3 2 3 3 5 5 3 4 5 43 100 100 90 58 6 0 0 0 0 0 0 1 0 0 0 0 0 0 3 63 100 100 39 5 100 99 14 10
100 100 100 99 84 100 100 59 5 5 5 5 5 5 89 98 100 100 24 28 0 2 0 0 0 0 0 4 5 0 0 0 0 0 0 0 0 39 100 15 100 100 100 100 5
100 100 100 100 100 100 100 100 22 6 5 8 9 100 100 100 100 98 46 5 2 5 5 1 2 21 56 22 5 5 0 0 0 0 0 0 0 0 5 49 98 100 100 100 100
100 100 100 100 100 85 100 100 100 100 100 100 100 100 100 64 80 77 74 38 88 7 25 52 100 98 100 97 9 0 0 0 0 0 0 0 0 0 1 6 19 100 100 100 100
100 100 100 100 100 100 100 100 100 100 94 46 55 39 30 49 19 72 100 100 100 100 100 100 100 100 100 99 35 5 0 0 0 0 0 0 1 66 0 3 5 100 100 100 100
100 100 100 100 100 100 100 100 100 100 100 92 99 100 99 48 82 100 100 100 100 100 100 100 100 100 46 6 0 0 0 0 0 0 0 0 0 6 4 100 15 100 100 100 100
100 100 100 100 100 100 100 100 100 100 100 100 100 100 100 100 100 100 100 100 100 100 100 100 100 28 5 0 0 0 0 0 0 0 0 0 0 0 69 100 100 91 100 100 100
100 100 100 100 100 100 100 100 100 100 100 100 100 100 100 100 100 100 100 100 100 100 100 100 29 11 0 0 0 0 0 0 0 0 0 0 0 0 69 100 100 82 32 93 100
100 100 100 100 100 100 100 100 100 100 100 100 100 100 100 100 100 100 100 100 100 69 10 5 0 0 0 0 0 0 0 0 0 0 2 4 7 4 2 100 100 100 94 100 100
100 100 100 100 100 100 100 100 100 100 100 100 100 100 100 100 100 100 100 66 5 15 37 3 0 0 0 0 0 0 0 0 0 0 0 0 85 0 5 100 100 94 100 100 98
100 100 100 100 100 100 100 100 100 100 100 100 100 100 100 100 100 100 100 98 84 10 0 0 0 0 0 0 0 0 0 0 0 0 0 0 83 5 74 77 100 58 76 100 100
100 100 100 100 100 100 100 100 100 100 100 100 100 100 53 25 12 5 5 1 0 0 0 0 0 0 0 0 0 0 0 0 0 0 0 0 5 9 55 100 100 87 24 98 78
100 100 100 100 99 100 100 98 100 84 77 43 22 45 81 5 1 0 0 0 0 0 0 0 0 0 0 0 0 0 1 2 0 0 0 0 0 5 54 100 24 5 94 100 100
100 100 100 100 100 100 100 100 100 99 6 2 5 5 5 81 6 4 4 0 0 0 0 0 0 0 0 0 58 44 0 0 1 0 6 0 0 0 100 100 100 30 49 100 100
100 100 100 100 100 100 100 100 100 100 83 38 26 5 5 4 5 5 0 0 0 0 0 0 0 0 1 0 10 6 35 0 0 2 94 0 0 0 100 100 100 100 100 100 100
100 100 100 100 100 100 100 100 100 100 100 100 67 5 5 3 0 2 1 0 0 0 0 0 0 0 0 0 0 3 38 81 46 8 24 3 0 0 100 100 100 100 100 100 100
100 100 100 100 100 100 100 100 100 100 100 100 97 100 84 5 5 3 0 0 0 0 0 5 6 0 0 13 13 8 36 100 100 73 4 48 0 0 100 100 100 100 100 100 100
100 100 100 100 100 100 100 100 100 100 100 11 46 70 72 3 0 0 0 0 0 0 2 6 3 0 0 0 100 98 100 100 100 70 23 91 12 0 100 100 100 98 100 79 92
100 100 100 100 100 100 100 100 100 100 98 100 96 16 5 3 0 0 0 0 0 0 94 39 17 0 0 62 100 100 100 100 83 85 2 56 0 0 100 100 100 100 100 100 94
100 100 100 100 100 100 100 100 100 100 100 100 46 19 5 5 0 0 0 0 18 98 4 0 1 0 59 73 41 100 100 100 100 100 42 19 0 68 100 100 100 80 100 100 100
100 100 100 100 100 100 100 100 100 100 100 40 10 5 5 3 0 0 4 2 78 35 1 5 1 2 1 93 62 94 98 100 100 100 70 73 100 100 99 100 100 100 12 98 100
100 100 100 100 100 100 100 100 100 100 90 5 5 5 1 1 1 5 1 3 4 85 88 31 2 25 10 100 13 98 100 100 100 100 100 0 94 100 100 100 100 100 81 100 100
100 100 100 100 100 100 100 100 100 100 89 8 5 5 0 0 19 65 5 1 1 54 47 0 4 31 69 90 77 96 100 100 100 100 88 71 100 100 100 100 100 100 100 100 100
100 100 100 100 100 100 100 100 100 100 69 5 5 4 1 4 80 47 5 1 0 0 0 0 2 0 3 98 67 100 100 100 100 100 92 100 100 100 82 94 100 100 100 100 100
100 100 100 100 100 100 100 100 100 100 75 5 5 5 4 5 5 5 3 0 0 0 0 0 5 5 4 88 100 100 100 100 100 100 82 67 100 83 100 100 100 100 100 100 100
100 100 100 100 100 100 100 100 100 76 50 5 5 4 5 5 3 5 5 0 0 0 0 4 67 7 82 100 100 100 100 100 100 100 100 100 100 98 84 95 100 100 100 100 100

GFSSW_prec_cloud_126.txt.gz
Cloud_Cover
100 100 85 98 100 100 100 100 19 5 2 1 0 0 0 0 0 0 0 0 2 81 97 66 12 0 0 0 0 0 0 0 0 0 0 0 0 0 0 0 2 5 4 3 23
100 100 100 96 98 100 100 100 100 67 6 15 8 2 0 1 3 2 0 7 100 81 5 5 6 2 0 2 0 0 0 0 0 4 0 0 0 5 0 0 0 0 0 39 4
100 100 100 100 80 75 100 51 100 100 100 100 54 66 8 39 81 63 90 99 66 80 36 5 12 67 14 5 4 2 16 33 5 5 5 1 0 0 4 0 0 0 0 2 90
100 100 100 100 100 95 80 53 74 99 100 63 15 5 5 7 96 97 63 16 81 53 45 5 5 15 90 95 100 100 100 94 82 80 5 5 0 0 2 0 0 0 0 0 21
100 100 100 100 100 100 100 100 99 57 6 28 89 63 43 63 31 5 24 82 5 5 5 5 58 100 100 100 100 100 100 100 100 99 93 3 0 0 0 0 94 84 15 0 0
100 100 100 100 100 100 100 100 100 100 40 43 94 100 19 100 46 10 2 4 5 5 6 20 100 96 100 100 100 100 100 100 100 56 5 3 1 0 0 0 93 100 100 94 4
100 100 100 100 100 100 100 100 100 100 100 100 96 34 26 53 41 43 56 86 98 98 100 100 100 100 100 100 100 100 72 10 40 3 0 0 0 0 0 0 0 100 100 100 100
100 100 100 99 90 78 100 100 100 100 100 100 100 96 99 100 100 100 94 29 93 100 100 100 100 100 100 98 18 3 0 0 0 0 0 0 0 0 0 0 0 1 79 100 100
75 100 100 100 99 97 100 100 100 100 100 100 100 100 100 77 30 73 100 100 100 100 100 100 100 100 44 5 5 5 0 0 0 0 0 0 0 0 0 0 0 0 0 32 61
100 100 100 100 100 100 100 100 100 100 100 100 100 100 100 100 100 100 100 100 100 100 100 100 100 89 34 7 3 0 0 0 0 0 0 0 0 0 0 0 0 0 0 0 6
100 100 100 100 100 100 100 96 100 100 100 100 100 100 100 100 100 100 100 100 100 100 93 13 4 0 0 0 0 0 0 0 0 0 0 0 0 0 0 0 0 0 0 0 4
100 100 100 100 100 99 97 100 100 100 100 100 100 100 100 100 100 100 100 100 98 77 5 1 18 0 0 0 0 0 0 0 0 0 0 0 0 0 0 0 0 0 0 2 11
100 100 100 100 100 100 99 100 100 100 100 100 100 100 100 100 100 99 100 27 5 5 1 0 0 0 0 0 0 0 0 0 0 0 0 0 0 0 0 0 0 0 0 53 87
100 100 100 100 100 100 100 100 100 99 99 92 100 98 68 99 59 21 5 5 4 0 0 0 0 0 0 0 0 0 0 0 0 0 0 0 4 0 0 0 0 0 2 39 98
100 82 100 100 100 100 100 100 100 100 98 100 100 100 100 68 7 28 55 28 5 5 2 0 0 0 0 0 0 0 0 0 0 0 2 0 13 0 0 0 0 0 96 100 100
97 100 100 100 100 100 100 100 100 100 82 93 100 100 100 23 28 84 27 67 5 5 5 4 0 0 0 0 0 0 1 0 0 0 83 10 100 0 0 0 0 26 100 100 100
85 95 100 100 100 100 100 100 100 100 100 100 100 100 21 97 99 100 100 55 5 5 4 0 0 0 0 0 0 0 4 74 9 4 4 4 52 0 0 0 0 100 33 8 100
91 74 100 100 100 100 100 100 100 100 100 100 100 89 100 100 100 68 16 5 5 0 0 0 0 0 0 0 0 0 100 100 100 100 33 84 18 0 0 0 58 100 6 5 58
100 100 100 100 100 100 100 100 100 100 100 100 100 100 100 100 99 89 5 5 0 0 0 0 0 0 0 0 0 4 84 98 100 59 100 13 0 0 0 6 97 69 36 40 95
100 100 100 100 100 100 100 100 100 100 100 100 100 100 100 100 100 97 8 0 0 0 3 1 0 0 0 0 0 80 69 53 88 100 100 84 8 99 94 96 95 26 4 97 100
100 100 100 100 100 100 100 100 100 100 100 100 100 100 100 100 73 18 2 0 0 0 1 0 2 0 0 0 3 38 91 100 98 100 100 96 100 100 68 7 56 50 15 100 100
100 100 100 100 100 100 100 100 100 100 100 100 100 100 100 89 32 26 5 5 5 0 0 0 1 2 0 0 1 79 74 100 100 68 94 100 100 100 100 93 98 100 100 100 100
100 100 100 100 100 100 100 100 100 100 100 100 100 100 100 100 99 75 6 5 0 0 0 0 0 3 0 0 0 5 10 98 94 100 100 100 100 100 100 99 100 100 100 100 100
100 100 100 100 100 100 100 100 100 100 100 100 100 100 100 100 100 83 5 4 0 0 0 0 1 2 28 2 24 5 98 90 100 100 100 86 100 100 100 96 100 100 100 100 100
100 100 100 100 100 100 100 100 100 100 100 100 100 100 100 100 84 5 5 1 0 0 0 0 3 2 2 2 50 58 100 100 100 100 100 100 66 100 100 100 100 100 100 100 100
100 100 100 100 100 100 100 100 100 100 100 100 100 100 100 34 33 39 4 0 0 0 0 0 0 3 0 4 6 93 100 100 100 100 86 100 100 76 100 100 100 100 100 100 100
100 100 100 100 100 100 100 100 100 100 100 100 100 100 100 96 7 5 0 0 0 0 0 0 4 29 4 2 80 98 98 100 100 100 100 100 100 100 100 100 100 100 100 100 100